<?xml version='1.0' encoding='UTF-8'?><gpx version="1.1" creator="JPX - https://github.com/jenetics/jpx" xmlns="http://www.topografix.com/GPX/1/1"><trk><trkseg><trkpt lat="45.7595033" lon="8.9682333"><ele>385.00000000000006</ele><time>2026-04-21T13:29:04.281Z</time></trkpt><trkpt lat="45.7595167" lon="8.9681217"><ele>385.0</ele><time>2026-04-21T13:29:21.282Z</time></trkpt><trkpt lat="45.7595833" lon="8.96807"><ele>385.0</ele><time>2026-04-21T13:29:24.282Z</time></trkpt><trkpt lat="45.759665" lon="8.9680467"><ele>385.0</ele><time>2026-04-21T13:29:27.281Z</time></trkpt><trkpt lat="45.7597383" lon="8.9680883"><ele>385.00000000000006</ele><time>2026-04-21T13:29:30.282Z</time></trkpt><trkpt lat="45.75977" lon="8.9681667"><ele>385.0</ele><time>2026-04-21T13:29:32.28Z</time></trkpt><trkpt lat="45.7597817" lon="8.9683"><ele>384.25</ele><time>2026-04-21T13:29:34.281Z</time></trkpt><trkpt lat="45.75983" lon="8.9685017"><ele>383.5</ele><time>2026-04-21T13:29:37.282Z</time></trkpt><trkpt lat="45.75986" lon="8.96865"><ele>382.75</ele><time>2026-04-21T13:29:39.281Z</time></trkpt><trkpt lat="45.7598867" lon="8.9687983"><ele>382.0</ele><time>2026-04-21T13:29:41.281Z</time></trkpt><trkpt lat="45.7599233" lon="8.9689467"><ele>382.0</ele><time>2026-04-21T13:29:43.282Z</time></trkpt><trkpt lat="45.7599517" lon="8.9690933"><ele>382.0</ele><time>2026-04-21T13:29:45.28Z</time></trkpt><trkpt lat="45.759995" lon="8.9692367"><ele>382.0</ele><time>2026-04-21T13:29:47.281Z</time></trkpt><trkpt lat="45.7600333" lon="8.96936"><ele>382.0</ele><time>2026-04-21T13:29:49.281Z</time></trkpt><trkpt lat="45.7600733" lon="8.96946"><ele>382.0</ele><time>2026-04-21T13:35:04.281Z</time></trkpt><trkpt lat="45.7600917" lon="8.96957"><ele>382.16666666666663</ele><time>2026-04-21T13:35:09.281Z</time></trkpt><trkpt lat="45.76013" lon="8.969655"><ele>382.3333333333333</ele><time>2026-04-21T13:35:13.281Z</time></trkpt><trkpt lat="45.76019" lon="8.9697333"><ele>382.5</ele><time>2026-04-21T13:35:17.284Z</time></trkpt><trkpt lat="45.7602417" lon="8.96982"><ele>382.6666666666667</ele><time>2026-04-21T13:35:20.283Z</time></trkpt><trkpt lat="45.7603033" lon="8.96992"><ele>382.83333333333337</ele><time>2026-04-21T13:35:23.283Z</time></trkpt><trkpt lat="45.760355" lon="8.9699767"><ele>383.0</ele><time>2026-04-21T13:35:25.283Z</time></trkpt><trkpt lat="45.7604067" lon="8.9700367"><ele>382.6666666666667</ele><time>2026-04-21T13:35:28.283Z</time></trkpt><trkpt lat="45.7603367" lon="8.9700983"><ele>382.33333333333337</ele><time>2026-04-21T13:35:36.283Z</time></trkpt><trkpt lat="45.7602683" lon="8.97011"><ele>382.0</ele><time>2026-04-21T13:35:39.282Z</time></trkpt><trkpt lat="45.7601733" lon="8.9701117"><ele>381.6666666666667</ele><time>2026-04-21T13:35:42.284Z</time></trkpt><trkpt lat="45.7600983" lon="8.970115"><ele>381.3333333333333</ele><time>2026-04-21T13:35:44.284Z</time></trkpt><trkpt lat="45.760025" lon="8.9701333"><ele>381.0</ele><time>2026-04-21T13:35:46.282Z</time></trkpt><trkpt lat="45.7599467" lon="8.970165"><ele>379.5</ele><time>2026-04-21T13:35:48.282Z</time></trkpt><trkpt lat="45.7598733" lon="8.970185"><ele>378.0</ele><time>2026-04-21T13:35:50.283Z</time></trkpt><trkpt lat="45.759795" lon="8.97022"><ele>376.5</ele><time>2026-04-21T13:35:52.282Z</time></trkpt><trkpt lat="45.7597233" lon="8.9702317"><ele>375.0</ele><time>2026-04-21T13:35:54.282Z</time></trkpt><trkpt lat="45.75963" lon="8.9702267"><ele>373.5</ele><time>2026-04-21T13:35:57.282Z</time></trkpt><trkpt lat="45.7595633" lon="8.97024"><ele>372.0</ele><time>2026-04-21T13:35:59.282Z</time></trkpt><trkpt lat="45.7594867" lon="8.9702817"><ele>372.0</ele><time>2026-04-21T13:36:01.283Z</time></trkpt><trkpt lat="45.7594033" lon="8.9703133"><ele>372.0</ele><time>2026-04-21T13:36:03.281Z</time></trkpt><trkpt lat="45.7593167" lon="8.970325"><ele>372.0</ele><time>2026-04-21T13:36:05.283Z</time></trkpt><trkpt lat="45.7592517" lon="8.9703133"><ele>372.0</ele><time>2026-04-21T13:36:07.282Z</time></trkpt><trkpt lat="45.7591667" lon="8.970285"><ele>372.0</ele><time>2026-04-21T13:36:10.283Z</time></trkpt><trkpt lat="45.7590783" lon="8.970305"><ele>372.0</ele><time>2026-04-21T13:36:13.284Z</time></trkpt><trkpt lat="45.7590083" lon="8.9703433"><ele>372.20000000000005</ele><time>2026-04-21T13:36:15.284Z</time></trkpt><trkpt lat="45.75892" lon="8.970365"><ele>372.4</ele><time>2026-04-21T13:36:17.282Z</time></trkpt><trkpt lat="45.75882" lon="8.9703783"><ele>372.6</ele><time>2026-04-21T13:36:19.281Z</time></trkpt><trkpt lat="45.75874" lon="8.970375"><ele>372.79999999999995</ele><time>2026-04-21T13:36:21.283Z</time></trkpt><trkpt lat="45.75865" lon="8.9703683"><ele>373.0</ele><time>2026-04-21T13:36:23.282Z</time></trkpt><trkpt lat="45.7585583" lon="8.9703767"><ele>373.0</ele><time>2026-04-21T13:36:25.283Z</time></trkpt><trkpt lat="45.75846" lon="8.97039"><ele>373.0</ele><time>2026-04-21T13:36:27.284Z</time></trkpt><trkpt lat="45.758385" lon="8.9703867"><ele>373.0</ele><time>2026-04-21T13:36:29.284Z</time></trkpt><trkpt lat="45.758315" lon="8.9704"><ele>373.0</ele><time>2026-04-21T13:36:31.283Z</time></trkpt><trkpt lat="45.7582283" lon="8.9704383"><ele>373.0</ele><time>2026-04-21T13:36:33.282Z</time></trkpt><trkpt lat="45.758145" lon="8.97046"><ele>373.0</ele><time>2026-04-21T13:36:35.282Z</time></trkpt><trkpt lat="45.758065" lon="8.9704583"><ele>373.0</ele><time>2026-04-21T13:36:37.282Z</time></trkpt><trkpt lat="45.7580017" lon="8.9704433"><ele>373.0</ele><time>2026-04-21T13:36:39.281Z</time></trkpt><trkpt lat="45.75794" lon="8.97048"><ele>373.0</ele><time>2026-04-21T13:36:42.283Z</time></trkpt><trkpt lat="45.7578717" lon="8.9704667"><ele>373.0</ele><time>2026-04-21T13:36:52.282Z</time></trkpt><trkpt lat="45.7577833" lon="8.9704267"><ele>373.0</ele><time>2026-04-21T13:36:56.282Z</time></trkpt><trkpt lat="45.7577017" lon="8.9704083"><ele>373.0</ele><time>2026-04-21T13:36:58.284Z</time></trkpt><trkpt lat="45.7575917" lon="8.97039"><ele>372.0</ele><time>2026-04-21T13:37:00.283Z</time></trkpt><trkpt lat="45.757475" lon="8.970385"><ele>371.0</ele><time>2026-04-21T13:37:02.283Z</time></trkpt><trkpt lat="45.7573983" lon="8.9704483"><ele>370.0</ele><time>2026-04-21T13:37:04.283Z</time></trkpt><trkpt lat="45.7573383" lon="8.970575"><ele>369.0</ele><time>2026-04-21T13:37:06.282Z</time></trkpt><trkpt lat="45.7572667" lon="8.970655"><ele>368.0</ele><time>2026-04-21T13:37:08.283Z</time></trkpt><trkpt lat="45.7571917" lon="8.970675"><ele>368.0</ele><time>2026-04-21T13:37:10.283Z</time></trkpt><trkpt lat="45.757105" lon="8.9706617"><ele>368.0</ele><time>2026-04-21T13:37:12.281Z</time></trkpt><trkpt lat="45.7570167" lon="8.970645"><ele>368.0</ele><time>2026-04-21T13:37:14.283Z</time></trkpt><trkpt lat="45.75693" lon="8.9706233"><ele>368.0</ele><time>2026-04-21T13:37:16.283Z</time></trkpt><trkpt lat="45.7568483" lon="8.9706033"><ele>368.0</ele><time>2026-04-21T13:37:18.282Z</time></trkpt><trkpt lat="45.7567533" lon="8.970585"><ele>368.0</ele><time>2026-04-21T13:37:20.282Z</time></trkpt><trkpt lat="45.7566567" lon="8.9705717"><ele>367.0</ele><time>2026-04-21T13:37:22.282Z</time></trkpt><trkpt lat="45.7565533" lon="8.97058"><ele>366.0</ele><time>2026-04-21T13:37:24.282Z</time></trkpt><trkpt lat="45.7564567" lon="8.9705867"><ele>365.0</ele><time>2026-04-21T13:37:26.282Z</time></trkpt><trkpt lat="45.7563683" lon="8.970595"><ele>364.0</ele><time>2026-04-21T13:37:28.283Z</time></trkpt><trkpt lat="45.7562817" lon="8.97061"><ele>363.0</ele><time>2026-04-21T13:37:30.283Z</time></trkpt><trkpt lat="45.7561967" lon="8.97063"><ele>363.0</ele><time>2026-04-21T13:37:32.283Z</time></trkpt><trkpt lat="45.7561117" lon="8.970665"><ele>363.0</ele><time>2026-04-21T13:37:34.284Z</time></trkpt><trkpt lat="45.7560367" lon="8.9707217"><ele>363.0</ele><time>2026-04-21T13:37:36.284Z</time></trkpt><trkpt lat="45.7559717" lon="8.970775"><ele>363.0</ele><time>2026-04-21T13:37:38.285Z</time></trkpt><trkpt lat="45.7559167" lon="8.9708417"><ele>363.0</ele><time>2026-04-21T13:37:40.283Z</time></trkpt><trkpt lat="45.755875" lon="8.9709333"><ele>363.0</ele><time>2026-04-21T13:37:42.284Z</time></trkpt><trkpt lat="45.7558583" lon="8.9710533"><ele>363.1666666666667</ele><time>2026-04-21T13:37:44.285Z</time></trkpt><trkpt lat="45.7558117" lon="8.9711433"><ele>363.3333333333333</ele><time>2026-04-21T13:37:46.284Z</time></trkpt><trkpt lat="45.75573" lon="8.9711733"><ele>363.5</ele><time>2026-04-21T13:37:48.284Z</time></trkpt><trkpt lat="45.75565" lon="8.9711933"><ele>363.66666666666663</ele><time>2026-04-21T13:37:50.284Z</time></trkpt><trkpt lat="45.7555617" lon="8.9712183"><ele>363.8333333333333</ele><time>2026-04-21T13:37:52.285Z</time></trkpt><trkpt lat="45.7554683" lon="8.9712317"><ele>364.0</ele><time>2026-04-21T13:37:54.284Z</time></trkpt><trkpt lat="45.755375" lon="8.9712267"><ele>364.0</ele><time>2026-04-21T13:37:56.283Z</time></trkpt><trkpt lat="45.7552967" lon="8.9711983"><ele>364.0</ele><time>2026-04-21T13:37:58.281Z</time></trkpt><trkpt lat="45.7552333" lon="8.9711533"><ele>364.0</ele><time>2026-04-21T13:38:00.282Z</time></trkpt><trkpt lat="45.7551667" lon="8.97107"><ele>364.0</ele><time>2026-04-21T13:38:03.281Z</time></trkpt><trkpt lat="45.7551067" lon="8.970975"><ele>364.0</ele><time>2026-04-21T13:38:06.282Z</time></trkpt><trkpt lat="45.75506" lon="8.9708917"><ele>364.0</ele><time>2026-04-21T13:38:08.283Z</time></trkpt><trkpt lat="45.7550167" lon="8.97081"><ele>364.16666666666663</ele><time>2026-04-21T13:38:10.283Z</time></trkpt><trkpt lat="45.754975" lon="8.9707233"><ele>364.3333333333333</ele><time>2026-04-21T13:38:12.281Z</time></trkpt><trkpt lat="45.7549283" lon="8.97063"><ele>364.5</ele><time>2026-04-21T13:38:14.282Z</time></trkpt><trkpt lat="45.7548817" lon="8.970545"><ele>364.6666666666667</ele><time>2026-04-21T13:38:16.281Z</time></trkpt><trkpt lat="45.75484" lon="8.9704633"><ele>364.83333333333337</ele><time>2026-04-21T13:38:18.282Z</time></trkpt><trkpt lat="45.7547917" lon="8.9703767"><ele>365.0</ele><time>2026-04-21T13:38:20.283Z</time></trkpt><trkpt lat="45.7547467" lon="8.9702867"><ele>365.00000000000006</ele><time>2026-04-21T13:38:22.282Z</time></trkpt><trkpt lat="45.754705" lon="8.9702"><ele>365.0</ele><time>2026-04-21T13:38:24.282Z</time></trkpt><trkpt lat="45.7546717" lon="8.9701217"><ele>365.0</ele><time>2026-04-21T13:38:26.284Z</time></trkpt><trkpt lat="45.7546317" lon="8.9700283"><ele>365.0</ele><time>2026-04-21T13:38:28.281Z</time></trkpt><trkpt lat="45.754595" lon="8.96993"><ele>365.0</ele><time>2026-04-21T13:38:30.282Z</time></trkpt><trkpt lat="45.7545633" lon="8.9698367"><ele>365.00000000000006</ele><time>2026-04-21T13:38:32.283Z</time></trkpt><trkpt lat="45.7545317" lon="8.9697383"><ele>365.0</ele><time>2026-04-21T13:38:34.282Z</time></trkpt><trkpt lat="45.7545083" lon="8.9696467"><ele>364.6666666666667</ele><time>2026-04-21T13:38:36.283Z</time></trkpt><trkpt lat="45.754475" lon="8.96955"><ele>364.33333333333337</ele><time>2026-04-21T13:38:39.282Z</time></trkpt><trkpt lat="45.7544683" lon="8.9694483"><ele>364.0</ele><time>2026-04-21T13:38:52.282Z</time></trkpt><trkpt lat="45.7544367" lon="8.9693383"><ele>363.6666666666667</ele><time>2026-04-21T13:38:57.283Z</time></trkpt><trkpt lat="45.75443" lon="8.9692433"><ele>363.3333333333333</ele><time>2026-04-21T13:39:02.285Z</time></trkpt><trkpt lat="45.754395" lon="8.9691367"><ele>363.0</ele><time>2026-04-21T13:39:05.283Z</time></trkpt><trkpt lat="45.754375" lon="8.969025"><ele>363.4285714285714</ele><time>2026-04-21T13:39:07.281Z</time></trkpt><trkpt lat="45.7543633" lon="8.9689317"><ele>363.85714285714283</ele><time>2026-04-21T13:39:09.281Z</time></trkpt><trkpt lat="45.7543317" lon="8.968805"><ele>364.2857142857143</ele><time>2026-04-21T13:39:12.281Z</time></trkpt><trkpt lat="45.7543033" lon="8.9687083"><ele>364.71428571428567</ele><time>2026-04-21T13:39:14.281Z</time></trkpt><trkpt lat="45.7542767" lon="8.968615"><ele>365.14285714285717</ele><time>2026-04-21T13:39:16.281Z</time></trkpt><trkpt lat="45.7542567" lon="8.9685233"><ele>365.57142857142856</ele><time>2026-04-21T13:39:18.282Z</time></trkpt><trkpt lat="45.7542383" lon="8.96843"><ele>366.0</ele><time>2026-04-21T13:39:20.282Z</time></trkpt><trkpt lat="45.7542117" lon="8.96833"><ele>366.6</ele><time>2026-04-21T13:39:22.282Z</time></trkpt><trkpt lat="45.7541883" lon="8.9682167"><ele>367.20000000000005</ele><time>2026-04-21T13:39:24.283Z</time></trkpt><trkpt lat="45.75416" lon="8.9680983"><ele>367.79999999999995</ele><time>2026-04-21T13:39:26.282Z</time></trkpt><trkpt lat="45.7541317" lon="8.96797"><ele>368.4</ele><time>2026-04-21T13:39:28.282Z</time></trkpt><trkpt lat="45.7540983" lon="8.9678383"><ele>369.0</ele><time>2026-04-21T13:39:30.282Z</time></trkpt><trkpt lat="45.7540683" lon="8.9677167"><ele>369.0</ele><time>2026-04-21T13:39:32.283Z</time></trkpt><trkpt lat="45.75407" lon="8.9676117"><ele>369.0</ele><time>2026-04-21T13:39:34.282Z</time></trkpt><trkpt lat="45.7540783" lon="8.9674883"><ele>369.0</ele><time>2026-04-21T13:39:36.283Z</time></trkpt><trkpt lat="45.7540983" lon="8.9673567"><ele>369.0</ele><time>2026-04-21T13:39:38.282Z</time></trkpt><trkpt lat="45.754125" lon="8.967225"><ele>369.0</ele><time>2026-04-21T13:39:40.283Z</time></trkpt><trkpt lat="45.7541517" lon="8.9670833"><ele>369.3333333333333</ele><time>2026-04-21T13:39:42.282Z</time></trkpt><trkpt lat="45.7541833" lon="8.9669367"><ele>369.6666666666667</ele><time>2026-04-21T13:39:44.282Z</time></trkpt><trkpt lat="45.754215" lon="8.96681"><ele>370.0</ele><time>2026-04-21T13:39:46.282Z</time></trkpt><trkpt lat="45.7542417" lon="8.9667033"><ele>370.33333333333337</ele><time>2026-04-21T13:39:48.283Z</time></trkpt><trkpt lat="45.754255" lon="8.966605"><ele>370.6666666666667</ele><time>2026-04-21T13:39:50.283Z</time></trkpt><trkpt lat="45.7542833" lon="8.9665217"><ele>371.0</ele><time>2026-04-21T13:39:52.282Z</time></trkpt><trkpt lat="45.7543167" lon="8.9664283"><ele>371.7142857142857</ele><time>2026-04-21T13:39:55.283Z</time></trkpt><trkpt lat="45.7543033" lon="8.9663333"><ele>372.42857142857144</ele><time>2026-04-21T13:39:58.284Z</time></trkpt><trkpt lat="45.7542733" lon="8.9662367"><ele>373.1428571428571</ele><time>2026-04-21T13:40:01.283Z</time></trkpt><trkpt lat="45.754245" lon="8.96615"><ele>373.8571428571429</ele><time>2026-04-21T13:40:04.284Z</time></trkpt><trkpt lat="45.7542117" lon="8.9660483"><ele>374.57142857142856</ele><time>2026-04-21T13:40:07.282Z</time></trkpt><trkpt lat="45.754185" lon="8.9659583"><ele>375.2857142857143</ele><time>2026-04-21T13:40:10.282Z</time></trkpt><trkpt lat="45.7541617" lon="8.9658533"><ele>376.0</ele><time>2026-04-21T13:40:14.282Z</time></trkpt><trkpt lat="45.754145" lon="8.9657533"><ele>376.7142857142857</ele><time>2026-04-21T13:40:18.283Z</time></trkpt><trkpt lat="45.754125" lon="8.965645"><ele>377.42857142857144</ele><time>2026-04-21T13:40:23.282Z</time></trkpt><trkpt lat="45.7541" lon="8.9655483"><ele>378.1428571428571</ele><time>2026-04-21T13:40:27.282Z</time></trkpt><trkpt lat="45.7540817" lon="8.9654583"><ele>378.8571428571429</ele><time>2026-04-21T13:40:32.282Z</time></trkpt><trkpt lat="45.75407" lon="8.9653533"><ele>379.5714285714286</ele><time>2026-04-21T13:40:37.282Z</time></trkpt><trkpt lat="45.7540517" lon="8.965265"><ele>380.2857142857143</ele><time>2026-04-21T13:40:41.281Z</time></trkpt><trkpt lat="45.7540333" lon="8.9651617"><ele>381.0</ele><time>2026-04-21T13:40:45.282Z</time></trkpt><trkpt lat="45.7540133" lon="8.9650583"><ele>382.0</ele><time>2026-04-21T13:40:50.283Z</time></trkpt><trkpt lat="45.754005" lon="8.9649533"><ele>383.0</ele><time>2026-04-21T13:40:55.282Z</time></trkpt><trkpt lat="45.7539983" lon="8.96485"><ele>384.0</ele><time>2026-04-21T13:41:00.283Z</time></trkpt><trkpt lat="45.7539967" lon="8.9647467"><ele>385.0</ele><time>2026-04-21T13:41:06.282Z</time></trkpt><trkpt lat="45.753975" lon="8.9646617"><ele>386.0</ele><time>2026-04-21T13:41:11.282Z</time></trkpt><trkpt lat="45.7539317" lon="8.9645717"><ele>387.0</ele><time>2026-04-21T13:41:16.282Z</time></trkpt><trkpt lat="45.753875" lon="8.9644933"><ele>388.0</ele><time>2026-04-21T13:41:21.282Z</time></trkpt><trkpt lat="45.7538267" lon="8.9644133"><ele>388.00000000000006</ele><time>2026-04-21T13:41:26.284Z</time></trkpt><trkpt lat="45.7537883" lon="8.9643133"><ele>388.0</ele><time>2026-04-21T13:41:30.282Z</time></trkpt><trkpt lat="45.753765" lon="8.9642117"><ele>388.0</ele><time>2026-04-21T13:41:34.282Z</time></trkpt><trkpt lat="45.75375" lon="8.9641183"><ele>388.0</ele><time>2026-04-21T13:41:37.281Z</time></trkpt><trkpt lat="45.7537167" lon="8.9640233"><ele>388.00000000000006</ele><time>2026-04-21T13:41:40.282Z</time></trkpt><trkpt lat="45.7536817" lon="8.96391"><ele>388.0</ele><time>2026-04-21T13:41:44.282Z</time></trkpt><trkpt lat="45.7536483" lon="8.9638"><ele>388.83333333333337</ele><time>2026-04-21T13:41:47.282Z</time></trkpt><trkpt lat="45.7536283" lon="8.9636767"><ele>389.6666666666667</ele><time>2026-04-21T13:41:50.282Z</time></trkpt><trkpt lat="45.7536133" lon="8.9635667"><ele>390.5</ele><time>2026-04-21T13:41:53.281Z</time></trkpt><trkpt lat="45.7535983" lon="8.9634683"><ele>391.33333333333337</ele><time>2026-04-21T13:41:56.283Z</time></trkpt><trkpt lat="45.75358" lon="8.96336"><ele>392.1666666666667</ele><time>2026-04-21T13:41:59.284Z</time></trkpt><trkpt lat="45.7535717" lon="8.9632583"><ele>393.0</ele><time>2026-04-21T13:42:02.284Z</time></trkpt><trkpt lat="45.753605" lon="8.9631633"><ele>393.3333333333333</ele><time>2026-04-21T13:42:06.282Z</time></trkpt><trkpt lat="45.753635" lon="8.9630483"><ele>393.66666666666663</ele><time>2026-04-21T13:42:10.281Z</time></trkpt><trkpt lat="45.7536483" lon="8.9629483"><ele>394.0</ele><time>2026-04-21T13:42:13.281Z</time></trkpt><trkpt lat="45.753685" lon="8.9628733"><ele>394.3333333333333</ele><time>2026-04-21T13:42:17.281Z</time></trkpt><trkpt lat="45.753745" lon="8.962815"><ele>394.66666666666663</ele><time>2026-04-21T13:42:20.283Z</time></trkpt><trkpt lat="45.753805" lon="8.9627567"><ele>395.0</ele><time>2026-04-21T13:42:23.283Z</time></trkpt><trkpt lat="45.7538783" lon="8.9626883"><ele>395.0</ele><time>2026-04-21T13:42:26.282Z</time></trkpt><trkpt lat="45.753935" lon="8.962615"><ele>395.0</ele><time>2026-04-21T13:42:28.282Z</time></trkpt><trkpt lat="45.7539833" lon="8.9625383"><ele>395.0</ele><time>2026-04-21T13:42:30.282Z</time></trkpt><trkpt lat="45.7540283" lon="8.96247"><ele>395.0</ele><time>2026-04-21T13:42:32.282Z</time></trkpt><trkpt lat="45.754085" lon="8.9624117"><ele>395.0</ele><time>2026-04-21T13:42:34.282Z</time></trkpt><trkpt lat="45.7541417" lon="8.9623533"><ele>395.0</ele><time>2026-04-21T13:42:36.282Z</time></trkpt><trkpt lat="45.7542033" lon="8.9623083"><ele>395.0</ele><time>2026-04-21T13:42:38.283Z</time></trkpt><trkpt lat="45.754265" lon="8.9622617"><ele>395.2857142857143</ele><time>2026-04-21T13:42:40.282Z</time></trkpt><trkpt lat="45.7543233" lon="8.9622083"><ele>395.5714285714286</ele><time>2026-04-21T13:42:42.282Z</time></trkpt><trkpt lat="45.7543817" lon="8.9621383"><ele>395.8571428571429</ele><time>2026-04-21T13:42:44.283Z</time></trkpt><trkpt lat="45.7544383" lon="8.9620767"><ele>396.1428571428571</ele><time>2026-04-21T13:42:46.282Z</time></trkpt><trkpt lat="45.754515" lon="8.962005"><ele>396.42857142857144</ele><time>2026-04-21T13:42:49.282Z</time></trkpt><trkpt lat="45.7545667" lon="8.9619467"><ele>396.7142857142857</ele><time>2026-04-21T13:42:51.282Z</time></trkpt><trkpt lat="45.7546367" lon="8.9619183"><ele>397.0</ele><time>2026-04-21T13:42:54.284Z</time></trkpt><trkpt lat="45.7547233" lon="8.9619067"><ele>397.00000000000006</ele><time>2026-04-21T13:42:57.281Z</time></trkpt><trkpt lat="45.7548017" lon="8.9619467"><ele>397.0</ele><time>2026-04-21T13:43:00.282Z</time></trkpt><trkpt lat="45.75488" lon="8.961955"><ele>397.0</ele><time>2026-04-21T13:43:03.282Z</time></trkpt><trkpt lat="45.7549383" lon="8.9620133"><ele>397.0</ele><time>2026-04-21T13:43:07.282Z</time></trkpt><trkpt lat="45.7549867" lon="8.9620917"><ele>397.00000000000006</ele><time>2026-04-21T13:43:10.282Z</time></trkpt><trkpt lat="45.75507" lon="8.9621417"><ele>397.0</ele><time>2026-04-21T13:43:14.282Z</time></trkpt><trkpt lat="45.7551283" lon="8.962185"><ele>397.1666666666667</ele><time>2026-04-21T13:43:16.281Z</time></trkpt><trkpt lat="45.7552183" lon="8.9622367"><ele>397.33333333333337</ele><time>2026-04-21T13:43:19.281Z</time></trkpt><trkpt lat="45.75529" lon="8.9622483"><ele>397.5</ele><time>2026-04-21T13:43:21.281Z</time></trkpt><trkpt lat="45.7553767" lon="8.9622617"><ele>397.66666666666663</ele><time>2026-04-21T13:43:23.282Z</time></trkpt><trkpt lat="45.75546" lon="8.962265"><ele>397.8333333333333</ele><time>2026-04-21T13:43:25.281Z</time></trkpt><trkpt lat="45.75554" lon="8.9622733"><ele>398.0</ele><time>2026-04-21T13:43:27.281Z</time></trkpt><trkpt lat="45.7556133" lon="8.9622517"><ele>397.99999999999994</ele><time>2026-04-21T13:43:29.283Z</time></trkpt><trkpt lat="45.7556983" lon="8.9622133"><ele>398.0</ele><time>2026-04-21T13:43:31.283Z</time></trkpt><trkpt lat="45.7557583" lon="8.96217"><ele>398.0</ele><time>2026-04-21T13:43:33.282Z</time></trkpt><trkpt lat="45.7558233" lon="8.9621017"><ele>398.0</ele><time>2026-04-21T13:43:35.283Z</time></trkpt><trkpt lat="45.7558967" lon="8.9620233"><ele>397.99999999999994</ele><time>2026-04-21T13:43:37.284Z</time></trkpt><trkpt lat="45.75595" lon="8.9619633"><ele>398.0</ele><time>2026-04-21T13:43:39.282Z</time></trkpt><trkpt lat="45.7560067" lon="8.9618883"><ele>397.99999999999994</ele><time>2026-04-21T13:43:42.282Z</time></trkpt><trkpt lat="45.756065" lon="8.96183"><ele>398.0</ele><time>2026-04-21T13:43:44.283Z</time></trkpt><trkpt lat="45.7561283" lon="8.9617633"><ele>398.0</ele><time>2026-04-21T13:43:47.282Z</time></trkpt><trkpt lat="45.7562033" lon="8.9617233"><ele>398.0</ele><time>2026-04-21T13:43:50.283Z</time></trkpt><trkpt lat="45.7562617" lon="8.9616817"><ele>398.0</ele><time>2026-04-21T13:43:53.282Z</time></trkpt><trkpt lat="45.7563333" lon="8.9616183"><ele>397.99999999999994</ele><time>2026-04-21T13:43:56.284Z</time></trkpt><trkpt lat="45.7563883" lon="8.9615583"><ele>398.0</ele><time>2026-04-21T13:43:59.282Z</time></trkpt><trkpt lat="45.7564617" lon="8.961495"><ele>398.66666666666663</ele><time>2026-04-21T13:44:02.284Z</time></trkpt><trkpt lat="45.75652" lon="8.9614133"><ele>399.3333333333333</ele><time>2026-04-21T13:44:05.282Z</time></trkpt><trkpt lat="45.7566" lon="8.9613483"><ele>400.0</ele><time>2026-04-21T13:44:07.283Z</time></trkpt><trkpt lat="45.7566683" lon="8.9612633"><ele>400.66666666666663</ele><time>2026-04-21T13:44:09.282Z</time></trkpt><trkpt lat="45.7567417" lon="8.9611983"><ele>401.3333333333333</ele><time>2026-04-21T13:44:12.282Z</time></trkpt><trkpt lat="45.756815" lon="8.9611433"><ele>402.0</ele><time>2026-04-21T13:44:15.283Z</time></trkpt><trkpt lat="45.7568817" lon="8.9611083"><ele>402.1666666666667</ele><time>2026-04-21T13:44:17.282Z</time></trkpt><trkpt lat="45.7569717" lon="8.9610383"><ele>402.33333333333337</ele><time>2026-04-21T13:44:20.284Z</time></trkpt><trkpt lat="45.7570467" lon="8.9609717"><ele>402.5</ele><time>2026-04-21T13:44:22.283Z</time></trkpt><trkpt lat="45.75711" lon="8.9609017"><ele>402.6666666666667</ele><time>2026-04-21T13:44:24.284Z</time></trkpt><trkpt lat="45.7571633" lon="8.960845"><ele>402.83333333333337</ele><time>2026-04-21T13:44:26.283Z</time></trkpt><trkpt lat="45.7572233" lon="8.9607583"><ele>403.0</ele><time>2026-04-21T13:44:28.285Z</time></trkpt><trkpt lat="45.7572817" lon="8.9606767"><ele>403.33333333333337</ele><time>2026-04-21T13:44:30.283Z</time></trkpt><trkpt lat="45.7573417" lon="8.9605933"><ele>403.6666666666667</ele><time>2026-04-21T13:44:32.283Z</time></trkpt><trkpt lat="45.7573917" lon="8.9605383"><ele>404.0</ele><time>2026-04-21T13:44:34.284Z</time></trkpt><trkpt lat="45.7574433" lon="8.9604783"><ele>404.33333333333337</ele><time>2026-04-21T13:44:36.282Z</time></trkpt><trkpt lat="45.75752" lon="8.96036"><ele>404.6666666666667</ele><time>2026-04-21T13:44:38.283Z</time></trkpt><trkpt lat="45.7575833" lon="8.960285"><ele>405.0</ele><time>2026-04-21T13:44:40.282Z</time></trkpt><trkpt lat="45.7576383" lon="8.96022"><ele>405.0</ele><time>2026-04-21T13:44:42.283Z</time></trkpt><trkpt lat="45.75769" lon="8.9601633"><ele>405.0</ele><time>2026-04-21T13:44:44.283Z</time></trkpt><trkpt lat="45.7577567" lon="8.9600733"><ele>405.0</ele><time>2026-04-21T13:44:47.282Z</time></trkpt><trkpt lat="45.7578067" lon="8.960005"><ele>405.0</ele><time>2026-04-21T13:44:49.284Z</time></trkpt><trkpt lat="45.7578667" lon="8.959915"><ele>405.0</ele><time>2026-04-21T13:44:52.282Z</time></trkpt><trkpt lat="45.7579217" lon="8.959845"><ele>405.0</ele><time>2026-04-21T13:44:55.283Z</time></trkpt><trkpt lat="45.7579933" lon="8.9597833"><ele>405.5</ele><time>2026-04-21T13:44:58.282Z</time></trkpt><trkpt lat="45.7580683" lon="8.9597133"><ele>406.0</ele><time>2026-04-21T13:45:01.282Z</time></trkpt><trkpt lat="45.7581267" lon="8.9596317"><ele>406.5</ele><time>2026-04-21T13:45:04.283Z</time></trkpt><trkpt lat="45.7581917" lon="8.9595433"><ele>407.0</ele><time>2026-04-21T13:45:07.284Z</time></trkpt><trkpt lat="45.7582267" lon="8.959465"><ele>407.5</ele><time>2026-04-21T13:45:09.284Z</time></trkpt><trkpt lat="45.7582717" lon="8.959355"><ele>408.0</ele><time>2026-04-21T13:45:12.284Z</time></trkpt><trkpt lat="45.7583333" lon="8.95926"><ele>408.0</ele><time>2026-04-21T13:45:15.284Z</time></trkpt><trkpt lat="45.7583817" lon="8.9591917"><ele>408.0</ele><time>2026-04-21T13:45:17.284Z</time></trkpt><trkpt lat="45.758435" lon="8.95911"><ele>408.0</ele><time>2026-04-21T13:45:19.282Z</time></trkpt><trkpt lat="45.7584867" lon="8.9590233"><ele>408.0</ele><time>2026-04-21T13:45:21.283Z</time></trkpt><trkpt lat="45.7585333" lon="8.9589483"><ele>408.0</ele><time>2026-04-21T13:45:23.283Z</time></trkpt><trkpt lat="45.7585867" lon="8.9588833"><ele>408.0</ele><time>2026-04-21T13:45:25.284Z</time></trkpt><trkpt lat="45.7586433" lon="8.9588317"><ele>408.0</ele><time>2026-04-21T13:45:27.282Z</time></trkpt><trkpt lat="45.758705" lon="8.9587867"><ele>407.6666666666667</ele><time>2026-04-21T13:45:29.283Z</time></trkpt><trkpt lat="45.7587667" lon="8.9587467"><ele>407.33333333333337</ele><time>2026-04-21T13:45:31.284Z</time></trkpt><trkpt lat="45.7588517" lon="8.9587183"><ele>407.0</ele><time>2026-04-21T13:45:34.284Z</time></trkpt><trkpt lat="45.7589183" lon="8.9586933"><ele>406.6666666666667</ele><time>2026-04-21T13:45:37.285Z</time></trkpt><trkpt lat="45.7589917" lon="8.9586483"><ele>406.33333333333337</ele><time>2026-04-21T13:45:40.283Z</time></trkpt><trkpt lat="45.7590517" lon="8.9585933"><ele>406.0</ele><time>2026-04-21T13:45:42.284Z</time></trkpt><trkpt lat="45.7591133" lon="8.9585283"><ele>406.00000000000006</ele><time>2026-04-21T13:45:44.283Z</time></trkpt><trkpt lat="45.75917" lon="8.958465"><ele>406.0</ele><time>2026-04-21T13:45:46.285Z</time></trkpt><trkpt lat="45.75922" lon="8.9583917"><ele>406.0</ele><time>2026-04-21T13:45:48.283Z</time></trkpt><trkpt lat="45.759255" lon="8.9582733"><ele>406.0</ele><time>2026-04-21T13:45:51.283Z</time></trkpt><trkpt lat="45.7592567" lon="8.9581633"><ele>406.00000000000006</ele><time>2026-04-21T13:45:54.284Z</time></trkpt><trkpt lat="45.7592583" lon="8.9580433"><ele>406.0</ele><time>2026-04-21T13:45:57.283Z</time></trkpt><trkpt lat="45.75924" lon="8.957925"><ele>406.1666666666667</ele><time>2026-04-21T13:46:00.283Z</time></trkpt><trkpt lat="45.759215" lon="8.9578033"><ele>406.33333333333337</ele><time>2026-04-21T13:46:03.283Z</time></trkpt><trkpt lat="45.75919" lon="8.9577183"><ele>406.5</ele><time>2026-04-21T13:46:05.283Z</time></trkpt><trkpt lat="45.759175" lon="8.9576233"><ele>406.66666666666663</ele><time>2026-04-21T13:46:07.282Z</time></trkpt><trkpt lat="45.7591817" lon="8.9575317"><ele>406.8333333333333</ele><time>2026-04-21T13:46:09.282Z</time></trkpt><trkpt lat="45.759225" lon="8.957425"><ele>407.0</ele><time>2026-04-21T13:46:12.284Z</time></trkpt><trkpt lat="45.7593067" lon="8.9573633"><ele>407.49999999999994</ele><time>2026-04-21T13:46:15.285Z</time></trkpt><trkpt lat="45.7593933" lon="8.95734"><ele>408.0</ele><time>2026-04-21T13:46:18.285Z</time></trkpt><trkpt lat="45.7594617" lon="8.957315"><ele>408.5</ele><time>2026-04-21T13:46:20.285Z</time></trkpt><trkpt lat="45.7595483" lon="8.9572717"><ele>409.0</ele><time>2026-04-21T13:46:23.283Z</time></trkpt><trkpt lat="45.759625" lon="8.9572367"><ele>409.49999999999994</ele><time>2026-04-21T13:46:25.282Z</time></trkpt><trkpt lat="45.7596883" lon="8.957215"><ele>410.0</ele><time>2026-04-21T13:46:27.284Z</time></trkpt><trkpt lat="45.7597467" lon="8.9571733"><ele>409.99999999999994</ele><time>2026-04-21T13:46:29.283Z</time></trkpt><trkpt lat="45.759795" lon="8.9571033"><ele>410.0</ele><time>2026-04-21T13:46:31.282Z</time></trkpt><trkpt lat="45.7598383" lon="8.9569983"><ele>410.0</ele><time>2026-04-21T13:46:34.282Z</time></trkpt><trkpt lat="45.75984" lon="8.9568733"><ele>410.0</ele><time>2026-04-21T13:46:37.283Z</time></trkpt><trkpt lat="45.7598283" lon="8.9567817"><ele>409.99999999999994</ele><time>2026-04-21T13:46:39.283Z</time></trkpt><trkpt lat="45.7598117" lon="8.9566933"><ele>410.0</ele><time>2026-04-21T13:46:41.283Z</time></trkpt><trkpt lat="45.7597983" lon="8.9565717"><ele>409.49999999999994</ele><time>2026-04-21T13:46:44.283Z</time></trkpt><trkpt lat="45.7597767" lon="8.95648"><ele>409.0</ele><time>2026-04-21T13:46:46.282Z</time></trkpt><trkpt lat="45.7597533" lon="8.9563883"><ele>408.5</ele><time>2026-04-21T13:46:48.283Z</time></trkpt><trkpt lat="45.7597317" lon="8.95626"><ele>408.0</ele><time>2026-04-21T13:46:51.282Z</time></trkpt><trkpt lat="45.759715" lon="8.95617"><ele>407.49999999999994</ele><time>2026-04-21T13:46:53.284Z</time></trkpt><trkpt lat="45.7596883" lon="8.9560567"><ele>407.0</ele><time>2026-04-21T13:46:56.283Z</time></trkpt><trkpt lat="45.759655" lon="8.9559333"><ele>406.49999999999994</ele><time>2026-04-21T13:46:59.283Z</time></trkpt><trkpt lat="45.759625" lon="8.95581"><ele>406.0</ele><time>2026-04-21T13:47:02.282Z</time></trkpt><trkpt lat="45.7596033" lon="8.955675"><ele>405.5</ele><time>2026-04-21T13:47:05.282Z</time></trkpt><trkpt lat="45.7595867" lon="8.9555817"><ele>405.0</ele><time>2026-04-21T13:47:07.281Z</time></trkpt><trkpt lat="45.7595617" lon="8.9554883"><ele>404.49999999999994</ele><time>2026-04-21T13:47:09.283Z</time></trkpt><trkpt lat="45.7595467" lon="8.9553967"><ele>404.0</ele><time>2026-04-21T13:47:11.282Z</time></trkpt><trkpt lat="45.7595317" lon="8.9552933"><ele>404.0</ele><time>2026-04-21T13:47:13.283Z</time></trkpt><trkpt lat="45.7595133" lon="8.9551933"><ele>404.0</ele><time>2026-04-21T13:47:15.281Z</time></trkpt><trkpt lat="45.759495" lon="8.9550917"><ele>404.0</ele><time>2026-04-21T13:47:17.283Z</time></trkpt><trkpt lat="45.7594767" lon="8.9549917"><ele>404.0</ele><time>2026-04-21T13:47:19.283Z</time></trkpt><trkpt lat="45.75946" lon="8.95489"><ele>404.0</ele><time>2026-04-21T13:47:21.284Z</time></trkpt><trkpt lat="45.75944" lon="8.9547817"><ele>404.0</ele><time>2026-04-21T13:47:23.283Z</time></trkpt><trkpt lat="45.7594267" lon="8.9546767"><ele>404.0</ele><time>2026-04-21T13:47:25.283Z</time></trkpt><trkpt lat="45.7594067" lon="8.9545833"><ele>404.0</ele><time>2026-04-21T13:47:27.283Z</time></trkpt><trkpt lat="45.75939" lon="8.95449"><ele>404.0</ele><time>2026-04-21T13:47:29.282Z</time></trkpt><trkpt lat="45.7593633" lon="8.95439"><ele>404.0</ele><time>2026-04-21T13:47:31.282Z</time></trkpt><trkpt lat="45.75934" lon="8.9542917"><ele>404.0</ele><time>2026-04-21T13:47:33.283Z</time></trkpt><trkpt lat="45.7593283" lon="8.9541933"><ele>404.0</ele><time>2026-04-21T13:47:35.283Z</time></trkpt><trkpt lat="45.75932" lon="8.9541017"><ele>404.0</ele><time>2026-04-21T13:47:37.283Z</time></trkpt><trkpt lat="45.7593017" lon="8.954015"><ele>404.0</ele><time>2026-04-21T13:47:39.283Z</time></trkpt><trkpt lat="45.7592667" lon="8.9539033"><ele>405.8333333333333</ele><time>2026-04-21T13:47:42.283Z</time></trkpt><trkpt lat="45.7592417" lon="8.9538017"><ele>407.66666666666663</ele><time>2026-04-21T13:47:45.282Z</time></trkpt><trkpt lat="45.75921" lon="8.953705"><ele>409.5</ele><time>2026-04-21T13:47:48.284Z</time></trkpt><trkpt lat="45.7591517" lon="8.9536167"><ele>411.33333333333337</ele><time>2026-04-21T13:47:51.283Z</time></trkpt><trkpt lat="45.759105" lon="8.9535467"><ele>413.1666666666667</ele><time>2026-04-21T13:47:53.283Z</time></trkpt><trkpt lat="45.75904" lon="8.95346"><ele>415.0</ele><time>2026-04-21T13:47:56.282Z</time></trkpt><trkpt lat="45.7590183" lon="8.9533733"><ele>416.1666666666667</ele><time>2026-04-21T13:47:59.284Z</time></trkpt><trkpt lat="45.7590417" lon="8.9532717"><ele>417.33333333333337</ele><time>2026-04-21T13:48:02.282Z</time></trkpt><trkpt lat="45.7590783" lon="8.9531717"><ele>418.5</ele><time>2026-04-21T13:48:05.283Z</time></trkpt><trkpt lat="45.75911" lon="8.9530917"><ele>419.66666666666663</ele><time>2026-04-21T13:48:07.283Z</time></trkpt><trkpt lat="45.7591667" lon="8.9530083"><ele>420.8333333333333</ele><time>2026-04-21T13:48:10.282Z</time></trkpt><trkpt lat="45.75923" lon="8.95293"><ele>422.0</ele><time>2026-04-21T13:48:13.283Z</time></trkpt><trkpt lat="45.7592783" lon="8.9528633"><ele>421.99999999999994</ele><time>2026-04-21T13:48:15.282Z</time></trkpt><trkpt lat="45.7593217" lon="8.9527917"><ele>422.0</ele><time>2026-04-21T13:48:17.282Z</time></trkpt><trkpt lat="45.7593567" lon="8.952705"><ele>422.0</ele><time>2026-04-21T13:48:19.285Z</time></trkpt><trkpt lat="45.7594033" lon="8.95258"><ele>422.0</ele><time>2026-04-21T13:48:22.282Z</time></trkpt><trkpt lat="45.759455" lon="8.952475"><ele>421.99999999999994</ele><time>2026-04-21T13:48:25.281Z</time></trkpt><trkpt lat="45.7594883" lon="8.9523833"><ele>422.0</ele><time>2026-04-21T13:48:27.282Z</time></trkpt><trkpt lat="45.7595233" lon="8.9522933"><ele>421.99999999999994</ele><time>2026-04-21T13:48:29.282Z</time></trkpt><trkpt lat="45.759565" lon="8.95219"><ele>422.0</ele><time>2026-04-21T13:48:32.283Z</time></trkpt><trkpt lat="45.75962" lon="8.9520867"><ele>422.0</ele><time>2026-04-21T13:48:35.282Z</time></trkpt><trkpt lat="45.7596617" lon="8.9520167"><ele>422.0</ele><time>2026-04-21T13:48:37.283Z</time></trkpt><trkpt lat="45.7597033" lon="8.9519383"><ele>421.99999999999994</ele><time>2026-04-21T13:48:39.283Z</time></trkpt><trkpt lat="45.7597483" lon="8.951855"><ele>422.0</ele><time>2026-04-21T13:48:41.283Z</time></trkpt><trkpt lat="45.7597933" lon="8.9517583"><ele>421.6</ele><time>2026-04-21T13:48:43.283Z</time></trkpt><trkpt lat="45.7598417" lon="8.95166"><ele>421.20000000000005</ele><time>2026-04-21T13:48:45.282Z</time></trkpt><trkpt lat="45.7598967" lon="8.9515483"><ele>420.8</ele><time>2026-04-21T13:48:47.283Z</time></trkpt><trkpt lat="45.759955" lon="8.9514267"><ele>420.4</ele><time>2026-04-21T13:48:49.283Z</time></trkpt><trkpt lat="45.760015" lon="8.9512833"><ele>420.0</ele><time>2026-04-21T13:48:51.282Z</time></trkpt><trkpt lat="45.76008" lon="8.9511617"><ele>420.0</ele><time>2026-04-21T13:48:53.283Z</time></trkpt><trkpt lat="45.7601317" lon="8.9510583"><ele>420.0</ele><time>2026-04-21T13:48:55.284Z</time></trkpt><trkpt lat="45.7601633" lon="8.9509533"><ele>420.0</ele><time>2026-04-21T13:48:57.283Z</time></trkpt><trkpt lat="45.76018" lon="8.950815"><ele>420.0</ele><time>2026-04-21T13:48:59.283Z</time></trkpt><trkpt lat="45.7601917" lon="8.9506933"><ele>420.0</ele><time>2026-04-21T13:49:01.282Z</time></trkpt><trkpt lat="45.760215" lon="8.9505333"><ele>419.8333333333333</ele><time>2026-04-21T13:49:03.283Z</time></trkpt><trkpt lat="45.7602433" lon="8.95043"><ele>419.66666666666663</ele><time>2026-04-21T13:49:05.283Z</time></trkpt><trkpt lat="45.7602683" lon="8.950315"><ele>419.5</ele><time>2026-04-21T13:49:07.282Z</time></trkpt><trkpt lat="45.760275" lon="8.9501917"><ele>419.3333333333333</ele><time>2026-04-21T13:49:09.283Z</time></trkpt><trkpt lat="45.760265" lon="8.9500567"><ele>419.16666666666663</ele><time>2026-04-21T13:49:11.281Z</time></trkpt><trkpt lat="45.7602417" lon="8.9499433"><ele>419.0</ele><time>2026-04-21T13:49:13.282Z</time></trkpt><trkpt lat="45.76021" lon="8.949835"><ele>419.8333333333333</ele><time>2026-04-21T13:49:15.282Z</time></trkpt><trkpt lat="45.7601767" lon="8.9497417"><ele>420.66666666666663</ele><time>2026-04-21T13:49:17.282Z</time></trkpt><trkpt lat="45.7601367" lon="8.9496467"><ele>421.5</ele><time>2026-04-21T13:49:19.283Z</time></trkpt><trkpt lat="45.7600817" lon="8.9495517"><ele>422.33333333333337</ele><time>2026-04-21T13:49:21.283Z</time></trkpt><trkpt lat="45.76002" lon="8.9494733"><ele>423.1666666666667</ele><time>2026-04-21T13:49:23.284Z</time></trkpt><trkpt lat="45.759955" lon="8.9493667"><ele>424.0</ele><time>2026-04-21T13:49:25.283Z</time></trkpt><trkpt lat="45.7598933" lon="8.9492583"><ele>423.4</ele><time>2026-04-21T13:49:27.282Z</time></trkpt><trkpt lat="45.759815" lon="8.94912"><ele>422.79999999999995</ele><time>2026-04-21T13:49:29.283Z</time></trkpt><trkpt lat="45.75977" lon="8.9490483"><ele>422.20000000000005</ele><time>2026-04-21T13:49:30.283Z</time></trkpt><trkpt lat="45.759695" lon="8.9489317"><ele>421.6</ele><time>2026-04-21T13:49:32.283Z</time></trkpt><trkpt lat="45.7596183" lon="8.9488233"><ele>421.0</ele><time>2026-04-21T13:49:34.282Z</time></trkpt><trkpt lat="45.7595317" lon="8.9487083"><ele>421.00000000000006</ele><time>2026-04-21T13:49:36.283Z</time></trkpt><trkpt lat="45.7594717" lon="8.94862"><ele>421.0</ele><time>2026-04-21T13:49:38.283Z</time></trkpt><trkpt lat="45.75942" lon="8.9485267"><ele>421.0</ele><time>2026-04-21T13:49:40.283Z</time></trkpt><trkpt lat="45.75937" lon="8.9484183"><ele>421.0</ele><time>2026-04-21T13:49:42.282Z</time></trkpt><trkpt lat="45.7593317" lon="8.9483033"><ele>421.00000000000006</ele><time>2026-04-21T13:49:44.283Z</time></trkpt><trkpt lat="45.7593117" lon="8.9481967"><ele>421.0</ele><time>2026-04-21T13:49:46.283Z</time></trkpt><trkpt lat="45.7593017" lon="8.9480933"><ele>421.20000000000005</ele><time>2026-04-21T13:49:48.283Z</time></trkpt><trkpt lat="45.75931" lon="8.94798"><ele>421.40000000000003</ele><time>2026-04-21T13:49:50.283Z</time></trkpt><trkpt lat="45.75933" lon="8.9478533"><ele>421.6</ele><time>2026-04-21T13:49:52.284Z</time></trkpt><trkpt lat="45.7593483" lon="8.9477233"><ele>421.8</ele><time>2026-04-21T13:49:54.283Z</time></trkpt><trkpt lat="45.759365" lon="8.9475817"><ele>422.0</ele><time>2026-04-21T13:49:56.282Z</time></trkpt><trkpt lat="45.759385" lon="8.9474483"><ele>420.40000000000003</ele><time>2026-04-21T13:49:58.283Z</time></trkpt><trkpt lat="45.759395" lon="8.9473067"><ele>418.8</ele><time>2026-04-21T13:50:00.284Z</time></trkpt><trkpt lat="45.75941" lon="8.9471783"><ele>417.2</ele><time>2026-04-21T13:50:02.283Z</time></trkpt><trkpt lat="45.7594117" lon="8.9470167"><ele>415.6</ele><time>2026-04-21T13:50:04.282Z</time></trkpt><trkpt lat="45.7594167" lon="8.946845"><ele>414.0</ele><time>2026-04-21T13:50:06.284Z</time></trkpt><trkpt lat="45.7594333" lon="8.946685"><ele>414.0</ele><time>2026-04-21T13:50:08.284Z</time></trkpt><trkpt lat="45.7594483" lon="8.946525"><ele>414.0</ele><time>2026-04-21T13:50:10.284Z</time></trkpt><trkpt lat="45.7594683" lon="8.9463817"><ele>414.0</ele><time>2026-04-21T13:50:12.283Z</time></trkpt><trkpt lat="45.75949" lon="8.9462467"><ele>414.0</ele><time>2026-04-21T13:50:14.283Z</time></trkpt><trkpt lat="45.75951" lon="8.9461183"><ele>414.0</ele><time>2026-04-21T13:50:16.282Z</time></trkpt><trkpt lat="45.7595317" lon="8.9459933"><ele>414.0</ele><time>2026-04-21T13:50:18.283Z</time></trkpt><trkpt lat="45.7595483" lon="8.9458567"><ele>414.0</ele><time>2026-04-21T13:50:20.285Z</time></trkpt><trkpt lat="45.7595617" lon="8.94572"><ele>414.0</ele><time>2026-04-21T13:50:22.282Z</time></trkpt><trkpt lat="45.759585" lon="8.9455933"><ele>414.0</ele><time>2026-04-21T13:50:24.284Z</time></trkpt><trkpt lat="45.7596167" lon="8.9454667"><ele>414.0</ele><time>2026-04-21T13:50:26.284Z</time></trkpt><trkpt lat="45.7596583" lon="8.945365"><ele>414.0</ele><time>2026-04-21T13:50:28.283Z</time></trkpt><trkpt lat="45.7597" lon="8.945275"><ele>414.0</ele><time>2026-04-21T13:50:30.283Z</time></trkpt><trkpt lat="45.7597417" lon="8.9451633"><ele>414.0</ele><time>2026-04-21T13:50:33.283Z</time></trkpt><trkpt lat="45.7597033" lon="8.945075"><ele>414.0</ele><time>2026-04-21T13:50:37.282Z</time></trkpt><trkpt lat="45.7596167" lon="8.94507"><ele>414.0</ele><time>2026-04-21T13:50:40.284Z</time></trkpt><trkpt lat="45.7595433" lon="8.945065"><ele>414.0</ele><time>2026-04-21T13:50:42.284Z</time></trkpt><trkpt lat="45.7594733" lon="8.945055"><ele>414.0</ele><time>2026-04-21T13:50:44.283Z</time></trkpt><trkpt lat="45.7593867" lon="8.9450467"><ele>414.0</ele><time>2026-04-21T13:50:46.282Z</time></trkpt><trkpt lat="45.7592917" lon="8.94504"><ele>414.0</ele><time>2026-04-21T13:50:48.283Z</time></trkpt><trkpt lat="45.7591983" lon="8.9450483"><ele>414.0</ele><time>2026-04-21T13:50:50.283Z</time></trkpt><trkpt lat="45.7590917" lon="8.9450533"><ele>414.0</ele><time>2026-04-21T13:50:52.283Z</time></trkpt><trkpt lat="45.758985" lon="8.945075"><ele>414.79999999999995</ele><time>2026-04-21T13:50:54.284Z</time></trkpt><trkpt lat="45.7588783" lon="8.945105"><ele>415.59999999999997</ele><time>2026-04-21T13:50:56.283Z</time></trkpt><trkpt lat="45.7587767" lon="8.9451167"><ele>416.4</ele><time>2026-04-21T13:50:58.283Z</time></trkpt><trkpt lat="45.7586833" lon="8.9451383"><ele>417.2</ele><time>2026-04-21T13:51:00.284Z</time></trkpt><trkpt lat="45.7585783" lon="8.9451717"><ele>418.0</ele><time>2026-04-21T13:51:02.285Z</time></trkpt><trkpt lat="45.7584817" lon="8.9452117"><ele>418.0</ele><time>2026-04-21T13:51:04.282Z</time></trkpt><trkpt lat="45.7583867" lon="8.9452633"><ele>418.0</ele><time>2026-04-21T13:51:06.283Z</time></trkpt><trkpt lat="45.7583083" lon="8.94531"><ele>418.0</ele><time>2026-04-21T13:51:08.282Z</time></trkpt><trkpt lat="45.7582083" lon="8.94535"><ele>418.0</ele><time>2026-04-21T13:51:10.282Z</time></trkpt><trkpt lat="45.7581017" lon="8.945425"><ele>418.0</ele><time>2026-04-21T13:51:12.283Z</time></trkpt><trkpt lat="45.7580033" lon="8.9454817"><ele>418.0</ele><time>2026-04-21T13:51:14.284Z</time></trkpt><trkpt lat="45.75791" lon="8.9455067"><ele>418.0</ele><time>2026-04-21T13:51:16.283Z</time></trkpt><trkpt lat="45.7578183" lon="8.9454933"><ele>418.0</ele><time>2026-04-21T13:51:18.283Z</time></trkpt><trkpt lat="45.7577233" lon="8.9454967"><ele>418.0</ele><time>2026-04-21T13:51:20.283Z</time></trkpt><trkpt lat="45.7576183" lon="8.9454983"><ele>418.0</ele><time>2026-04-21T13:51:22.282Z</time></trkpt><trkpt lat="45.75753" lon="8.9454917"><ele>417.75</ele><time>2026-04-21T13:51:24.283Z</time></trkpt><trkpt lat="45.75743" lon="8.945465"><ele>417.5</ele><time>2026-04-21T13:51:26.283Z</time></trkpt><trkpt lat="45.7573333" lon="8.945395"><ele>417.25</ele><time>2026-04-21T13:51:28.283Z</time></trkpt><trkpt lat="45.7572433" lon="8.94529"><ele>417.0</ele><time>2026-04-21T13:51:30.283Z</time></trkpt><trkpt lat="45.75716" lon="8.9451567"><ele>416.40000000000003</ele><time>2026-04-21T13:51:32.284Z</time></trkpt><trkpt lat="45.7570983" lon="8.94502"><ele>415.8</ele><time>2026-04-21T13:51:34.284Z</time></trkpt><trkpt lat="45.7570667" lon="8.9448733"><ele>415.2</ele><time>2026-04-21T13:51:36.284Z</time></trkpt><trkpt lat="45.7570633" lon="8.9447217"><ele>414.6</ele><time>2026-04-21T13:51:38.286Z</time></trkpt><trkpt lat="45.7570633" lon="8.9445583"><ele>414.0</ele><time>2026-04-21T13:51:40.284Z</time></trkpt><trkpt lat="45.7570517" lon="8.9444117"><ele>414.0</ele><time>2026-04-21T13:51:42.283Z</time></trkpt><trkpt lat="45.7570267" lon="8.9442683"><ele>414.0</ele><time>2026-04-21T13:51:44.283Z</time></trkpt><trkpt lat="45.7570083" lon="8.9441217"><ele>414.0</ele><time>2026-04-21T13:51:46.283Z</time></trkpt><trkpt lat="45.7569917" lon="8.9439667"><ele>414.0</ele><time>2026-04-21T13:51:48.283Z</time></trkpt><trkpt lat="45.7569767" lon="8.9438183"><ele>414.0</ele><time>2026-04-21T13:51:50.283Z</time></trkpt><trkpt lat="45.7569433" lon="8.9436917"><ele>413.4</ele><time>2026-04-21T13:51:52.283Z</time></trkpt><trkpt lat="45.756905" lon="8.9435567"><ele>412.79999999999995</ele><time>2026-04-21T13:51:54.285Z</time></trkpt><trkpt lat="45.75685" lon="8.9434283"><ele>412.20000000000005</ele><time>2026-04-21T13:51:56.284Z</time></trkpt><trkpt lat="45.7568" lon="8.9433233"><ele>411.6</ele><time>2026-04-21T13:51:58.282Z</time></trkpt><trkpt lat="45.75675" lon="8.94321"><ele>411.0</ele><time>2026-04-21T13:52:00.281Z</time></trkpt><trkpt lat="45.7567" lon="8.943115"><ele>410.5</ele><time>2026-04-21T13:52:02.282Z</time></trkpt><trkpt lat="45.7566467" lon="8.9430317"><ele>410.0</ele><time>2026-04-21T13:52:04.283Z</time></trkpt><trkpt lat="45.75658" lon="8.9429483"><ele>409.5</ele><time>2026-04-21T13:52:06.283Z</time></trkpt><trkpt lat="45.75651" lon="8.9428683"><ele>409.0</ele><time>2026-04-21T13:52:08.282Z</time></trkpt><trkpt lat="45.756405" lon="8.942775"><ele>408.5</ele><time>2026-04-21T13:52:10.282Z</time></trkpt><trkpt lat="45.7563483" lon="8.9427333"><ele>408.0</ele><time>2026-04-21T13:52:11.282Z</time></trkpt><trkpt lat="45.7562517" lon="8.9426667"><ele>408.0</ele><time>2026-04-21T13:52:13.283Z</time></trkpt><trkpt lat="45.756195" lon="8.9425967"><ele>408.0</ele><time>2026-04-21T13:52:16.282Z</time></trkpt><trkpt lat="45.7561283" lon="8.9425383"><ele>408.0</ele><time>2026-04-21T13:52:18.283Z</time></trkpt><trkpt lat="45.7560333" lon="8.9424817"><ele>408.0</ele><time>2026-04-21T13:52:20.281Z</time></trkpt><trkpt lat="45.7559" lon="8.942465"><ele>408.0</ele><time>2026-04-21T13:52:22.282Z</time></trkpt><trkpt lat="45.7558233" lon="8.9424617"><ele>407.1666666666667</ele><time>2026-04-21T13:52:23.283Z</time></trkpt><trkpt lat="45.7557467" lon="8.942455"><ele>406.33333333333337</ele><time>2026-04-21T13:52:24.286Z</time></trkpt><trkpt lat="45.7556717" lon="8.9424567"><ele>405.5</ele><time>2026-04-21T13:52:25.282Z</time></trkpt><trkpt lat="45.7556083" lon="8.9424533"><ele>404.6666666666667</ele><time>2026-04-21T13:52:26.281Z</time></trkpt><trkpt lat="45.7555433" lon="8.94245"><ele>403.83333333333337</ele><time>2026-04-21T13:52:27.281Z</time></trkpt><trkpt lat="45.7554767" lon="8.942445"><ele>403.0</ele><time>2026-04-21T13:52:28.282Z</time></trkpt><trkpt lat="45.755365" lon="8.9424383"><ele>403.00000000000006</ele><time>2026-04-21T13:52:30.283Z</time></trkpt><trkpt lat="45.755255" lon="8.942435"><ele>403.0</ele><time>2026-04-21T13:52:32.283Z</time></trkpt><trkpt lat="45.7551867" lon="8.9424267"><ele>403.0</ele><time>2026-04-21T13:52:33.283Z</time></trkpt><trkpt lat="45.75512" lon="8.9424233"><ele>403.0</ele><time>2026-04-21T13:52:34.282Z</time></trkpt><trkpt lat="45.7550517" lon="8.9424183"><ele>403.00000000000006</ele><time>2026-04-21T13:52:35.283Z</time></trkpt><trkpt lat="45.7549817" lon="8.942415"><ele>403.0</ele><time>2026-04-21T13:52:36.283Z</time></trkpt><trkpt lat="45.7549133" lon="8.94241"><ele>402.83333333333337</ele><time>2026-04-21T13:52:37.283Z</time></trkpt><trkpt lat="45.754845" lon="8.9424017"><ele>402.6666666666667</ele><time>2026-04-21T13:52:38.282Z</time></trkpt><trkpt lat="45.7547767" lon="8.9423917"><ele>402.5</ele><time>2026-04-21T13:52:39.282Z</time></trkpt><trkpt lat="45.7547083" lon="8.9423833"><ele>402.33333333333337</ele><time>2026-04-21T13:52:40.281Z</time></trkpt><trkpt lat="45.754585" lon="8.942365"><ele>402.1666666666667</ele><time>2026-04-21T13:52:42.283Z</time></trkpt><trkpt lat="45.7544683" lon="8.9423317"><ele>402.0</ele><time>2026-04-21T13:52:44.283Z</time></trkpt><trkpt lat="45.7543633" lon="8.9422983"><ele>402.0</ele><time>2026-04-21T13:52:46.283Z</time></trkpt><trkpt lat="45.75426" lon="8.9422533"><ele>402.0</ele><time>2026-04-21T13:52:48.281Z</time></trkpt><trkpt lat="45.7541633" lon="8.9422067"><ele>402.0</ele><time>2026-04-21T13:52:50.286Z</time></trkpt><trkpt lat="45.7540667" lon="8.942175"><ele>402.0</ele><time>2026-04-21T13:52:52.283Z</time></trkpt><trkpt lat="45.7539767" lon="8.9421867"><ele>402.0</ele><time>2026-04-21T13:52:54.283Z</time></trkpt><trkpt lat="45.7538883" lon="8.94225"><ele>402.0</ele><time>2026-04-21T13:52:56.283Z</time></trkpt><trkpt lat="45.7537983" lon="8.94232"><ele>402.0</ele><time>2026-04-21T13:52:58.283Z</time></trkpt><trkpt lat="45.7537183" lon="8.9423683"><ele>402.0</ele><time>2026-04-21T13:53:00.283Z</time></trkpt><trkpt lat="45.7536417" lon="8.942415"><ele>402.0</ele><time>2026-04-21T13:53:02.283Z</time></trkpt><trkpt lat="45.753575" lon="8.9424983"><ele>402.0</ele><time>2026-04-21T13:53:04.282Z</time></trkpt><trkpt lat="45.7535017" lon="8.9425533"><ele>402.0</ele><time>2026-04-21T13:53:06.283Z</time></trkpt><trkpt lat="45.7534217" lon="8.942565"><ele>401.8333333333333</ele><time>2026-04-21T13:53:08.283Z</time></trkpt><trkpt lat="45.7533483" lon="8.94257"><ele>401.66666666666663</ele><time>2026-04-21T13:53:10.283Z</time></trkpt><trkpt lat="45.7532783" lon="8.9425517"><ele>401.5</ele><time>2026-04-21T13:53:12.283Z</time></trkpt><trkpt lat="45.753195" lon="8.9425183"><ele>401.3333333333333</ele><time>2026-04-21T13:53:14.283Z</time></trkpt><trkpt lat="45.75311" lon="8.9424567"><ele>401.16666666666663</ele><time>2026-04-21T13:53:16.282Z</time></trkpt><trkpt lat="45.75302" lon="8.9423883"><ele>401.0</ele><time>2026-04-21T13:53:18.283Z</time></trkpt><trkpt lat="45.7529183" lon="8.9423167"><ele>400.8</ele><time>2026-04-21T13:53:20.283Z</time></trkpt><trkpt lat="45.7528333" lon="8.9422467"><ele>400.6</ele><time>2026-04-21T13:53:22.282Z</time></trkpt><trkpt lat="45.752745" lon="8.9421833"><ele>400.4</ele><time>2026-04-21T13:53:24.282Z</time></trkpt><trkpt lat="45.75264" lon="8.9421383"><ele>400.2</ele><time>2026-04-21T13:53:26.282Z</time></trkpt><trkpt lat="45.7525633" lon="8.9421067"><ele>400.0</ele><time>2026-04-21T13:53:28.283Z</time></trkpt><trkpt lat="45.752495" lon="8.942085"><ele>399.8</ele><time>2026-04-21T13:53:30.283Z</time></trkpt><trkpt lat="45.7523883" lon="8.94214"><ele>399.6</ele><time>2026-04-21T13:53:32.283Z</time></trkpt><trkpt lat="45.7523283" lon="8.9421933"><ele>399.4</ele><time>2026-04-21T13:53:33.283Z</time></trkpt><trkpt lat="45.752235" lon="8.942255"><ele>399.2</ele><time>2026-04-21T13:53:35.282Z</time></trkpt><trkpt lat="45.7521483" lon="8.9422783"><ele>399.0</ele><time>2026-04-21T13:53:37.282Z</time></trkpt><trkpt lat="45.752065" lon="8.9422717"><ele>399.0</ele><time>2026-04-21T13:53:39.283Z</time></trkpt><trkpt lat="45.7519967" lon="8.9422833"><ele>399.0</ele><time>2026-04-21T13:53:41.284Z</time></trkpt><trkpt lat="45.7519233" lon="8.942235"><ele>399.0</ele><time>2026-04-21T13:53:44.284Z</time></trkpt><trkpt lat="45.7518433" lon="8.9422083"><ele>399.0</ele><time>2026-04-21T13:53:46.282Z</time></trkpt><trkpt lat="45.7517367" lon="8.9422417"><ele>399.0</ele><time>2026-04-21T13:53:49.282Z</time></trkpt><trkpt lat="45.7516683" lon="8.9422783"><ele>399.0</ele><time>2026-04-21T13:53:51.282Z</time></trkpt><trkpt lat="45.7516067" lon="8.9423217"><ele>399.14285714285717</ele><time>2026-04-21T13:53:54.285Z</time></trkpt><trkpt lat="45.7515517" lon="8.9423667"><ele>399.2857142857143</ele><time>2026-04-21T13:53:58.282Z</time></trkpt><trkpt lat="45.75149" lon="8.9424283"><ele>399.42857142857144</ele><time>2026-04-21T13:54:02.284Z</time></trkpt><trkpt lat="45.7514433" lon="8.94249"><ele>399.57142857142856</ele><time>2026-04-21T13:54:04.283Z</time></trkpt><trkpt lat="45.75139" lon="8.9425483"><ele>399.7142857142857</ele><time>2026-04-21T13:54:06.284Z</time></trkpt><trkpt lat="45.751325" lon="8.9426333"><ele>399.8571428571429</ele><time>2026-04-21T13:54:09.284Z</time></trkpt><trkpt lat="45.7512617" lon="8.9426933"><ele>400.0</ele><time>2026-04-21T13:54:12.283Z</time></trkpt><trkpt lat="45.751185" lon="8.9427467"><ele>400.00000000000006</ele><time>2026-04-21T13:54:15.282Z</time></trkpt><trkpt lat="45.7511133" lon="8.9428033"><ele>400.0</ele><time>2026-04-21T13:54:17.284Z</time></trkpt><trkpt lat="45.7510333" lon="8.9428717"><ele>400.0</ele><time>2026-04-21T13:54:19.282Z</time></trkpt><trkpt lat="45.75096" lon="8.9429067"><ele>400.0</ele><time>2026-04-21T13:54:21.282Z</time></trkpt><trkpt lat="45.7508967" lon="8.9429183"><ele>400.00000000000006</ele><time>2026-04-21T13:54:23.282Z</time></trkpt><trkpt lat="45.7508283" lon="8.94294"><ele>400.0</ele><time>2026-04-21T13:54:25.282Z</time></trkpt><trkpt lat="45.7507633" lon="8.9429733"><ele>399.50000000000006</ele><time>2026-04-21T13:54:27.282Z</time></trkpt><trkpt lat="45.7507" lon="8.94302"><ele>399.0</ele><time>2026-04-21T13:54:29.283Z</time></trkpt><trkpt lat="45.7506383" lon="8.9430767"><ele>398.5</ele><time>2026-04-21T13:54:31.283Z</time></trkpt><trkpt lat="45.750575" lon="8.943125"><ele>398.0</ele><time>2026-04-21T13:54:33.284Z</time></trkpt><trkpt lat="45.7505133" lon="8.9431783"><ele>397.50000000000006</ele><time>2026-04-21T13:54:35.284Z</time></trkpt><trkpt lat="45.75044" lon="8.9432317"><ele>397.0</ele><time>2026-04-21T13:54:37.284Z</time></trkpt><trkpt lat="45.7503667" lon="8.9432883"><ele>397.00000000000006</ele><time>2026-04-21T13:54:39.283Z</time></trkpt><trkpt lat="45.75029" lon="8.9433383"><ele>397.0</ele><time>2026-04-21T13:54:41.283Z</time></trkpt><trkpt lat="45.7502117" lon="8.94338"><ele>397.0</ele><time>2026-04-21T13:54:43.282Z</time></trkpt><trkpt lat="45.7501317" lon="8.943425"><ele>397.0</ele><time>2026-04-21T13:54:45.282Z</time></trkpt><trkpt lat="45.7500583" lon="8.943485"><ele>397.00000000000006</ele><time>2026-04-21T13:54:47.283Z</time></trkpt><trkpt lat="45.7499883" lon="8.943555"><ele>397.0</ele><time>2026-04-21T13:54:49.282Z</time></trkpt><trkpt lat="45.7499333" lon="8.9436067"><ele>396.33333333333337</ele><time>2026-04-21T13:54:51.283Z</time></trkpt><trkpt lat="45.7498817" lon="8.9436783"><ele>395.6666666666667</ele><time>2026-04-21T13:54:53.282Z</time></trkpt><trkpt lat="45.74982" lon="8.94374"><ele>395.0</ele><time>2026-04-21T13:54:55.284Z</time></trkpt><trkpt lat="45.7497533" lon="8.9437883"><ele>394.33333333333337</ele><time>2026-04-21T13:54:57.284Z</time></trkpt><trkpt lat="45.74968" lon="8.9438333"><ele>393.6666666666667</ele><time>2026-04-21T13:54:59.283Z</time></trkpt><trkpt lat="45.7496017" lon="8.9438767"><ele>393.0</ele><time>2026-04-21T13:55:01.283Z</time></trkpt><trkpt lat="45.74952" lon="8.9439333"><ele>393.0</ele><time>2026-04-21T13:55:03.282Z</time></trkpt><trkpt lat="45.7494367" lon="8.943995"><ele>393.0</ele><time>2026-04-21T13:55:05.283Z</time></trkpt><trkpt lat="45.7493533" lon="8.9440667"><ele>393.0</ele><time>2026-04-21T13:55:07.283Z</time></trkpt><trkpt lat="45.749265" lon="8.9441217"><ele>393.0</ele><time>2026-04-21T13:55:09.282Z</time></trkpt><trkpt lat="45.74918" lon="8.9441717"><ele>393.0</ele><time>2026-04-21T13:55:11.282Z</time></trkpt><trkpt lat="45.7490967" lon="8.9442317"><ele>392.59999999999997</ele><time>2026-04-21T13:55:13.282Z</time></trkpt><trkpt lat="45.749005" lon="8.944295"><ele>392.2</ele><time>2026-04-21T13:55:15.283Z</time></trkpt><trkpt lat="45.748915" lon="8.944375"><ele>391.8</ele><time>2026-04-21T13:55:17.281Z</time></trkpt><trkpt lat="45.7488217" lon="8.9444633"><ele>391.4</ele><time>2026-04-21T13:55:19.283Z</time></trkpt><trkpt lat="45.7487133" lon="8.9445367"><ele>391.0</ele><time>2026-04-21T13:55:21.282Z</time></trkpt><trkpt lat="45.7485967" lon="8.9445967"><ele>390.57142857142856</ele><time>2026-04-21T13:55:23.282Z</time></trkpt><trkpt lat="45.7485333" lon="8.9446317"><ele>390.1428571428571</ele><time>2026-04-21T13:55:24.281Z</time></trkpt><trkpt lat="45.74847" lon="8.9446683"><ele>389.71428571428567</ele><time>2026-04-21T13:55:25.282Z</time></trkpt><trkpt lat="45.7484067" lon="8.9447017"><ele>389.2857142857143</ele><time>2026-04-21T13:55:26.281Z</time></trkpt><trkpt lat="45.7483417" lon="8.9447333"><ele>388.8571428571429</ele><time>2026-04-21T13:55:27.281Z</time></trkpt><trkpt lat="45.74828" lon="8.94477"><ele>388.4285714285714</ele><time>2026-04-21T13:55:28.282Z</time></trkpt><trkpt lat="45.74822" lon="8.94481"><ele>388.0</ele><time>2026-04-21T13:55:29.282Z</time></trkpt><trkpt lat="45.7481583" lon="8.94485"><ele>388.00000000000006</ele><time>2026-04-21T13:55:30.281Z</time></trkpt><trkpt lat="45.7480967" lon="8.9448833"><ele>388.0</ele><time>2026-04-21T13:55:31.281Z</time></trkpt><trkpt lat="45.7480367" lon="8.9449217"><ele>388.0</ele><time>2026-04-21T13:55:32.283Z</time></trkpt><trkpt lat="45.74794" lon="8.944995"><ele>388.0</ele><time>2026-04-21T13:55:34.283Z</time></trkpt><trkpt lat="45.747865" lon="8.9450633"><ele>388.00000000000006</ele><time>2026-04-21T13:55:36.283Z</time></trkpt><trkpt lat="45.7478067" lon="8.9451217"><ele>388.0</ele><time>2026-04-21T13:55:38.282Z</time></trkpt><trkpt lat="45.7477567" lon="8.945185"><ele>388.00000000000006</ele><time>2026-04-21T13:55:40.282Z</time></trkpt><trkpt lat="45.7477083" lon="8.945245"><ele>388.0</ele><time>2026-04-21T13:55:42.281Z</time></trkpt><trkpt lat="45.747625" lon="8.94531"><ele>388.0</ele><time>2026-04-21T13:55:45.281Z</time></trkpt><trkpt lat="45.7475667" lon="8.945355"><ele>388.0</ele><time>2026-04-21T13:55:47.281Z</time></trkpt><trkpt lat="45.747505" lon="8.9454017"><ele>388.00000000000006</ele><time>2026-04-21T13:55:49.281Z</time></trkpt><trkpt lat="45.7474367" lon="8.9454517"><ele>388.0</ele><time>2026-04-21T13:55:51.281Z</time></trkpt><trkpt lat="45.7473633" lon="8.9454967"><ele>388.0</ele><time>2026-04-21T13:55:53.281Z</time></trkpt><trkpt lat="45.7472917" lon="8.94555"><ele>388.0</ele><time>2026-04-21T13:55:55.281Z</time></trkpt><trkpt lat="45.7472233" lon="8.9456083"><ele>388.0</ele><time>2026-04-21T13:55:57.281Z</time></trkpt><trkpt lat="45.747135" lon="8.94566"><ele>388.0</ele><time>2026-04-21T13:55:59.281Z</time></trkpt><trkpt lat="45.747045" lon="8.9457"><ele>388.0</ele><time>2026-04-21T13:56:01.281Z</time></trkpt><trkpt lat="45.7469333" lon="8.9457633"><ele>388.4</ele><time>2026-04-21T13:56:03.281Z</time></trkpt><trkpt lat="45.7468183" lon="8.9458317"><ele>388.79999999999995</ele><time>2026-04-21T13:56:05.282Z</time></trkpt><trkpt lat="45.74676" lon="8.9458817"><ele>389.2</ele><time>2026-04-21T13:56:06.281Z</time></trkpt><trkpt lat="45.74666" lon="8.94597"><ele>389.6</ele><time>2026-04-21T13:56:08.283Z</time></trkpt><trkpt lat="45.74656" lon="8.94601"><ele>390.0</ele><time>2026-04-21T13:56:10.283Z</time></trkpt><trkpt lat="45.7464717" lon="8.9460733"><ele>390.1666666666667</ele><time>2026-04-21T13:56:12.283Z</time></trkpt><trkpt lat="45.7463883" lon="8.94615"><ele>390.33333333333337</ele><time>2026-04-21T13:56:14.284Z</time></trkpt><trkpt lat="45.7463317" lon="8.9462133"><ele>390.5</ele><time>2026-04-21T13:56:16.284Z</time></trkpt><trkpt lat="45.7462717" lon="8.9462733"><ele>390.6666666666667</ele><time>2026-04-21T13:56:18.284Z</time></trkpt><trkpt lat="45.74621" lon="8.9463417"><ele>390.83333333333337</ele><time>2026-04-21T13:56:21.285Z</time></trkpt><trkpt lat="45.7461667" lon="8.9464117"><ele>391.0</ele><time>2026-04-21T13:56:23.283Z</time></trkpt><trkpt lat="45.7460967" lon="8.9464283"><ele>390.71428571428567</ele><time>2026-04-21T13:56:25.282Z</time></trkpt><trkpt lat="45.746035" lon="8.9464467"><ele>390.42857142857144</ele><time>2026-04-21T13:56:27.284Z</time></trkpt><trkpt lat="45.7459633" lon="8.94651"><ele>390.1428571428571</ele><time>2026-04-21T13:56:30.282Z</time></trkpt><trkpt lat="45.7459083" lon="8.9465567"><ele>389.85714285714283</ele><time>2026-04-21T13:56:32.283Z</time></trkpt><trkpt lat="45.7458483" lon="8.94659"><ele>389.57142857142856</ele><time>2026-04-21T13:56:34.284Z</time></trkpt><trkpt lat="45.7457783" lon="8.94665"><ele>389.2857142857143</ele><time>2026-04-21T13:56:36.283Z</time></trkpt><trkpt lat="45.7457017" lon="8.9466833"><ele>389.0</ele><time>2026-04-21T13:56:39.282Z</time></trkpt><trkpt lat="45.7456417" lon="8.9467767"><ele>389.0</ele><time>2026-04-21T13:56:49.282Z</time></trkpt><trkpt lat="45.7455483" lon="8.94681"><ele>389.0</ele><time>2026-04-21T13:56:52.282Z</time></trkpt><trkpt lat="45.7454717" lon="8.94683"><ele>389.0</ele><time>2026-04-21T13:56:54.284Z</time></trkpt><trkpt lat="45.745395" lon="8.9468933"><ele>389.0</ele><time>2026-04-21T13:56:56.283Z</time></trkpt><trkpt lat="45.7453067" lon="8.94697"><ele>389.0</ele><time>2026-04-21T13:56:58.283Z</time></trkpt><trkpt lat="45.7452217" lon="8.9470367"><ele>388.79999999999995</ele><time>2026-04-21T13:57:00.284Z</time></trkpt><trkpt lat="45.745135" lon="8.9471033"><ele>388.59999999999997</ele><time>2026-04-21T13:57:02.283Z</time></trkpt><trkpt lat="45.745045" lon="8.9471517"><ele>388.4</ele><time>2026-04-21T13:57:04.283Z</time></trkpt><trkpt lat="45.7449617" lon="8.94722"><ele>388.2</ele><time>2026-04-21T13:57:06.283Z</time></trkpt><trkpt lat="45.7448717" lon="8.947285"><ele>388.0</ele><time>2026-04-21T13:57:08.283Z</time></trkpt><trkpt lat="45.7447833" lon="8.947345"><ele>388.0</ele><time>2026-04-21T13:57:10.282Z</time></trkpt><trkpt lat="45.744695" lon="8.9474067"><ele>388.0</ele><time>2026-04-21T13:57:12.283Z</time></trkpt><trkpt lat="45.7446033" lon="8.9474583"><ele>388.0</ele><time>2026-04-21T13:57:14.284Z</time></trkpt><trkpt lat="45.7445217" lon="8.9475067"><ele>388.0</ele><time>2026-04-21T13:57:16.284Z</time></trkpt><trkpt lat="45.744445" lon="8.94756"><ele>388.0</ele><time>2026-04-21T13:57:18.282Z</time></trkpt><trkpt lat="45.744365" lon="8.94761"><ele>387.2</ele><time>2026-04-21T13:57:20.283Z</time></trkpt><trkpt lat="45.74428" lon="8.9476583"><ele>386.4</ele><time>2026-04-21T13:57:22.283Z</time></trkpt><trkpt lat="45.7441983" lon="8.9477183"><ele>385.59999999999997</ele><time>2026-04-21T13:57:24.284Z</time></trkpt><trkpt lat="45.7441267" lon="8.9477683"><ele>384.79999999999995</ele><time>2026-04-21T13:57:26.281Z</time></trkpt><trkpt lat="45.7440217" lon="8.94785"><ele>384.0</ele><time>2026-04-21T13:57:28.281Z</time></trkpt><trkpt lat="45.74393" lon="8.9478967"><ele>384.0</ele><time>2026-04-21T13:57:30.281Z</time></trkpt><trkpt lat="45.7438517" lon="8.94794"><ele>384.0</ele><time>2026-04-21T13:57:32.282Z</time></trkpt><trkpt lat="45.74379" lon="8.9479033"><ele>384.0</ele><time>2026-04-21T13:57:34.281Z</time></trkpt><trkpt lat="45.74372" lon="8.9478683"><ele>384.0</ele><time>2026-04-21T13:57:36.282Z</time></trkpt><trkpt lat="45.7436233" lon="8.9478417"><ele>384.0</ele><time>2026-04-21T13:57:38.283Z</time></trkpt><trkpt lat="45.7435333" lon="8.9478"><ele>384.0</ele><time>2026-04-21T13:57:40.281Z</time></trkpt><trkpt lat="45.7434183" lon="8.9477317"><ele>383.4</ele><time>2026-04-21T13:57:42.282Z</time></trkpt><trkpt lat="45.74333" lon="8.9476283"><ele>382.79999999999995</ele><time>2026-04-21T13:57:44.283Z</time></trkpt><trkpt lat="45.7432833" lon="8.9475583"><ele>382.20000000000005</ele><time>2026-04-21T13:57:45.281Z</time></trkpt><trkpt lat="45.7432333" lon="8.9474883"><ele>381.6</ele><time>2026-04-21T13:57:46.283Z</time></trkpt><trkpt lat="45.7431567" lon="8.947325"><ele>381.0</ele><time>2026-04-21T13:57:48.281Z</time></trkpt><trkpt lat="45.7430983" lon="8.94725"><ele>380.7142857142857</ele><time>2026-04-21T13:57:49.284Z</time></trkpt><trkpt lat="45.7430333" lon="8.947195"><ele>380.42857142857144</ele><time>2026-04-21T13:57:50.284Z</time></trkpt><trkpt lat="45.742965" lon="8.947155"><ele>380.14285714285717</ele><time>2026-04-21T13:57:51.282Z</time></trkpt><trkpt lat="45.7428967" lon="8.9471233"><ele>379.8571428571429</ele><time>2026-04-21T13:57:52.282Z</time></trkpt><trkpt lat="45.7428283" lon="8.9471083"><ele>379.57142857142856</ele><time>2026-04-21T13:57:53.283Z</time></trkpt><trkpt lat="45.7427617" lon="8.9470967"><ele>379.28571428571433</ele><time>2026-04-21T13:57:54.282Z</time></trkpt><trkpt lat="45.7426967" lon="8.9470867"><ele>379.0</ele><time>2026-04-21T13:57:55.285Z</time></trkpt><trkpt lat="45.7425733" lon="8.947075"><ele>378.75</ele><time>2026-04-21T13:57:57.285Z</time></trkpt><trkpt lat="45.7424467" lon="8.947065"><ele>378.5</ele><time>2026-04-21T13:57:59.28Z</time></trkpt><trkpt lat="45.7423267" lon="8.9470433"><ele>378.25</ele><time>2026-04-21T13:58:01.282Z</time></trkpt><trkpt lat="45.7421967" lon="8.94702"><ele>378.0</ele><time>2026-04-21T13:58:03.281Z</time></trkpt><trkpt lat="45.7420833" lon="8.94698"><ele>378.0</ele><time>2026-04-21T13:58:05.281Z</time></trkpt><trkpt lat="45.7420183" lon="8.9469633"><ele>378.0</ele><time>2026-04-21T13:58:06.283Z</time></trkpt><trkpt lat="45.7419517" lon="8.9469483"><ele>378.0</ele><time>2026-04-21T13:58:07.281Z</time></trkpt><trkpt lat="45.741885" lon="8.9469283"><ele>378.0</ele><time>2026-04-21T13:58:08.282Z</time></trkpt><trkpt lat="45.7418233" lon="8.9469067"><ele>378.0</ele><time>2026-04-21T13:58:09.281Z</time></trkpt><trkpt lat="45.7417133" lon="8.9468767"><ele>378.0</ele><time>2026-04-21T13:58:11.281Z</time></trkpt><trkpt lat="45.741595" lon="8.9468483"><ele>377.59999999999997</ele><time>2026-04-21T13:58:13.282Z</time></trkpt><trkpt lat="45.7415333" lon="8.9468283"><ele>377.2</ele><time>2026-04-21T13:58:14.284Z</time></trkpt><trkpt lat="45.7414183" lon="8.9467883"><ele>376.8</ele><time>2026-04-21T13:58:16.283Z</time></trkpt><trkpt lat="45.7413117" lon="8.9467667"><ele>376.4</ele><time>2026-04-21T13:58:18.282Z</time></trkpt><trkpt lat="45.7412117" lon="8.9467067"><ele>376.0</ele><time>2026-04-21T13:58:20.283Z</time></trkpt><trkpt lat="45.7410967" lon="8.9466933"><ele>376.20000000000005</ele><time>2026-04-21T13:58:22.282Z</time></trkpt><trkpt lat="45.7409817" lon="8.9466767"><ele>376.40000000000003</ele><time>2026-04-21T13:58:24.281Z</time></trkpt><trkpt lat="45.7408733" lon="8.9466383"><ele>376.6</ele><time>2026-04-21T13:58:26.283Z</time></trkpt><trkpt lat="45.74077" lon="8.9466017"><ele>376.8</ele><time>2026-04-21T13:58:28.28Z</time></trkpt><trkpt lat="45.7406683" lon="8.94655"><ele>377.0</ele><time>2026-04-21T13:58:30.282Z</time></trkpt><trkpt lat="45.7405733" lon="8.9464883"><ele>377.0</ele><time>2026-04-21T13:58:32.283Z</time></trkpt><trkpt lat="45.7405017" lon="8.9463833"><ele>377.0</ele><time>2026-04-21T13:58:34.282Z</time></trkpt><trkpt lat="45.740435" lon="8.9462767"><ele>377.0</ele><time>2026-04-21T13:58:36.282Z</time></trkpt><trkpt lat="45.740365" lon="8.946175"><ele>377.0</ele><time>2026-04-21T13:58:38.282Z</time></trkpt><trkpt lat="45.740305" lon="8.94607"><ele>377.0</ele><time>2026-04-21T13:58:40.283Z</time></trkpt><trkpt lat="45.7402433" lon="8.9459717"><ele>375.6</ele><time>2026-04-21T13:58:42.281Z</time></trkpt><trkpt lat="45.7401833" lon="8.9458683"><ele>374.20000000000005</ele><time>2026-04-21T13:58:44.281Z</time></trkpt><trkpt lat="45.74012" lon="8.9457717"><ele>372.8</ele><time>2026-04-21T13:58:46.282Z</time></trkpt><trkpt lat="45.740055" lon="8.94568"><ele>371.4</ele><time>2026-04-21T13:58:48.282Z</time></trkpt><trkpt lat="45.7399867" lon="8.9456017"><ele>370.0</ele><time>2026-04-21T13:58:50.282Z</time></trkpt><trkpt lat="45.739905" lon="8.94554"><ele>370.0</ele><time>2026-04-21T13:58:52.282Z</time></trkpt><trkpt lat="45.7398167" lon="8.94549"><ele>370.0</ele><time>2026-04-21T13:58:54.281Z</time></trkpt><trkpt lat="45.7397117" lon="8.9454667"><ele>370.0</ele><time>2026-04-21T13:58:56.283Z</time></trkpt><trkpt lat="45.7396017" lon="8.9454483"><ele>370.0</ele><time>2026-04-21T13:58:58.28Z</time></trkpt><trkpt lat="45.7394983" lon="8.9454183"><ele>370.0</ele><time>2026-04-21T13:59:00.28Z</time></trkpt><trkpt lat="45.7393933" lon="8.9453967"><ele>369.4</ele><time>2026-04-21T13:59:02.282Z</time></trkpt><trkpt lat="45.73931" lon="8.9453967"><ele>368.8</ele><time>2026-04-21T13:59:04.282Z</time></trkpt><trkpt lat="45.7392483" lon="8.94545"><ele>368.20000000000005</ele><time>2026-04-21T13:59:06.282Z</time></trkpt><trkpt lat="45.7392333" lon="8.94558"><ele>367.6</ele><time>2026-04-21T13:59:08.281Z</time></trkpt><trkpt lat="45.7392483" lon="8.945725"><ele>367.0</ele><time>2026-04-21T13:59:10.283Z</time></trkpt><trkpt lat="45.739265" lon="8.945875"><ele>367.0</ele><time>2026-04-21T13:59:12.281Z</time></trkpt><trkpt lat="45.7392717" lon="8.94603"><ele>367.0</ele><time>2026-04-21T13:59:14.281Z</time></trkpt><trkpt lat="45.7392833" lon="8.9461933"><ele>367.0</ele><time>2026-04-21T13:59:16.281Z</time></trkpt><trkpt lat="45.7392967" lon="8.9463583"><ele>367.0</ele><time>2026-04-21T13:59:18.282Z</time></trkpt><trkpt lat="45.739285" lon="8.9465167"><ele>367.0</ele><time>2026-04-21T13:59:20.282Z</time></trkpt><trkpt lat="45.7392267" lon="8.9466183"><ele>367.0</ele><time>2026-04-21T13:59:22.281Z</time></trkpt><trkpt lat="45.7391533" lon="8.9466667"><ele>367.0</ele><time>2026-04-21T13:59:24.282Z</time></trkpt><trkpt lat="45.73904" lon="8.9466867"><ele>367.0</ele><time>2026-04-21T13:59:26.282Z</time></trkpt><trkpt lat="45.7389733" lon="8.9466933"><ele>367.0</ele><time>2026-04-21T13:59:27.282Z</time></trkpt><trkpt lat="45.73891" lon="8.9467083"><ele>367.0</ele><time>2026-04-21T13:59:28.281Z</time></trkpt><trkpt lat="45.7388483" lon="8.9467283"><ele>367.0</ele><time>2026-04-21T13:59:29.282Z</time></trkpt><trkpt lat="45.7387317" lon="8.94676"><ele>367.0</ele><time>2026-04-21T13:59:31.281Z</time></trkpt><trkpt lat="45.73863" lon="8.9467983"><ele>367.0</ele><time>2026-04-21T13:59:33.281Z</time></trkpt><trkpt lat="45.7385633" lon="8.946775"><ele>367.0</ele><time>2026-04-21T13:59:35.284Z</time></trkpt><trkpt lat="45.7384917" lon="8.9468067"><ele>367.0</ele><time>2026-04-21T13:59:37.283Z</time></trkpt><trkpt lat="45.7384233" lon="8.946825"><ele>367.0</ele><time>2026-04-21T13:59:39.281Z</time></trkpt><trkpt lat="45.7383317" lon="8.946825"><ele>367.0</ele><time>2026-04-21T13:59:42.282Z</time></trkpt><trkpt lat="45.738265" lon="8.94682"><ele>367.0</ele><time>2026-04-21T13:59:44.282Z</time></trkpt><trkpt lat="45.7381767" lon="8.94684"><ele>367.0</ele><time>2026-04-21T13:59:46.282Z</time></trkpt><trkpt lat="45.738115" lon="8.9468683"><ele>367.0</ele><time>2026-04-21T13:59:47.282Z</time></trkpt><trkpt lat="45.73802" lon="8.9469033"><ele>367.0</ele><time>2026-04-21T13:59:49.282Z</time></trkpt><trkpt lat="45.737915" lon="8.9469367"><ele>367.0</ele><time>2026-04-21T13:59:51.281Z</time></trkpt><trkpt lat="45.7378083" lon="8.9469717"><ele>367.0</ele><time>2026-04-21T13:59:53.282Z</time></trkpt><trkpt lat="45.7377083" lon="8.9469917"><ele>367.0</ele><time>2026-04-21T13:59:55.281Z</time></trkpt><trkpt lat="45.7375967" lon="8.9470083"><ele>367.0</ele><time>2026-04-21T13:59:57.281Z</time></trkpt><trkpt lat="45.7374667" lon="8.9470233"><ele>367.0</ele><time>2026-04-21T13:59:59.282Z</time></trkpt><trkpt lat="45.7373417" lon="8.9470283"><ele>367.0</ele><time>2026-04-21T14:00:01.281Z</time></trkpt><trkpt lat="45.7372733" lon="8.94704"><ele>367.0</ele><time>2026-04-21T14:00:02.283Z</time></trkpt><trkpt lat="45.7371533" lon="8.947025"><ele>367.0</ele><time>2026-04-21T14:00:04.283Z</time></trkpt><trkpt lat="45.7370733" lon="8.9469967"><ele>367.0</ele><time>2026-04-21T14:00:06.283Z</time></trkpt><trkpt lat="45.736985" lon="8.9470017"><ele>367.0</ele><time>2026-04-21T14:00:08.283Z</time></trkpt><trkpt lat="45.7369017" lon="8.9470383"><ele>367.0</ele><time>2026-04-21T14:00:10.282Z</time></trkpt><trkpt lat="45.73681" lon="8.9470617"><ele>367.20000000000005</ele><time>2026-04-21T14:00:12.283Z</time></trkpt><trkpt lat="45.7367117" lon="8.9471017"><ele>367.4</ele><time>2026-04-21T14:00:14.283Z</time></trkpt><trkpt lat="45.7366017" lon="8.9471467"><ele>367.6</ele><time>2026-04-21T14:00:16.283Z</time></trkpt><trkpt lat="45.7365067" lon="8.9472067"><ele>367.79999999999995</ele><time>2026-04-21T14:00:18.282Z</time></trkpt><trkpt lat="45.73642" lon="8.9472617"><ele>368.0</ele><time>2026-04-21T14:00:20.282Z</time></trkpt><trkpt lat="45.7363317" lon="8.9473067"><ele>368.0</ele><time>2026-04-21T14:00:22.282Z</time></trkpt><trkpt lat="45.73625" lon="8.947375"><ele>368.0</ele><time>2026-04-21T14:00:24.282Z</time></trkpt><trkpt lat="45.7361567" lon="8.9474217"><ele>368.0</ele><time>2026-04-21T14:00:26.281Z</time></trkpt><trkpt lat="45.7360617" lon="8.9474717"><ele>368.0</ele><time>2026-04-21T14:00:28.28Z</time></trkpt><trkpt lat="45.7359667" lon="8.947515"><ele>368.0</ele><time>2026-04-21T14:00:30.283Z</time></trkpt><trkpt lat="45.7358667" lon="8.94755"><ele>368.25</ele><time>2026-04-21T14:00:32.283Z</time></trkpt><trkpt lat="45.735755" lon="8.9476117"><ele>368.5</ele><time>2026-04-21T14:00:34.281Z</time></trkpt><trkpt lat="45.7356467" lon="8.9476483"><ele>368.75</ele><time>2026-04-21T14:00:36.282Z</time></trkpt><trkpt lat="45.735535" lon="8.9476933"><ele>369.0</ele><time>2026-04-21T14:00:38.282Z</time></trkpt><trkpt lat="45.7354217" lon="8.947755"><ele>369.0</ele><time>2026-04-21T14:00:40.281Z</time></trkpt><trkpt lat="45.73532" lon="8.9477967"><ele>369.0</ele><time>2026-04-21T14:00:42.282Z</time></trkpt><trkpt lat="45.73522" lon="8.9478367"><ele>369.0</ele><time>2026-04-21T14:00:44.283Z</time></trkpt><trkpt lat="45.7351083" lon="8.9478967"><ele>369.0</ele><time>2026-04-21T14:00:46.282Z</time></trkpt><trkpt lat="45.734995" lon="8.9479433"><ele>369.0</ele><time>2026-04-21T14:00:48.282Z</time></trkpt><trkpt lat="45.734885" lon="8.947975"><ele>369.0</ele><time>2026-04-21T14:00:50.282Z</time></trkpt><trkpt lat="45.73478" lon="8.94803"><ele>369.0</ele><time>2026-04-21T14:00:52.282Z</time></trkpt><trkpt lat="45.73467" lon="8.94809"><ele>369.0</ele><time>2026-04-21T14:00:54.282Z</time></trkpt><trkpt lat="45.7345717" lon="8.9481133"><ele>369.0</ele><time>2026-04-21T14:00:56.282Z</time></trkpt><trkpt lat="45.7344683" lon="8.9481617"><ele>369.0</ele><time>2026-04-21T14:00:58.282Z</time></trkpt><trkpt lat="45.7343683" lon="8.9482233"><ele>369.0</ele><time>2026-04-21T14:01:00.283Z</time></trkpt><trkpt lat="45.7342683" lon="8.94829"><ele>369.0</ele><time>2026-04-21T14:01:02.284Z</time></trkpt><trkpt lat="45.7341617" lon="8.9483317"><ele>369.0</ele><time>2026-04-21T14:01:04.283Z</time></trkpt><trkpt lat="45.7340517" lon="8.94837"><ele>369.0</ele><time>2026-04-21T14:01:06.283Z</time></trkpt><trkpt lat="45.7339333" lon="8.9483967"><ele>369.0</ele><time>2026-04-21T14:01:08.282Z</time></trkpt><trkpt lat="45.7338283" lon="8.9483883"><ele>369.0</ele><time>2026-04-21T14:01:10.28Z</time></trkpt><trkpt lat="45.733765" lon="8.9484067"><ele>369.0</ele><time>2026-04-21T14:01:11.282Z</time></trkpt><trkpt lat="45.7336983" lon="8.9484333"><ele>369.0</ele><time>2026-04-21T14:01:12.281Z</time></trkpt><trkpt lat="45.7336267" lon="8.9484583"><ele>369.0</ele><time>2026-04-21T14:01:13.282Z</time></trkpt><trkpt lat="45.7335583" lon="8.9484817"><ele>369.0</ele><time>2026-04-21T14:01:14.281Z</time></trkpt><trkpt lat="45.73349" lon="8.9485117"><ele>368.0</ele><time>2026-04-21T14:01:15.281Z</time></trkpt><trkpt lat="45.7334167" lon="8.9485417"><ele>367.0</ele><time>2026-04-21T14:01:16.283Z</time></trkpt><trkpt lat="45.733355" lon="8.9485733"><ele>366.0</ele><time>2026-04-21T14:01:17.281Z</time></trkpt><trkpt lat="45.7332883" lon="8.948595"><ele>365.0</ele><time>2026-04-21T14:01:18.282Z</time></trkpt><trkpt lat="45.7332267" lon="8.94862"><ele>364.0</ele><time>2026-04-21T14:01:19.283Z</time></trkpt><trkpt lat="45.73312" lon="8.94864"><ele>363.0</ele><time>2026-04-21T14:01:21.283Z</time></trkpt><trkpt lat="45.73304" lon="8.94861"><ele>363.0</ele><time>2026-04-21T14:01:23.281Z</time></trkpt><trkpt lat="45.7329983" lon="8.9485217"><ele>363.0</ele><time>2026-04-21T14:01:25.281Z</time></trkpt><trkpt lat="45.7330067" lon="8.9483933"><ele>363.0</ele><time>2026-04-21T14:01:28.281Z</time></trkpt><trkpt lat="45.733" lon="8.9482917"><ele>363.0</ele><time>2026-04-21T14:01:31.282Z</time></trkpt><trkpt lat="45.7329633" lon="8.9481917"><ele>363.0</ele><time>2026-04-21T14:01:34.282Z</time></trkpt><trkpt lat="45.7329467" lon="8.94809"><ele>363.0</ele><time>2026-04-21T14:01:36.282Z</time></trkpt><trkpt lat="45.7329283" lon="8.947975"><ele>362.4</ele><time>2026-04-21T14:01:38.282Z</time></trkpt><trkpt lat="45.7329083" lon="8.9478383"><ele>361.79999999999995</ele><time>2026-04-21T14:01:40.283Z</time></trkpt><trkpt lat="45.7328917" lon="8.9476867"><ele>361.2</ele><time>2026-04-21T14:01:42.283Z</time></trkpt><trkpt lat="45.7328833" lon="8.9475083"><ele>360.6</ele><time>2026-04-21T14:01:44.283Z</time></trkpt><trkpt lat="45.7328783" lon="8.9474133"><ele>360.0</ele><time>2026-04-21T14:01:45.282Z</time></trkpt><trkpt lat="45.732875" lon="8.947235"><ele>359.2</ele><time>2026-04-21T14:01:47.282Z</time></trkpt><trkpt lat="45.7328567" lon="8.9470783"><ele>358.4</ele><time>2026-04-21T14:01:49.284Z</time></trkpt><trkpt lat="45.7328367" lon="8.9469217"><ele>357.6</ele><time>2026-04-21T14:01:51.282Z</time></trkpt><trkpt lat="45.7328133" lon="8.9467717"><ele>356.8</ele><time>2026-04-21T14:01:53.283Z</time></trkpt><trkpt lat="45.7327917" lon="8.9466433"><ele>356.0</ele><time>2026-04-21T14:01:55.283Z</time></trkpt><trkpt lat="45.7327733" lon="8.9465"><ele>356.0</ele><time>2026-04-21T14:01:57.28Z</time></trkpt><trkpt lat="45.7327567" lon="8.9463633"><ele>356.0</ele><time>2026-04-21T14:01:59.282Z</time></trkpt><trkpt lat="45.732735" lon="8.94624"><ele>356.0</ele><time>2026-04-21T14:02:01.281Z</time></trkpt><trkpt lat="45.7327033" lon="8.94612"><ele>356.0</ele><time>2026-04-21T14:02:03.282Z</time></trkpt><trkpt lat="45.7326683" lon="8.94599"><ele>356.0</ele><time>2026-04-21T14:02:05.282Z</time></trkpt><trkpt lat="45.7326333" lon="8.9458633"><ele>357.5</ele><time>2026-04-21T14:02:07.282Z</time></trkpt><trkpt lat="45.732615" lon="8.94575"><ele>359.0</ele><time>2026-04-21T14:02:09.283Z</time></trkpt><trkpt lat="45.732605" lon="8.9456517"><ele>360.5</ele><time>2026-04-21T14:02:11.283Z</time></trkpt><trkpt lat="45.73259" lon="8.9455417"><ele>362.0</ele><time>2026-04-21T14:02:13.282Z</time></trkpt><trkpt lat="45.7325783" lon="8.9454317"><ele>363.5</ele><time>2026-04-21T14:02:15.281Z</time></trkpt><trkpt lat="45.73259" lon="8.94531"><ele>365.0</ele><time>2026-04-21T14:02:17.281Z</time></trkpt><trkpt lat="45.732635" lon="8.9451833"><ele>365.0</ele><time>2026-04-21T14:02:19.282Z</time></trkpt><trkpt lat="45.7327" lon="8.945055"><ele>365.0</ele><time>2026-04-21T14:02:21.282Z</time></trkpt><trkpt lat="45.73278" lon="8.9449317"><ele>365.0</ele><time>2026-04-21T14:02:23.282Z</time></trkpt><trkpt lat="45.7328783" lon="8.9447983"><ele>365.0</ele><time>2026-04-21T14:02:25.283Z</time></trkpt><trkpt lat="45.73294" lon="8.94473"><ele>365.0</ele><time>2026-04-21T14:02:26.282Z</time></trkpt><trkpt lat="45.7330033" lon="8.9446583"><ele>364.6</ele><time>2026-04-21T14:02:27.282Z</time></trkpt><trkpt lat="45.7330733" lon="8.9445967"><ele>364.2</ele><time>2026-04-21T14:02:28.281Z</time></trkpt><trkpt lat="45.7331417" lon="8.9445233"><ele>363.79999999999995</ele><time>2026-04-21T14:02:29.281Z</time></trkpt><trkpt lat="45.73322" lon="8.9444583"><ele>363.4</ele><time>2026-04-21T14:02:30.282Z</time></trkpt><trkpt lat="45.733305" lon="8.9443867"><ele>363.0</ele><time>2026-04-21T14:02:31.283Z</time></trkpt><trkpt lat="45.7333833" lon="8.944305"><ele>363.0</ele><time>2026-04-21T14:02:32.283Z</time></trkpt><trkpt lat="45.73345" lon="8.9442217"><ele>363.0</ele><time>2026-04-21T14:02:33.281Z</time></trkpt><trkpt lat="45.73352" lon="8.9441483"><ele>363.0</ele><time>2026-04-21T14:02:34.283Z</time></trkpt><trkpt lat="45.73359" lon="8.9440883"><ele>363.0</ele><time>2026-04-21T14:02:35.284Z</time></trkpt><trkpt lat="45.7336417" lon="8.944035"><ele>363.0</ele><time>2026-04-21T14:02:36.282Z</time></trkpt><trkpt lat="45.7337317" lon="8.9439417"><ele>363.0</ele><time>2026-04-21T14:02:38.282Z</time></trkpt><trkpt lat="45.7337717" lon="8.94383"><ele>362.0</ele><time>2026-04-21T14:02:40.282Z</time></trkpt><trkpt lat="45.733775" lon="8.9436933"><ele>361.0</ele><time>2026-04-21T14:02:42.282Z</time></trkpt><trkpt lat="45.7337583" lon="8.9435517"><ele>360.0</ele><time>2026-04-21T14:02:44.282Z</time></trkpt><trkpt lat="45.7337383" lon="8.9434217"><ele>359.0</ele><time>2026-04-21T14:02:46.283Z</time></trkpt><trkpt lat="45.7337167" lon="8.9432967"><ele>358.0</ele><time>2026-04-21T14:02:48.281Z</time></trkpt><trkpt lat="45.733675" lon="8.9431833"><ele>358.0</ele><time>2026-04-21T14:02:50.282Z</time></trkpt><trkpt lat="45.7336417" lon="8.9430817"><ele>358.0</ele><time>2026-04-21T14:02:52.281Z</time></trkpt><trkpt lat="45.7335933" lon="8.9429933"><ele>358.0</ele><time>2026-04-21T14:02:54.281Z</time></trkpt><trkpt lat="45.73355" lon="8.942905"><ele>358.0</ele><time>2026-04-21T14:02:56.283Z</time></trkpt><trkpt lat="45.7335167" lon="8.9428183"><ele>358.0</ele><time>2026-04-21T14:02:58.282Z</time></trkpt><trkpt lat="45.7334883" lon="8.9427133"><ele>358.0</ele><time>2026-04-21T14:03:00.282Z</time></trkpt><trkpt lat="45.73345" lon="8.94262"><ele>358.0</ele><time>2026-04-21T14:03:02.282Z</time></trkpt><trkpt lat="45.7334" lon="8.9425367"><ele>358.0</ele><time>2026-04-21T14:03:04.281Z</time></trkpt><trkpt lat="45.7333517" lon="8.94244"><ele>358.0</ele><time>2026-04-21T14:03:06.281Z</time></trkpt><trkpt lat="45.733295" lon="8.9423483"><ele>358.0</ele><time>2026-04-21T14:03:08.284Z</time></trkpt><trkpt lat="45.7332333" lon="8.9422583"><ele>358.0</ele><time>2026-04-21T14:03:10.282Z</time></trkpt><trkpt lat="45.7331817" lon="8.9421817"><ele>358.0</ele><time>2026-04-21T14:03:12.282Z</time></trkpt><trkpt lat="45.73315" lon="8.942085"><ele>358.00000000000006</ele><time>2026-04-21T14:03:14.281Z</time></trkpt><trkpt lat="45.7331167" lon="8.9420083"><ele>358.0</ele><time>2026-04-21T14:03:16.282Z</time></trkpt><trkpt lat="45.7330733" lon="8.9419217"><ele>358.0</ele><time>2026-04-21T14:03:18.282Z</time></trkpt><trkpt lat="45.73304" lon="8.9418417"><ele>358.0</ele><time>2026-04-21T14:03:20.282Z</time></trkpt><trkpt lat="45.73301" lon="8.94175"><ele>358.0</ele><time>2026-04-21T14:03:22.282Z</time></trkpt><trkpt lat="45.7329733" lon="8.9416667"><ele>358.00000000000006</ele><time>2026-04-21T14:03:24.283Z</time></trkpt><trkpt lat="45.7329283" lon="8.9415733"><ele>358.0</ele><time>2026-04-21T14:03:26.282Z</time></trkpt><trkpt lat="45.7328883" lon="8.9414933"><ele>358.3333333333333</ele><time>2026-04-21T14:03:28.28Z</time></trkpt><trkpt lat="45.732835" lon="8.941405"><ele>358.66666666666663</ele><time>2026-04-21T14:03:30.282Z</time></trkpt><trkpt lat="45.7327933" lon="8.9413367"><ele>359.0</ele><time>2026-04-21T14:03:32.284Z</time></trkpt><trkpt lat="45.732745" lon="8.9412317"><ele>359.3333333333333</ele><time>2026-04-21T14:03:35.282Z</time></trkpt><trkpt lat="45.7326933" lon="8.941135"><ele>359.6666666666667</ele><time>2026-04-21T14:03:39.282Z</time></trkpt><trkpt lat="45.7326567" lon="8.9410583"><ele>360.0</ele><time>2026-04-21T14:03:41.283Z</time></trkpt><trkpt lat="45.7326033" lon="8.9409583"><ele>360.57142857142856</ele><time>2026-04-21T14:03:44.282Z</time></trkpt><trkpt lat="45.732565" lon="8.940865"><ele>361.14285714285717</ele><time>2026-04-21T14:03:47.282Z</time></trkpt><trkpt lat="45.732525" lon="8.9407933"><ele>361.7142857142857</ele><time>2026-04-21T14:03:49.282Z</time></trkpt><trkpt lat="45.732475" lon="8.9407017"><ele>362.2857142857143</ele><time>2026-04-21T14:03:52.283Z</time></trkpt><trkpt lat="45.7324317" lon="8.9406183"><ele>362.8571428571429</ele><time>2026-04-21T14:03:55.282Z</time></trkpt><trkpt lat="45.73238" lon="8.9405483"><ele>363.42857142857144</ele><time>2026-04-21T14:03:57.282Z</time></trkpt><trkpt lat="45.73234" lon="8.9404667"><ele>364.0</ele><time>2026-04-21T14:04:00.283Z</time></trkpt><trkpt lat="45.7322967" lon="8.940375"><ele>364.0</ele><time>2026-04-21T14:04:03.282Z</time></trkpt><trkpt lat="45.732255" lon="8.9402917"><ele>364.0</ele><time>2026-04-21T14:04:05.284Z</time></trkpt><trkpt lat="45.7322067" lon="8.94018"><ele>364.0</ele><time>2026-04-21T14:04:07.282Z</time></trkpt><trkpt lat="45.7321583" lon="8.9400817"><ele>364.0</ele><time>2026-04-21T14:04:09.282Z</time></trkpt><trkpt lat="45.7320883" lon="8.94"><ele>364.0</ele><time>2026-04-21T14:04:11.282Z</time></trkpt><trkpt lat="45.7320317" lon="8.9399067"><ele>364.0</ele><time>2026-04-21T14:04:13.282Z</time></trkpt><trkpt lat="45.7319817" lon="8.939805"><ele>363.5</ele><time>2026-04-21T14:04:15.281Z</time></trkpt><trkpt lat="45.7319383" lon="8.9397217"><ele>363.0</ele><time>2026-04-21T14:04:17.282Z</time></trkpt><trkpt lat="45.73189" lon="8.9396283"><ele>362.5</ele><time>2026-04-21T14:04:19.281Z</time></trkpt><trkpt lat="45.73185" lon="8.93954"><ele>362.0</ele><time>2026-04-21T14:04:21.282Z</time></trkpt><trkpt lat="45.7318033" lon="8.9394083"><ele>361.5</ele><time>2026-04-21T14:04:23.281Z</time></trkpt><trkpt lat="45.7317533" lon="8.9392817"><ele>361.0</ele><time>2026-04-21T14:04:25.282Z</time></trkpt><trkpt lat="45.7316967" lon="8.9391467"><ele>360.6</ele><time>2026-04-21T14:04:27.281Z</time></trkpt><trkpt lat="45.7316467" lon="8.9390133"><ele>360.20000000000005</ele><time>2026-04-21T14:04:29.281Z</time></trkpt><trkpt lat="45.7315967" lon="8.938855"><ele>359.79999999999995</ele><time>2026-04-21T14:04:31.283Z</time></trkpt><trkpt lat="45.7315333" lon="8.9387083"><ele>359.4</ele><time>2026-04-21T14:04:33.282Z</time></trkpt><trkpt lat="45.7314983" lon="8.93863"><ele>359.0</ele><time>2026-04-21T14:04:34.282Z</time></trkpt><trkpt lat="45.731465" lon="8.9385533"><ele>359.0</ele><time>2026-04-21T14:04:35.282Z</time></trkpt><trkpt lat="45.7314217" lon="8.9384717"><ele>359.0</ele><time>2026-04-21T14:04:36.281Z</time></trkpt><trkpt lat="45.731385" lon="8.938395"><ele>359.0</ele><time>2026-04-21T14:04:37.281Z</time></trkpt><trkpt lat="45.73135" lon="8.9383117"><ele>359.0</ele><time>2026-04-21T14:04:38.283Z</time></trkpt><trkpt lat="45.7313233" lon="8.9382283"><ele>359.0</ele><time>2026-04-21T14:04:39.282Z</time></trkpt><trkpt lat="45.731275" lon="8.9380767"><ele>359.0</ele><time>2026-04-21T14:04:41.282Z</time></trkpt><trkpt lat="45.7312267" lon="8.9379283"><ele>358.4</ele><time>2026-04-21T14:04:43.282Z</time></trkpt><trkpt lat="45.731185" lon="8.9377833"><ele>357.79999999999995</ele><time>2026-04-21T14:04:45.282Z</time></trkpt><trkpt lat="45.7311417" lon="8.9376733"><ele>357.20000000000005</ele><time>2026-04-21T14:04:47.282Z</time></trkpt><trkpt lat="45.7311017" lon="8.9375567"><ele>356.6</ele><time>2026-04-21T14:04:49.281Z</time></trkpt><trkpt lat="45.7310433" lon="8.9374217"><ele>356.0</ele><time>2026-04-21T14:04:51.282Z</time></trkpt><trkpt lat="45.7309733" lon="8.937305"><ele>356.0</ele><time>2026-04-21T14:04:53.283Z</time></trkpt><trkpt lat="45.730895" lon="8.9372067"><ele>356.0</ele><time>2026-04-21T14:04:55.284Z</time></trkpt><trkpt lat="45.73082" lon="8.9371067"><ele>356.0</ele><time>2026-04-21T14:04:57.281Z</time></trkpt><trkpt lat="45.73078" lon="8.93701"><ele>356.0</ele><time>2026-04-21T14:04:59.282Z</time></trkpt><trkpt lat="45.7307383" lon="8.9369117"><ele>356.0</ele><time>2026-04-21T14:05:01.283Z</time></trkpt><trkpt lat="45.7306833" lon="8.9367967"><ele>356.20000000000005</ele><time>2026-04-21T14:05:03.281Z</time></trkpt><trkpt lat="45.7306283" lon="8.9366783"><ele>356.40000000000003</ele><time>2026-04-21T14:05:05.28Z</time></trkpt><trkpt lat="45.7305717" lon="8.9365733"><ele>356.6</ele><time>2026-04-21T14:05:07.282Z</time></trkpt><trkpt lat="45.7305033" lon="8.9364483"><ele>356.8</ele><time>2026-04-21T14:05:09.282Z</time></trkpt><trkpt lat="45.7304467" lon="8.936335"><ele>357.0</ele><time>2026-04-21T14:05:11.282Z</time></trkpt><trkpt lat="45.73039" lon="8.936225"><ele>357.0</ele><time>2026-04-21T14:05:13.281Z</time></trkpt><trkpt lat="45.73033" lon="8.936115"><ele>357.0</ele><time>2026-04-21T14:05:15.282Z</time></trkpt><trkpt lat="45.73027" lon="8.936025"><ele>357.0</ele><time>2026-04-21T14:05:17.282Z</time></trkpt><trkpt lat="45.7302083" lon="8.9359333"><ele>357.0</ele><time>2026-04-21T14:05:19.282Z</time></trkpt><trkpt lat="45.7301533" lon="8.9358467"><ele>357.0</ele><time>2026-04-21T14:05:21.283Z</time></trkpt><trkpt lat="45.7300967" lon="8.9357633"><ele>357.0</ele><time>2026-04-21T14:05:23.282Z</time></trkpt><trkpt lat="45.730055" lon="8.9356683"><ele>357.8333333333333</ele><time>2026-04-21T14:05:25.281Z</time></trkpt><trkpt lat="45.7300117" lon="8.93557"><ele>358.6666666666667</ele><time>2026-04-21T14:05:27.282Z</time></trkpt><trkpt lat="45.7299733" lon="8.9354667"><ele>359.5</ele><time>2026-04-21T14:05:29.282Z</time></trkpt><trkpt lat="45.7299333" lon="8.935345"><ele>360.33333333333337</ele><time>2026-04-21T14:05:31.282Z</time></trkpt><trkpt lat="45.7298883" lon="8.9352167"><ele>361.1666666666667</ele><time>2026-04-21T14:05:33.281Z</time></trkpt><trkpt lat="45.7298633" lon="8.935095"><ele>362.0</ele><time>2026-04-21T14:05:35.283Z</time></trkpt><trkpt lat="45.7298433" lon="8.934965"><ele>362.40000000000003</ele><time>2026-04-21T14:05:37.284Z</time></trkpt><trkpt lat="45.7297917" lon="8.9348283"><ele>362.8</ele><time>2026-04-21T14:05:39.282Z</time></trkpt><trkpt lat="45.7297333" lon="8.9347017"><ele>363.2</ele><time>2026-04-21T14:05:41.285Z</time></trkpt><trkpt lat="45.729675" lon="8.9345783"><ele>363.6</ele><time>2026-04-21T14:05:43.282Z</time></trkpt><trkpt lat="45.7296117" lon="8.93446"><ele>364.0</ele><time>2026-04-21T14:05:45.283Z</time></trkpt><trkpt lat="45.7295733" lon="8.9343567"><ele>364.0</ele><time>2026-04-21T14:05:47.282Z</time></trkpt><trkpt lat="45.729525" lon="8.9342233"><ele>364.0</ele><time>2026-04-21T14:05:49.282Z</time></trkpt><trkpt lat="45.7294783" lon="8.9340917"><ele>364.0</ele><time>2026-04-21T14:05:51.282Z</time></trkpt><trkpt lat="45.7294333" lon="8.93396"><ele>364.0</ele><time>2026-04-21T14:05:53.282Z</time></trkpt><trkpt lat="45.7293917" lon="8.9338383"><ele>364.0</ele><time>2026-04-21T14:05:55.282Z</time></trkpt><trkpt lat="45.7293517" lon="8.93369"><ele>363.79999999999995</ele><time>2026-04-21T14:05:57.282Z</time></trkpt><trkpt lat="45.7292967" lon="8.9335583"><ele>363.59999999999997</ele><time>2026-04-21T14:05:59.283Z</time></trkpt><trkpt lat="45.7292433" lon="8.9334367"><ele>363.4</ele><time>2026-04-21T14:06:01.282Z</time></trkpt><trkpt lat="45.7291833" lon="8.933305"><ele>363.2</ele><time>2026-04-21T14:06:03.282Z</time></trkpt><trkpt lat="45.7291017" lon="8.9331817"><ele>363.0</ele><time>2026-04-21T14:06:05.282Z</time></trkpt><trkpt lat="45.7290317" lon="8.93307"><ele>363.0</ele><time>2026-04-21T14:06:07.283Z</time></trkpt><trkpt lat="45.72896" lon="8.9329517"><ele>363.0</ele><time>2026-04-21T14:06:09.283Z</time></trkpt><trkpt lat="45.7288733" lon="8.9328467"><ele>363.0</ele><time>2026-04-21T14:06:11.282Z</time></trkpt><trkpt lat="45.7287917" lon="8.9327433"><ele>363.0</ele><time>2026-04-21T14:06:13.282Z</time></trkpt><trkpt lat="45.7287117" lon="8.9326317"><ele>363.0</ele><time>2026-04-21T14:06:15.282Z</time></trkpt><trkpt lat="45.7286383" lon="8.93251"><ele>362.79999999999995</ele><time>2026-04-21T14:06:17.282Z</time></trkpt><trkpt lat="45.7285733" lon="8.9323983"><ele>362.6</ele><time>2026-04-21T14:06:19.283Z</time></trkpt><trkpt lat="45.728515" lon="8.9322917"><ele>362.4</ele><time>2026-04-21T14:06:21.282Z</time></trkpt><trkpt lat="45.7284417" lon="8.9322"><ele>362.20000000000005</ele><time>2026-04-21T14:06:23.282Z</time></trkpt><trkpt lat="45.7283867" lon="8.93211"><ele>362.0</ele><time>2026-04-21T14:06:25.282Z</time></trkpt><trkpt lat="45.7283267" lon="8.932015"><ele>362.0</ele><time>2026-04-21T14:06:27.281Z</time></trkpt><trkpt lat="45.7282683" lon="8.9319367"><ele>362.0</ele><time>2026-04-21T14:06:29.282Z</time></trkpt><trkpt lat="45.7282917" lon="8.931845"><ele>362.0</ele><time>2026-04-21T14:06:31.283Z</time></trkpt><trkpt lat="45.7283483" lon="8.9317767"><ele>362.0</ele><time>2026-04-21T14:06:34.282Z</time></trkpt><trkpt lat="45.72841" lon="8.9317567"><ele>362.0</ele><time>2026-04-21T14:06:36.282Z</time></trkpt><trkpt lat="45.728475" lon="8.9317117"><ele>362.0</ele><time>2026-04-21T14:06:38.282Z</time></trkpt><trkpt lat="45.7285467" lon="8.9316333"><ele>362.0</ele><time>2026-04-21T14:06:40.282Z</time></trkpt><trkpt lat="45.728595" lon="8.9315533"><ele>361.83333333333337</ele><time>2026-04-21T14:06:42.282Z</time></trkpt><trkpt lat="45.728655" lon="8.9314617"><ele>361.6666666666667</ele><time>2026-04-21T14:06:45.282Z</time></trkpt><trkpt lat="45.7286817" lon="8.93138"><ele>361.5</ele><time>2026-04-21T14:06:47.283Z</time></trkpt><trkpt lat="45.7287217" lon="8.93128"><ele>361.3333333333333</ele><time>2026-04-21T14:06:50.282Z</time></trkpt><trkpt lat="45.7287617" lon="8.931185"><ele>361.16666666666663</ele><time>2026-04-21T14:06:53.282Z</time></trkpt><trkpt lat="45.7288283" lon="8.9310933"><ele>361.0</ele><time>2026-04-21T14:06:56.282Z</time></trkpt><trkpt lat="45.7288783" lon="8.931035"><ele>361.0</ele><time>2026-04-21T14:06:58.282Z</time></trkpt><trkpt lat="45.728935" lon="8.9309767"><ele>361.0</ele><time>2026-04-21T14:07:00.282Z</time></trkpt><trkpt lat="45.729005" lon="8.9309367"><ele>361.0</ele><time>2026-04-21T14:07:02.282Z</time></trkpt><trkpt lat="45.7290667" lon="8.93091"><ele>361.0</ele><time>2026-04-21T14:07:04.282Z</time></trkpt><trkpt lat="45.7291517" lon="8.9308733"><ele>361.0</ele><time>2026-04-21T14:07:07.281Z</time></trkpt><trkpt lat="45.7292283" lon="8.93085"><ele>361.0</ele><time>2026-04-21T14:07:09.282Z</time></trkpt><trkpt lat="45.7292933" lon="8.9308067"><ele>361.0</ele><time>2026-04-21T14:07:11.283Z</time></trkpt><trkpt lat="45.7293867" lon="8.9307817"><ele>362.16666666666663</ele><time>2026-04-21T14:07:14.282Z</time></trkpt><trkpt lat="45.72948" lon="8.9307567"><ele>363.3333333333333</ele><time>2026-04-21T14:07:17.281Z</time></trkpt><trkpt lat="45.7295533" lon="8.9307267"><ele>364.5</ele><time>2026-04-21T14:07:19.282Z</time></trkpt><trkpt lat="45.72963" lon="8.9306983"><ele>365.6666666666667</ele><time>2026-04-21T14:07:21.283Z</time></trkpt><trkpt lat="45.729705" lon="8.93068"><ele>366.83333333333337</ele><time>2026-04-21T14:07:23.282Z</time></trkpt><trkpt lat="45.7297683" lon="8.930655"><ele>368.0</ele><time>2026-04-21T14:07:25.284Z</time></trkpt><trkpt lat="45.7298367" lon="8.9306383"><ele>368.0</ele><time>2026-04-21T14:07:27.282Z</time></trkpt><trkpt lat="45.729915" lon="8.9306083"><ele>368.0</ele><time>2026-04-21T14:07:29.282Z</time></trkpt><trkpt lat="45.7300033" lon="8.930585"><ele>368.0</ele><time>2026-04-21T14:07:31.282Z</time></trkpt><trkpt lat="45.7300767" lon="8.9305617"><ele>368.0</ele><time>2026-04-21T14:07:33.283Z</time></trkpt><trkpt lat="45.7301467" lon="8.93055"><ele>368.0</ele><time>2026-04-21T14:07:35.282Z</time></trkpt><trkpt lat="45.730235" lon="8.9305067"><ele>368.0</ele><time>2026-04-21T14:07:38.282Z</time></trkpt><trkpt lat="45.730305" lon="8.9304617"><ele>368.42857142857144</ele><time>2026-04-21T14:07:40.282Z</time></trkpt><trkpt lat="45.7303733" lon="8.9304283"><ele>368.85714285714283</ele><time>2026-04-21T14:07:42.283Z</time></trkpt><trkpt lat="45.7304367" lon="8.9304067"><ele>369.2857142857143</ele><time>2026-04-21T14:07:44.283Z</time></trkpt><trkpt lat="45.7305033" lon="8.9303767"><ele>369.7142857142857</ele><time>2026-04-21T14:07:46.281Z</time></trkpt><trkpt lat="45.7305617" lon="8.93034"><ele>370.1428571428571</ele><time>2026-04-21T14:07:48.282Z</time></trkpt><trkpt lat="45.730625" lon="8.9303183"><ele>370.57142857142856</ele><time>2026-04-21T14:07:51.28Z</time></trkpt><trkpt lat="45.7306933" lon="8.93027"><ele>371.0</ele><time>2026-04-21T14:07:54.282Z</time></trkpt><trkpt lat="45.7307617" lon="8.930215"><ele>371.0</ele><time>2026-04-21T14:07:58.28Z</time></trkpt><trkpt lat="45.7308333" lon="8.9301883"><ele>371.0</ele><time>2026-04-21T14:08:01.284Z</time></trkpt><trkpt lat="45.7309033" lon="8.9302117"><ele>371.0</ele><time>2026-04-21T14:08:04.28Z</time></trkpt><trkpt lat="45.730925" lon="8.9303067"><ele>371.0</ele><time>2026-04-21T14:08:08.281Z</time></trkpt><trkpt lat="45.7309417" lon="8.930405"><ele>371.0</ele><time>2026-04-21T14:08:11.28Z</time></trkpt><trkpt lat="45.73097" lon="8.9305167"><ele>371.0</ele><time>2026-04-21T14:08:14.281Z</time></trkpt><trkpt lat="45.7310033" lon="8.930625"><ele>371.0</ele><time>2026-04-21T14:08:17.282Z</time></trkpt><trkpt lat="45.7310383" lon="8.93074"><ele>371.0</ele><time>2026-04-21T14:08:20.282Z</time></trkpt><trkpt lat="45.7311033" lon="8.9308067"><ele>371.0</ele><time>2026-04-21T14:08:23.282Z</time></trkpt><trkpt lat="45.7311767" lon="8.93081"><ele>371.0</ele><time>2026-04-21T14:08:26.282Z</time></trkpt><trkpt lat="45.7312583" lon="8.9308283"><ele>371.0</ele><time>2026-04-21T14:08:30.282Z</time></trkpt><trkpt lat="45.7313283" lon="8.9308483"><ele>371.0</ele><time>2026-04-21T14:08:34.281Z</time></trkpt><trkpt lat="45.7314" lon="8.930855"><ele>371.85714285714283</ele><time>2026-04-21T14:08:38.283Z</time></trkpt><trkpt lat="45.7314633" lon="8.9308417"><ele>372.7142857142857</ele><time>2026-04-21T14:08:41.282Z</time></trkpt><trkpt lat="45.7315317" lon="8.9307983"><ele>373.57142857142856</ele><time>2026-04-21T14:08:44.285Z</time></trkpt><trkpt lat="45.73159" lon="8.9307317"><ele>374.42857142857144</ele><time>2026-04-21T14:08:47.282Z</time></trkpt><trkpt lat="45.7316167" lon="8.93064"><ele>375.2857142857143</ele><time>2026-04-21T14:08:50.284Z</time></trkpt><trkpt lat="45.73164" lon="8.9305367"><ele>376.1428571428571</ele><time>2026-04-21T14:08:54.283Z</time></trkpt><trkpt lat="45.7316517" lon="8.9304267"><ele>377.0</ele><time>2026-04-21T14:08:58.283Z</time></trkpt><trkpt lat="45.73166" lon="8.9303217"><ele>377.0</ele><time>2026-04-21T14:09:01.285Z</time></trkpt><trkpt lat="45.731665" lon="8.930215"><ele>377.0</ele><time>2026-04-21T14:09:04.282Z</time></trkpt><trkpt lat="45.731665" lon="8.9300583"><ele>377.0</ele><time>2026-04-21T14:09:19.282Z</time></trkpt><trkpt lat="45.7316733" lon="8.9299517"><ele>377.0</ele><time>2026-04-21T14:09:23.282Z</time></trkpt><trkpt lat="45.7316817" lon="8.92986"><ele>377.0</ele><time>2026-04-21T14:09:26.283Z</time></trkpt><trkpt lat="45.731695" lon="8.929765"><ele>377.0</ele><time>2026-04-21T14:09:29.283Z</time></trkpt><trkpt lat="45.7317067" lon="8.9296483"><ele>377.4285714285714</ele><time>2026-04-21T14:09:33.281Z</time></trkpt><trkpt lat="45.731715" lon="8.929545"><ele>377.85714285714283</ele><time>2026-04-21T14:09:37.282Z</time></trkpt><trkpt lat="45.7317317" lon="8.9294367"><ele>378.2857142857143</ele><time>2026-04-21T14:09:41.283Z</time></trkpt><trkpt lat="45.7317667" lon="8.92934"><ele>378.71428571428567</ele><time>2026-04-21T14:09:45.282Z</time></trkpt><trkpt lat="45.7317883" lon="8.92924"><ele>379.14285714285717</ele><time>2026-04-21T14:09:49.282Z</time></trkpt><trkpt lat="45.73179" lon="8.9291283"><ele>379.57142857142856</ele><time>2026-04-21T14:09:53.281Z</time></trkpt><trkpt lat="45.7317867" lon="8.929025"><ele>380.0</ele><time>2026-04-21T14:09:56.283Z</time></trkpt><trkpt lat="45.7317683" lon="8.9289283"><ele>380.14285714285717</ele><time>2026-04-21T14:09:59.282Z</time></trkpt><trkpt lat="45.73175" lon="8.9288367"><ele>380.28571428571433</ele><time>2026-04-21T14:10:02.281Z</time></trkpt><trkpt lat="45.7317433" lon="8.9287267"><ele>380.42857142857144</ele><time>2026-04-21T14:10:06.282Z</time></trkpt><trkpt lat="45.7317317" lon="8.9286333"><ele>380.57142857142856</ele><time>2026-04-21T14:10:10.282Z</time></trkpt><trkpt lat="45.7316883" lon="8.9285567"><ele>380.7142857142857</ele><time>2026-04-21T14:10:13.283Z</time></trkpt><trkpt lat="45.7316333" lon="8.9285017"><ele>380.85714285714283</ele><time>2026-04-21T14:10:17.282Z</time></trkpt><trkpt lat="45.731555" lon="8.9284583"><ele>381.0</ele><time>2026-04-21T14:10:21.282Z</time></trkpt><trkpt lat="45.73149" lon="8.9283867"><ele>380.6666666666667</ele><time>2026-04-21T14:10:25.282Z</time></trkpt><trkpt lat="45.7314433" lon="8.928285"><ele>380.3333333333333</ele><time>2026-04-21T14:11:16.281Z</time></trkpt><trkpt lat="45.7313817" lon="8.9282267"><ele>380.0</ele><time>2026-04-21T14:11:19.28Z</time></trkpt><trkpt lat="45.73132" lon="8.9281767"><ele>379.66666666666663</ele><time>2026-04-21T14:11:21.28Z</time></trkpt><trkpt lat="45.7312517" lon="8.9280783"><ele>379.3333333333333</ele><time>2026-04-21T14:11:23.28Z</time></trkpt><trkpt lat="45.73114" lon="8.9280267"><ele>379.0</ele><time>2026-04-21T14:11:25.28Z</time></trkpt><trkpt lat="45.73105" lon="8.927965"><ele>379.0</ele><time>2026-04-21T14:11:27.28Z</time></trkpt><trkpt lat="45.7309767" lon="8.92786"><ele>379.0</ele><time>2026-04-21T14:11:29.28Z</time></trkpt><trkpt lat="45.73089" lon="8.9277483"><ele>379.0</ele><time>2026-04-21T14:11:31.281Z</time></trkpt><trkpt lat="45.730815" lon="8.927625"><ele>379.0</ele><time>2026-04-21T14:11:33.28Z</time></trkpt><trkpt lat="45.7307367" lon="8.927505"><ele>379.0</ele><time>2026-04-21T14:11:35.28Z</time></trkpt><trkpt lat="45.7306933" lon="8.9273933"><ele>378.8333333333333</ele><time>2026-04-21T14:11:37.28Z</time></trkpt><trkpt lat="45.7306483" lon="8.9273033"><ele>378.66666666666663</ele><time>2026-04-21T14:11:39.28Z</time></trkpt><trkpt lat="45.7305783" lon="8.9272283"><ele>378.5</ele><time>2026-04-21T14:11:41.281Z</time></trkpt><trkpt lat="45.730515" lon="8.9271267"><ele>378.3333333333333</ele><time>2026-04-21T14:11:43.28Z</time></trkpt><trkpt lat="45.7304483" lon="8.9270283"><ele>378.1666666666667</ele><time>2026-04-21T14:11:45.28Z</time></trkpt><trkpt lat="45.730395" lon="8.9269583"><ele>378.0</ele><time>2026-04-21T14:11:47.281Z</time></trkpt><trkpt lat="45.7303183" lon="8.9269317"><ele>378.0</ele><time>2026-04-21T14:11:49.28Z</time></trkpt><trkpt lat="45.7302333" lon="8.9269183"><ele>378.0</ele><time>2026-04-21T14:11:51.28Z</time></trkpt><trkpt lat="45.730135" lon="8.9268933"><ele>378.0</ele><time>2026-04-21T14:11:54.28Z</time></trkpt><trkpt lat="45.7300583" lon="8.9268533"><ele>378.0</ele><time>2026-04-21T14:11:56.28Z</time></trkpt><trkpt lat="45.7299883" lon="8.9268083"><ele>378.0</ele><time>2026-04-21T14:11:58.28Z</time></trkpt><trkpt lat="45.72991" lon="8.9267767"><ele>378.0</ele><time>2026-04-21T14:12:00.281Z</time></trkpt><trkpt lat="45.7298283" lon="8.9267483"><ele>376.6666666666667</ele><time>2026-04-21T14:12:02.281Z</time></trkpt><trkpt lat="45.7297583" lon="8.926775"><ele>375.3333333333333</ele><time>2026-04-21T14:12:04.28Z</time></trkpt><trkpt lat="45.7296983" lon="8.9268433"><ele>374.0</ele><time>2026-04-21T14:12:06.28Z</time></trkpt><trkpt lat="45.72962" lon="8.9269333"><ele>372.66666666666663</ele><time>2026-04-21T14:12:08.282Z</time></trkpt><trkpt lat="45.7295533" lon="8.9270267"><ele>371.3333333333333</ele><time>2026-04-21T14:12:10.281Z</time></trkpt><trkpt lat="45.7295017" lon="8.9270933"><ele>370.0</ele><time>2026-04-21T14:12:12.28Z</time></trkpt><trkpt lat="45.7294417" lon="8.9271833"><ele>369.3333333333333</ele><time>2026-04-21T14:12:14.281Z</time></trkpt><trkpt lat="45.729375" lon="8.9272283"><ele>368.66666666666663</ele><time>2026-04-21T14:12:16.28Z</time></trkpt><trkpt lat="45.7293" lon="8.92727"><ele>368.0</ele><time>2026-04-21T14:12:18.281Z</time></trkpt><trkpt lat="45.72921" lon="8.9272633"><ele>367.3333333333333</ele><time>2026-04-21T14:12:20.28Z</time></trkpt><trkpt lat="45.7291283" lon="8.9272483"><ele>366.6666666666667</ele><time>2026-04-21T14:12:22.281Z</time></trkpt><trkpt lat="45.7290767" lon="8.927165"><ele>366.0</ele><time>2026-04-21T14:12:24.28Z</time></trkpt><trkpt lat="45.72901" lon="8.9270833"><ele>366.0</ele><time>2026-04-21T14:12:26.281Z</time></trkpt><trkpt lat="45.7289633" lon="8.9269717"><ele>366.0</ele><time>2026-04-21T14:12:28.28Z</time></trkpt><trkpt lat="45.7289017" lon="8.9268833"><ele>366.0</ele><time>2026-04-21T14:12:30.281Z</time></trkpt><trkpt lat="45.7288167" lon="8.92681"><ele>366.0</ele><time>2026-04-21T14:12:32.281Z</time></trkpt><trkpt lat="45.7287217" lon="8.92676"><ele>366.0</ele><time>2026-04-21T14:12:34.28Z</time></trkpt><trkpt lat="45.728625" lon="8.92668"><ele>365.4</ele><time>2026-04-21T14:12:36.28Z</time></trkpt><trkpt lat="45.728575" lon="8.926625"><ele>364.8</ele><time>2026-04-21T14:12:37.281Z</time></trkpt><trkpt lat="45.7285167" lon="8.9265017"><ele>364.2</ele><time>2026-04-21T14:12:39.28Z</time></trkpt><trkpt lat="45.7284833" lon="8.9263983"><ele>363.59999999999997</ele><time>2026-04-21T14:12:41.281Z</time></trkpt><trkpt lat="45.7283867" lon="8.92629"><ele>363.0</ele><time>2026-04-21T14:12:43.282Z</time></trkpt><trkpt lat="45.72832" lon="8.9261833"><ele>362.1666666666667</ele><time>2026-04-21T14:12:45.281Z</time></trkpt><trkpt lat="45.7282583" lon="8.9261183"><ele>361.3333333333333</ele><time>2026-04-21T14:12:46.281Z</time></trkpt><trkpt lat="45.7281917" lon="8.9260317"><ele>360.5</ele><time>2026-04-21T14:12:48.28Z</time></trkpt><trkpt lat="45.7281383" lon="8.9259633"><ele>359.66666666666663</ele><time>2026-04-21T14:12:50.281Z</time></trkpt><trkpt lat="45.72805" lon="8.92593"><ele>358.8333333333333</ele><time>2026-04-21T14:12:52.28Z</time></trkpt><trkpt lat="45.7279483" lon="8.92592"><ele>358.0</ele><time>2026-04-21T14:12:54.281Z</time></trkpt><trkpt lat="45.72788" lon="8.925855"><ele>356.66666666666663</ele><time>2026-04-21T14:12:56.282Z</time></trkpt><trkpt lat="45.7278267" lon="8.92578"><ele>355.3333333333333</ele><time>2026-04-21T14:12:59.281Z</time></trkpt><trkpt lat="45.7278683" lon="8.9256983"><ele>354.0</ele><time>2026-04-21T14:13:04.28Z</time></trkpt><trkpt lat="45.7279383" lon="8.9256933"><ele>352.6666666666667</ele><time>2026-04-21T14:13:06.281Z</time></trkpt><trkpt lat="45.7280217" lon="8.9257183"><ele>351.33333333333337</ele><time>2026-04-21T14:13:08.282Z</time></trkpt><trkpt lat="45.728105" lon="8.9257433"><ele>350.0</ele><time>2026-04-21T14:13:10.281Z</time></trkpt><trkpt lat="45.7282033" lon="8.9257567"><ele>350.0</ele><time>2026-04-21T14:13:12.28Z</time></trkpt><trkpt lat="45.7282983" lon="8.9257367"><ele>350.0</ele><time>2026-04-21T14:13:14.281Z</time></trkpt><trkpt lat="45.7283833" lon="8.925715"><ele>350.0</ele><time>2026-04-21T14:13:16.282Z</time></trkpt><trkpt lat="45.72846" lon="8.9256667"><ele>350.0</ele><time>2026-04-21T14:13:18.281Z</time></trkpt><trkpt lat="45.728555" lon="8.92562"><ele>350.0</ele><time>2026-04-21T14:13:20.281Z</time></trkpt><trkpt lat="45.72865" lon="8.9255283"><ele>351.2</ele><time>2026-04-21T14:13:22.282Z</time></trkpt><trkpt lat="45.7287017" lon="8.9254733"><ele>352.4</ele><time>2026-04-21T14:13:23.283Z</time></trkpt><trkpt lat="45.7287983" lon="8.925375"><ele>353.6</ele><time>2026-04-21T14:13:25.281Z</time></trkpt><trkpt lat="45.7288983" lon="8.9253017"><ele>354.8</ele><time>2026-04-21T14:13:27.281Z</time></trkpt><trkpt lat="45.7289833" lon="8.92525"><ele>356.0</ele><time>2026-04-21T14:13:29.281Z</time></trkpt><trkpt lat="45.7290767" lon="8.9251883"><ele>356.0</ele><time>2026-04-21T14:13:31.282Z</time></trkpt><trkpt lat="45.7291383" lon="8.925145"><ele>356.0</ele><time>2026-04-21T14:13:32.281Z</time></trkpt><trkpt lat="45.7291967" lon="8.9250983"><ele>356.0</ele><time>2026-04-21T14:13:33.281Z</time></trkpt><trkpt lat="45.7293017" lon="8.9250233"><ele>356.0</ele><time>2026-04-21T14:13:35.281Z</time></trkpt><trkpt lat="45.729405" lon="8.9249833"><ele>356.0</ele><time>2026-04-21T14:13:37.281Z</time></trkpt><trkpt lat="45.72951" lon="8.9249333"><ele>354.1666666666667</ele><time>2026-04-21T14:13:39.281Z</time></trkpt><trkpt lat="45.7295983" lon="8.9248817"><ele>352.33333333333337</ele><time>2026-04-21T14:13:41.281Z</time></trkpt><trkpt lat="45.7296583" lon="8.9248283"><ele>350.5</ele><time>2026-04-21T14:13:43.281Z</time></trkpt><trkpt lat="45.729695" lon="8.9247083"><ele>348.6666666666667</ele><time>2026-04-21T14:13:46.283Z</time></trkpt><trkpt lat="45.7297283" lon="8.9246017"><ele>346.8333333333333</ele><time>2026-04-21T14:13:48.281Z</time></trkpt><trkpt lat="45.72974" lon="8.9245083"><ele>345.0</ele><time>2026-04-21T14:13:50.282Z</time></trkpt><trkpt lat="45.7297033" lon="8.9244117"><ele>345.0</ele><time>2026-04-21T14:13:53.281Z</time></trkpt><trkpt lat="45.7296667" lon="8.92433"><ele>345.0</ele><time>2026-04-21T14:13:55.28Z</time></trkpt><trkpt lat="45.729635" lon="8.9242317"><ele>345.0</ele><time>2026-04-21T14:13:57.282Z</time></trkpt><trkpt lat="45.7296083" lon="8.92413"><ele>345.0</ele><time>2026-04-21T14:13:59.281Z</time></trkpt><trkpt lat="45.7295733" lon="8.924"><ele>345.0</ele><time>2026-04-21T14:14:01.281Z</time></trkpt><trkpt lat="45.7295283" lon="8.923895"><ele>345.0</ele><time>2026-04-21T14:14:03.281Z</time></trkpt><trkpt lat="45.7294717" lon="8.9238183"><ele>343.3333333333333</ele><time>2026-04-21T14:14:05.282Z</time></trkpt><trkpt lat="45.7294017" lon="8.923805"><ele>341.6666666666667</ele><time>2026-04-21T14:14:08.281Z</time></trkpt><trkpt lat="45.7293267" lon="8.9238317"><ele>340.0</ele><time>2026-04-21T14:14:10.281Z</time></trkpt><trkpt lat="45.7292383" lon="8.9238183"><ele>338.33333333333337</ele><time>2026-04-21T14:14:13.281Z</time></trkpt><trkpt lat="45.7291733" lon="8.9237967"><ele>336.6666666666667</ele><time>2026-04-21T14:14:15.281Z</time></trkpt><trkpt lat="45.7290883" lon="8.92385"><ele>335.0</ele><time>2026-04-21T14:14:18.282Z</time></trkpt><trkpt lat="45.7290083" lon="8.9238867"><ele>334.6666666666667</ele><time>2026-04-21T14:14:21.282Z</time></trkpt><trkpt lat="45.7289033" lon="8.9239783"><ele>334.33333333333337</ele><time>2026-04-21T14:15:17.28Z</time></trkpt><trkpt lat="45.72883" lon="8.9240133"><ele>334.0</ele><time>2026-04-21T14:15:19.283Z</time></trkpt><trkpt lat="45.7287567" lon="8.9240367"><ele>333.6666666666667</ele><time>2026-04-21T14:15:21.28Z</time></trkpt><trkpt lat="45.728675" lon="8.92405"><ele>333.3333333333333</ele><time>2026-04-21T14:15:23.28Z</time></trkpt><trkpt lat="45.728605" lon="8.9240467"><ele>333.0</ele><time>2026-04-21T14:15:25.281Z</time></trkpt><trkpt lat="45.728535" lon="8.924035"><ele>333.0</ele><time>2026-04-21T14:15:27.28Z</time></trkpt><trkpt lat="45.7284783" lon="8.9239883"><ele>333.0</ele><time>2026-04-21T14:15:29.28Z</time></trkpt><trkpt lat="45.728395" lon="8.9239517"><ele>333.0</ele><time>2026-04-21T14:15:32.281Z</time></trkpt><trkpt lat="45.7283067" lon="8.92392"><ele>333.0</ele><time>2026-04-21T14:15:35.281Z</time></trkpt><trkpt lat="45.7282217" lon="8.9238767"><ele>333.0</ele><time>2026-04-21T14:15:38.282Z</time></trkpt><trkpt lat="45.72815" lon="8.9238567"><ele>333.0</ele><time>2026-04-21T14:15:41.28Z</time></trkpt><trkpt lat="45.7280733" lon="8.9238883"><ele>333.0</ele><time>2026-04-21T14:15:44.282Z</time></trkpt><trkpt lat="45.7280033" lon="8.9238767"><ele>333.0</ele><time>2026-04-21T14:15:47.28Z</time></trkpt><trkpt lat="45.7279333" lon="8.9238433"><ele>333.0</ele><time>2026-04-21T14:15:50.281Z</time></trkpt><trkpt lat="45.727865" lon="8.92381"><ele>333.0</ele><time>2026-04-21T14:15:53.28Z</time></trkpt><trkpt lat="45.727785" lon="8.9237883"><ele>333.0</ele><time>2026-04-21T14:15:56.282Z</time></trkpt><trkpt lat="45.72769" lon="8.9237633"><ele>333.0</ele><time>2026-04-21T14:15:59.281Z</time></trkpt><trkpt lat="45.7276217" lon="8.9237367"><ele>333.0</ele><time>2026-04-21T14:16:01.281Z</time></trkpt><trkpt lat="45.7275567" lon="8.923735"><ele>333.0</ele><time>2026-04-21T14:16:03.28Z</time></trkpt><trkpt lat="45.72749" lon="8.9237"><ele>333.0</ele><time>2026-04-21T14:16:05.281Z</time></trkpt><trkpt lat="45.7274283" lon="8.9236533"><ele>333.0</ele><time>2026-04-21T14:16:07.281Z</time></trkpt><trkpt lat="45.727365" lon="8.9235917"><ele>333.0</ele><time>2026-04-21T14:16:09.281Z</time></trkpt><trkpt lat="45.727305" lon="8.9235167"><ele>333.0</ele><time>2026-04-21T14:16:11.28Z</time></trkpt><trkpt lat="45.72726" lon="8.9234467"><ele>333.0</ele><time>2026-04-21T14:16:13.282Z</time></trkpt><trkpt lat="45.72721" lon="8.923385"><ele>333.0</ele><time>2026-04-21T14:16:15.28Z</time></trkpt><trkpt lat="45.7271483" lon="8.9232967"><ele>333.0</ele><time>2026-04-21T14:16:18.282Z</time></trkpt><trkpt lat="45.7271017" lon="8.9232317"><ele>333.0</ele><time>2026-04-21T14:16:20.281Z</time></trkpt><trkpt lat="45.72702" lon="8.9231817"><ele>333.0</ele><time>2026-04-21T14:16:23.282Z</time></trkpt><trkpt lat="45.7269633" lon="8.92314"><ele>333.0</ele><time>2026-04-21T14:16:25.281Z</time></trkpt><trkpt lat="45.7269083" lon="8.9230833"><ele>333.0</ele><time>2026-04-21T14:16:27.282Z</time></trkpt><trkpt lat="45.726855" lon="8.92301"><ele>333.0</ele><time>2026-04-21T14:16:29.281Z</time></trkpt><trkpt lat="45.7268017" lon="8.9229533"><ele>332.5714285714286</ele><time>2026-04-21T14:16:31.281Z</time></trkpt><trkpt lat="45.72674" lon="8.9228917"><ele>332.1428571428571</ele><time>2026-04-21T14:16:33.282Z</time></trkpt><trkpt lat="45.7266767" lon="8.922845"><ele>331.7142857142857</ele><time>2026-04-21T14:16:35.282Z</time></trkpt><trkpt lat="45.7266217" lon="8.9227983"><ele>331.28571428571433</ele><time>2026-04-21T14:16:37.283Z</time></trkpt><trkpt lat="45.7265667" lon="8.92275"><ele>330.8571428571429</ele><time>2026-04-21T14:16:39.282Z</time></trkpt><trkpt lat="45.7265067" lon="8.9227067"><ele>330.42857142857144</ele><time>2026-04-21T14:16:41.28Z</time></trkpt><trkpt lat="45.7264467" lon="8.922675"><ele>330.0</ele><time>2026-04-21T14:16:43.282Z</time></trkpt><trkpt lat="45.7263533" lon="8.922735"><ele>330.0</ele><time>2026-04-21T14:16:46.283Z</time></trkpt><trkpt lat="45.7262783" lon="8.92278"><ele>330.0</ele><time>2026-04-21T14:16:48.283Z</time></trkpt><trkpt lat="45.72619" lon="8.9227717"><ele>330.0</ele><time>2026-04-21T14:16:50.282Z</time></trkpt><trkpt lat="45.7261083" lon="8.9227683"><ele>330.0</ele><time>2026-04-21T14:16:52.283Z</time></trkpt><trkpt lat="45.7260333" lon="8.9227567"><ele>330.0</ele><time>2026-04-21T14:16:54.282Z</time></trkpt><trkpt lat="45.7259717" lon="8.9227367"><ele>330.0</ele><time>2026-04-21T14:16:56.285Z</time></trkpt><trkpt lat="45.725905" lon="8.9227517"><ele>329.8333333333333</ele><time>2026-04-21T14:16:58.281Z</time></trkpt><trkpt lat="45.7258417" lon="8.922765"><ele>329.6666666666667</ele><time>2026-04-21T14:17:00.282Z</time></trkpt><trkpt lat="45.7257633" lon="8.922735"><ele>329.5</ele><time>2026-04-21T14:17:03.281Z</time></trkpt><trkpt lat="45.7256967" lon="8.922675"><ele>329.33333333333337</ele><time>2026-04-21T14:17:06.281Z</time></trkpt><trkpt lat="45.7256083" lon="8.92261"><ele>329.1666666666667</ele><time>2026-04-21T14:17:09.282Z</time></trkpt><trkpt lat="45.7255367" lon="8.9225617"><ele>329.0</ele><time>2026-04-21T14:17:11.282Z</time></trkpt><trkpt lat="45.7254667" lon="8.9225217"><ele>329.6666666666667</ele><time>2026-04-21T14:17:13.283Z</time></trkpt><trkpt lat="45.725395" lon="8.9224933"><ele>330.33333333333337</ele><time>2026-04-21T14:17:15.282Z</time></trkpt><trkpt lat="45.7253283" lon="8.9224933"><ele>331.0</ele><time>2026-04-21T14:17:17.282Z</time></trkpt><trkpt lat="45.7252583" lon="8.9224883"><ele>331.6666666666667</ele><time>2026-04-21T14:17:19.282Z</time></trkpt><trkpt lat="45.7251817" lon="8.9225033"><ele>332.3333333333333</ele><time>2026-04-21T14:17:21.282Z</time></trkpt><trkpt lat="45.725095" lon="8.9225233"><ele>333.0</ele><time>2026-04-21T14:17:24.282Z</time></trkpt><trkpt lat="45.7250133" lon="8.9225267"><ele>333.2857142857143</ele><time>2026-04-21T14:17:27.282Z</time></trkpt><trkpt lat="45.72495" lon="8.922545"><ele>333.57142857142856</ele><time>2026-04-21T14:17:29.282Z</time></trkpt><trkpt lat="45.72489" lon="8.9224967"><ele>333.85714285714283</ele><time>2026-04-21T14:17:32.282Z</time></trkpt><trkpt lat="45.7248217" lon="8.9224717"><ele>334.1428571428571</ele><time>2026-04-21T14:17:35.281Z</time></trkpt><trkpt lat="45.7247583" lon="8.9224517"><ele>334.42857142857144</ele><time>2026-04-21T14:17:38.282Z</time></trkpt><trkpt lat="45.7246883" lon="8.922435"><ele>334.71428571428567</ele><time>2026-04-21T14:17:42.282Z</time></trkpt><trkpt lat="45.724615" lon="8.922425"><ele>335.0</ele><time>2026-04-21T14:17:46.281Z</time></trkpt><trkpt lat="45.7245333" lon="8.9223917"><ele>335.0</ele><time>2026-04-21T14:17:49.282Z</time></trkpt><trkpt lat="45.724485" lon="8.922325"><ele>335.0</ele><time>2026-04-21T14:17:52.282Z</time></trkpt><trkpt lat="45.72443" lon="8.922255"><ele>335.0</ele><time>2026-04-21T14:17:56.282Z</time></trkpt><trkpt lat="45.7243617" lon="8.92226"><ele>335.0</ele><time>2026-04-21T14:17:59.282Z</time></trkpt><trkpt lat="45.7242733" lon="8.9223083"><ele>335.0</ele><time>2026-04-21T14:18:02.282Z</time></trkpt><trkpt lat="45.7241917" lon="8.9223733"><ele>335.0</ele><time>2026-04-21T14:18:04.282Z</time></trkpt><trkpt lat="45.7241033" lon="8.9224383"><ele>335.2</ele><time>2026-04-21T14:18:06.282Z</time></trkpt><trkpt lat="45.7240083" lon="8.9225233"><ele>335.4</ele><time>2026-04-21T14:18:08.283Z</time></trkpt><trkpt lat="45.7239033" lon="8.9226383"><ele>335.6</ele><time>2026-04-21T14:18:10.282Z</time></trkpt><trkpt lat="45.7238483" lon="8.92269"><ele>335.8</ele><time>2026-04-21T14:18:11.283Z</time></trkpt><trkpt lat="45.7237867" lon="8.9227483"><ele>336.0</ele><time>2026-04-21T14:18:12.282Z</time></trkpt><trkpt lat="45.7237233" lon="8.9228067"><ele>334.1666666666667</ele><time>2026-04-21T14:18:13.282Z</time></trkpt><trkpt lat="45.7236317" lon="8.9228417"><ele>332.3333333333333</ele><time>2026-04-21T14:18:15.283Z</time></trkpt><trkpt lat="45.7235717" lon="8.92289"><ele>330.5</ele><time>2026-04-21T14:18:16.282Z</time></trkpt><trkpt lat="45.723455" lon="8.9229567"><ele>328.66666666666663</ele><time>2026-04-21T14:18:18.283Z</time></trkpt><trkpt lat="45.72339" lon="8.9229917"><ele>326.8333333333333</ele><time>2026-04-21T14:18:19.282Z</time></trkpt><trkpt lat="45.7233183" lon="8.923015"><ele>325.0</ele><time>2026-04-21T14:18:20.282Z</time></trkpt><trkpt lat="45.7232467" lon="8.9230383"><ele>324.85714285714283</ele><time>2026-04-21T14:18:21.283Z</time></trkpt><trkpt lat="45.7231767" lon="8.923055"><ele>324.7142857142857</ele><time>2026-04-21T14:18:22.282Z</time></trkpt><trkpt lat="45.7231117" lon="8.9230667"><ele>324.57142857142856</ele><time>2026-04-21T14:18:23.282Z</time></trkpt><trkpt lat="45.7230367" lon="8.9230717"><ele>324.42857142857144</ele><time>2026-04-21T14:18:24.283Z</time></trkpt><trkpt lat="45.7229683" lon="8.9230783"><ele>324.2857142857143</ele><time>2026-04-21T14:18:25.282Z</time></trkpt><trkpt lat="45.7228967" lon="8.9230883"><ele>324.14285714285717</ele><time>2026-04-21T14:18:26.284Z</time></trkpt><trkpt lat="45.722825" lon="8.9230983"><ele>324.0</ele><time>2026-04-21T14:18:27.282Z</time></trkpt><trkpt lat="45.7227533" lon="8.9231017"><ele>324.14285714285717</ele><time>2026-04-21T14:18:28.281Z</time></trkpt><trkpt lat="45.7226783" lon="8.9231017"><ele>324.2857142857143</ele><time>2026-04-21T14:18:29.284Z</time></trkpt><trkpt lat="45.7226067" lon="8.923105"><ele>324.42857142857144</ele><time>2026-04-21T14:18:30.282Z</time></trkpt><trkpt lat="45.7225367" lon="8.9231033"><ele>324.57142857142856</ele><time>2026-04-21T14:18:31.281Z</time></trkpt><trkpt lat="45.722465" lon="8.9230983"><ele>324.7142857142857</ele><time>2026-04-21T14:18:32.281Z</time></trkpt><trkpt lat="45.72239" lon="8.9231"><ele>324.85714285714283</ele><time>2026-04-21T14:18:33.281Z</time></trkpt><trkpt lat="45.72232" lon="8.9231017"><ele>325.0</ele><time>2026-04-21T14:18:34.282Z</time></trkpt><trkpt lat="45.7222483" lon="8.9231067"><ele>325.0</ele><time>2026-04-21T14:18:35.282Z</time></trkpt><trkpt lat="45.722185" lon="8.923105"><ele>325.0</ele><time>2026-04-21T14:18:36.281Z</time></trkpt><trkpt lat="45.722115" lon="8.9230883"><ele>325.0</ele><time>2026-04-21T14:18:37.282Z</time></trkpt><trkpt lat="45.72205" lon="8.923075"><ele>325.0</ele><time>2026-04-21T14:18:38.283Z</time></trkpt><trkpt lat="45.7219317" lon="8.923075"><ele>325.0</ele><time>2026-04-21T14:18:40.283Z</time></trkpt><trkpt lat="45.7218333" lon="8.923075"><ele>325.0</ele><time>2026-04-21T14:18:42.285Z</time></trkpt><trkpt lat="45.721755" lon="8.923075"><ele>325.0</ele><time>2026-04-21T14:18:44.282Z</time></trkpt><trkpt lat="45.72167" lon="8.92311"><ele>325.0</ele><time>2026-04-21T14:18:46.282Z</time></trkpt><trkpt lat="45.72158" lon="8.9231433"><ele>325.0</ele><time>2026-04-21T14:18:48.283Z</time></trkpt><trkpt lat="45.7215083" lon="8.92314"><ele>325.0</ele><time>2026-04-21T14:18:50.283Z</time></trkpt><trkpt lat="45.721435" lon="8.9231533"><ele>325.0</ele><time>2026-04-21T14:18:52.283Z</time></trkpt><trkpt lat="45.7213667" lon="8.9231933"><ele>325.0</ele><time>2026-04-21T14:18:54.379Z</time></trkpt><trkpt lat="45.721305" lon="8.9232383"><ele>325.0</ele><time>2026-04-21T14:18:56.284Z</time></trkpt><trkpt lat="45.721235" lon="8.9232983"><ele>325.0</ele><time>2026-04-21T14:18:59.283Z</time></trkpt><trkpt lat="45.7211567" lon="8.9233467"><ele>325.0</ele><time>2026-04-21T14:19:02.282Z</time></trkpt><trkpt lat="45.721075" lon="8.9234017"><ele>325.0</ele><time>2026-04-21T14:19:05.283Z</time></trkpt><trkpt lat="45.7209933" lon="8.9234367"><ele>325.0</ele><time>2026-04-21T14:19:08.283Z</time></trkpt><trkpt lat="45.7209133" lon="8.9234717"><ele>325.0</ele><time>2026-04-21T14:19:11.282Z</time></trkpt><trkpt lat="45.7208383" lon="8.92354"><ele>325.7142857142857</ele><time>2026-04-21T14:19:14.282Z</time></trkpt><trkpt lat="45.7207617" lon="8.9235833"><ele>326.42857142857144</ele><time>2026-04-21T14:19:17.282Z</time></trkpt><trkpt lat="45.7206983" lon="8.92363"><ele>327.14285714285717</ele><time>2026-04-21T14:19:20.283Z</time></trkpt><trkpt lat="45.72063" lon="8.92367"><ele>327.8571428571429</ele><time>2026-04-21T14:19:23.282Z</time></trkpt><trkpt lat="45.7205483" lon="8.9237167"><ele>328.57142857142856</ele><time>2026-04-21T14:19:27.283Z</time></trkpt><trkpt lat="45.72049" lon="8.9237533"><ele>329.28571428571433</ele><time>2026-04-21T14:19:30.284Z</time></trkpt><trkpt lat="45.72043" lon="8.9238"><ele>330.0</ele><time>2026-04-21T14:19:33.282Z</time></trkpt><trkpt lat="45.720365" lon="8.923845"><ele>330.0</ele><time>2026-04-21T14:19:36.282Z</time></trkpt><trkpt lat="45.7203083" lon="8.9239367"><ele>330.0</ele><time>2026-04-21T14:19:40.281Z</time></trkpt><trkpt lat="45.72028" lon="8.924035"><ele>330.0</ele><time>2026-04-21T14:19:43.281Z</time></trkpt><trkpt lat="45.72028" lon="8.9241467"><ele>330.0</ele><time>2026-04-21T14:19:47.282Z</time></trkpt><trkpt lat="45.7203067" lon="8.9242417"><ele>330.0</ele><time>2026-04-21T14:19:50.282Z</time></trkpt><trkpt lat="45.7203483" lon="8.9243433"><ele>330.0</ele><time>2026-04-21T14:19:54.282Z</time></trkpt><trkpt lat="45.7203883" lon="8.9244333"><ele>331.3333333333333</ele><time>2026-04-21T14:19:58.282Z</time></trkpt><trkpt lat="45.7204417" lon="8.924505"><ele>332.6666666666667</ele><time>2026-04-21T14:20:01.283Z</time></trkpt><trkpt lat="45.7204917" lon="8.924585"><ele>334.0</ele><time>2026-04-21T14:20:05.284Z</time></trkpt><trkpt lat="45.7205467" lon="8.9246467"><ele>335.33333333333337</ele><time>2026-04-21T14:20:09.282Z</time></trkpt><trkpt lat="45.7206067" lon="8.9247183"><ele>336.6666666666667</ele><time>2026-04-21T14:20:14.283Z</time></trkpt><trkpt lat="45.7206867" lon="8.924705"><ele>338.0</ele><time>2026-04-21T14:20:18.282Z</time></trkpt><trkpt lat="45.72077" lon="8.9246967"><ele>338.0</ele><time>2026-04-21T14:20:22.282Z</time></trkpt><trkpt lat="45.7208317" lon="8.9246767"><ele>338.0</ele><time>2026-04-21T14:20:25.282Z</time></trkpt><trkpt lat="45.7208967" lon="8.924665"><ele>338.0</ele><time>2026-04-21T14:20:28.283Z</time></trkpt><trkpt lat="45.7209617" lon="8.9246733"><ele>338.0</ele><time>2026-04-21T14:20:31.281Z</time></trkpt><trkpt lat="45.7210233" lon="8.924715"><ele>338.0</ele><time>2026-04-21T14:20:35.284Z</time></trkpt><trkpt lat="45.7210933" lon="8.9247217"><ele>338.0</ele><time>2026-04-21T14:20:39.283Z</time></trkpt><trkpt lat="45.7211567" lon="8.9247383"><ele>338.0</ele><time>2026-04-21T14:20:42.282Z</time></trkpt><trkpt lat="45.7212333" lon="8.9247733"><ele>338.57142857142856</ele><time>2026-04-21T14:20:46.283Z</time></trkpt><trkpt lat="45.7213067" lon="8.9247683"><ele>339.1428571428571</ele><time>2026-04-21T14:20:50.283Z</time></trkpt><trkpt lat="45.721375" lon="8.9247533"><ele>339.71428571428567</ele><time>2026-04-21T14:20:53.283Z</time></trkpt><trkpt lat="45.7214417" lon="8.9247567"><ele>340.2857142857143</ele><time>2026-04-21T14:20:56.283Z</time></trkpt><trkpt lat="45.721515" lon="8.924775"><ele>340.85714285714283</ele><time>2026-04-21T14:21:00.284Z</time></trkpt><trkpt lat="45.72159" lon="8.9247633"><ele>341.4285714285714</ele><time>2026-04-21T14:21:04.282Z</time></trkpt><trkpt lat="45.7216733" lon="8.9248"><ele>342.0</ele><time>2026-04-21T14:21:08.283Z</time></trkpt><trkpt lat="45.7217333" lon="8.924855"><ele>342.0</ele><time>2026-04-21T14:21:12.282Z</time></trkpt><trkpt lat="45.7218067" lon="8.9248817"><ele>342.0</ele><time>2026-04-21T14:21:15.281Z</time></trkpt><trkpt lat="45.7218917" lon="8.924915"><ele>342.0</ele><time>2026-04-21T14:21:18.284Z</time></trkpt><trkpt lat="45.72196" lon="8.92498"><ele>342.0</ele><time>2026-04-21T14:21:22.282Z</time></trkpt><trkpt lat="45.7220267" lon="8.9250267"><ele>342.0</ele><time>2026-04-21T14:21:25.282Z</time></trkpt><trkpt lat="45.7220633" lon="8.9251017"><ele>342.0</ele><time>2026-04-21T14:21:28.282Z</time></trkpt><trkpt lat="45.7221083" lon="8.9252033"><ele>342.8333333333333</ele><time>2026-04-21T14:21:32.282Z</time></trkpt><trkpt lat="45.7221367" lon="8.925315"><ele>343.6666666666667</ele><time>2026-04-21T14:21:36.284Z</time></trkpt><trkpt lat="45.72217" lon="8.9254217"><ele>344.5</ele><time>2026-04-21T14:21:40.283Z</time></trkpt><trkpt lat="45.7222167" lon="8.9255067"><ele>345.33333333333337</ele><time>2026-04-21T14:21:44.281Z</time></trkpt><trkpt lat="45.722275" lon="8.92559"><ele>346.1666666666667</ele><time>2026-04-21T14:21:48.281Z</time></trkpt><trkpt lat="45.7223333" lon="8.9256433"><ele>347.0</ele><time>2026-04-21T14:21:51.282Z</time></trkpt><trkpt lat="45.7223933" lon="8.9257083"><ele>347.0</ele><time>2026-04-21T14:21:54.282Z</time></trkpt><trkpt lat="45.7224367" lon="8.9257833"><ele>347.0</ele><time>2026-04-21T14:21:57.28Z</time></trkpt><trkpt lat="45.72246" lon="8.9258683"><ele>347.0</ele><time>2026-04-21T14:22:00.281Z</time></trkpt><trkpt lat="45.7225" lon="8.9259533"><ele>347.0</ele><time>2026-04-21T14:22:03.283Z</time></trkpt><trkpt lat="45.7225317" lon="8.9260333"><ele>347.0</ele><time>2026-04-21T14:22:06.28Z</time></trkpt><trkpt lat="45.7225717" lon="8.9261033"><ele>347.0</ele><time>2026-04-21T14:22:09.281Z</time></trkpt><trkpt lat="45.72262" lon="8.9261767"><ele>347.0</ele><time>2026-04-21T14:22:12.281Z</time></trkpt><trkpt lat="45.7226717" lon="8.926245"><ele>347.7142857142857</ele><time>2026-04-21T14:22:15.283Z</time></trkpt><trkpt lat="45.72272" lon="8.9263133"><ele>348.4285714285714</ele><time>2026-04-21T14:22:18.281Z</time></trkpt><trkpt lat="45.7227617" lon="8.9263867"><ele>349.1428571428571</ele><time>2026-04-21T14:22:21.281Z</time></trkpt><trkpt lat="45.722805" lon="8.9264867"><ele>349.8571428571429</ele><time>2026-04-21T14:22:25.282Z</time></trkpt><trkpt lat="45.7228433" lon="8.9265617"><ele>350.57142857142856</ele><time>2026-04-21T14:22:28.281Z</time></trkpt><trkpt lat="45.7228867" lon="8.92663"><ele>351.2857142857143</ele><time>2026-04-21T14:22:31.281Z</time></trkpt><trkpt lat="45.7229467" lon="8.926685"><ele>352.0</ele><time>2026-04-21T14:22:34.281Z</time></trkpt><trkpt lat="45.7230167" lon="8.9267283"><ele>352.0</ele><time>2026-04-21T14:22:37.282Z</time></trkpt><trkpt lat="45.723075" lon="8.926775"><ele>352.0</ele><time>2026-04-21T14:22:40.281Z</time></trkpt><trkpt lat="45.7231333" lon="8.92683"><ele>352.0</ele><time>2026-04-21T14:22:43.282Z</time></trkpt><trkpt lat="45.7231917" lon="8.926885"><ele>352.0</ele><time>2026-04-21T14:22:46.283Z</time></trkpt><trkpt lat="45.72325" lon="8.9269633"><ele>352.0</ele><time>2026-04-21T14:22:50.282Z</time></trkpt><trkpt lat="45.72329" lon="8.927035"><ele>352.0</ele><time>2026-04-21T14:22:53.281Z</time></trkpt><trkpt lat="45.723365" lon="8.9271183"><ele>352.0</ele><time>2026-04-21T14:22:56.282Z</time></trkpt><trkpt lat="45.72343" lon="8.9272067"><ele>352.0</ele><time>2026-04-21T14:22:59.282Z</time></trkpt><trkpt lat="45.72349" lon="8.92731"><ele>352.0</ele><time>2026-04-21T14:23:02.282Z</time></trkpt><trkpt lat="45.7235317" lon="8.9273833"><ele>352.0</ele><time>2026-04-21T14:23:04.283Z</time></trkpt><trkpt lat="45.7235733" lon="8.927455"><ele>352.0</ele><time>2026-04-21T14:23:06.282Z</time></trkpt><trkpt lat="45.7236217" lon="8.927525"><ele>352.0</ele><time>2026-04-21T14:23:08.283Z</time></trkpt><trkpt lat="45.7236767" lon="8.9276267"><ele>352.0</ele><time>2026-04-21T14:23:11.282Z</time></trkpt><trkpt lat="45.7237117" lon="8.9277117"><ele>352.5</ele><time>2026-04-21T14:23:13.283Z</time></trkpt><trkpt lat="45.7237483" lon="8.9277867"><ele>353.0</ele><time>2026-04-21T14:23:15.281Z</time></trkpt><trkpt lat="45.7237817" lon="8.9278667"><ele>353.5</ele><time>2026-04-21T14:23:17.282Z</time></trkpt><trkpt lat="45.7238067" lon="8.9280017"><ele>354.0</ele><time>2026-04-21T14:23:20.281Z</time></trkpt><trkpt lat="45.7238567" lon="8.9280917"><ele>354.5</ele><time>2026-04-21T14:23:22.281Z</time></trkpt><trkpt lat="45.7238933" lon="8.9281883"><ele>355.0</ele><time>2026-04-21T14:23:24.283Z</time></trkpt><trkpt lat="45.723925" lon="8.928285"><ele>355.0</ele><time>2026-04-21T14:23:26.282Z</time></trkpt><trkpt lat="45.7239617" lon="8.928375"><ele>355.0</ele><time>2026-04-21T14:23:28.282Z</time></trkpt><trkpt lat="45.72401" lon="8.928465"><ele>355.0</ele><time>2026-04-21T14:23:30.281Z</time></trkpt><trkpt lat="45.7240317" lon="8.92856"><ele>355.0</ele><time>2026-04-21T14:23:32.281Z</time></trkpt><trkpt lat="45.7240767" lon="8.9286433"><ele>355.0</ele><time>2026-04-21T14:23:34.28Z</time></trkpt><trkpt lat="45.7241167" lon="8.92874"><ele>355.0</ele><time>2026-04-21T14:23:36.28Z</time></trkpt><trkpt lat="45.7241467" lon="8.9288283"><ele>355.0</ele><time>2026-04-21T14:23:38.281Z</time></trkpt><trkpt lat="45.7241917" lon="8.9289067"><ele>355.0</ele><time>2026-04-21T14:23:40.28Z</time></trkpt><trkpt lat="45.724235" lon="8.9289833"><ele>355.0</ele><time>2026-04-21T14:23:42.28Z</time></trkpt><trkpt lat="45.7242767" lon="8.9290583"><ele>355.0</ele><time>2026-04-21T14:23:44.282Z</time></trkpt><trkpt lat="45.72432" lon="8.929135"><ele>355.0</ele><time>2026-04-21T14:23:46.28Z</time></trkpt><trkpt lat="45.7243567" lon="8.9292117"><ele>355.0</ele><time>2026-04-21T14:23:48.281Z</time></trkpt><trkpt lat="45.7244167" lon="8.9293283"><ele>355.0</ele><time>2026-04-21T14:23:51.282Z</time></trkpt><trkpt lat="45.7244733" lon="8.929405"><ele>355.0</ele><time>2026-04-21T14:23:53.28Z</time></trkpt><trkpt lat="45.7245167" lon="8.9295083"><ele>355.0</ele><time>2026-04-21T14:23:56.281Z</time></trkpt><trkpt lat="45.7245617" lon="8.9296067"><ele>355.0</ele><time>2026-04-21T14:23:59.282Z</time></trkpt><trkpt lat="45.7246033" lon="8.9297133"><ele>355.0</ele><time>2026-04-21T14:24:02.281Z</time></trkpt><trkpt lat="45.72465" lon="8.92978"><ele>355.0</ele><time>2026-04-21T14:24:04.282Z</time></trkpt><trkpt lat="45.724695" lon="8.9298467"><ele>355.0</ele><time>2026-04-21T14:24:06.282Z</time></trkpt><trkpt lat="45.724745" lon="8.9299033"><ele>355.0</ele><time>2026-04-21T14:24:08.282Z</time></trkpt><trkpt lat="45.7247883" lon="8.9300133"><ele>354.66666666666663</ele><time>2026-04-21T14:24:11.281Z</time></trkpt><trkpt lat="45.7248333" lon="8.9301067"><ele>354.3333333333333</ele><time>2026-04-21T14:24:15.281Z</time></trkpt><trkpt lat="45.7248817" lon="8.9302217"><ele>354.0</ele><time>2026-04-21T14:24:34.282Z</time></trkpt><trkpt lat="45.7249333" lon="8.93028"><ele>353.6666666666667</ele><time>2026-04-21T14:24:37.281Z</time></trkpt><trkpt lat="45.724995" lon="8.9303283"><ele>353.33333333333337</ele><time>2026-04-21T14:24:40.28Z</time></trkpt><trkpt lat="45.725055" lon="8.9303967"><ele>353.0</ele><time>2026-04-21T14:24:43.281Z</time></trkpt><trkpt lat="45.7251083" lon="8.9304733"><ele>353.0</ele><time>2026-04-21T14:24:46.281Z</time></trkpt><trkpt lat="45.72517" lon="8.9305367"><ele>353.0</ele><time>2026-04-21T14:24:49.281Z</time></trkpt><trkpt lat="45.72525" lon="8.9305967"><ele>353.0</ele><time>2026-04-21T14:24:52.281Z</time></trkpt><trkpt lat="45.7253033" lon="8.9306517"><ele>353.0</ele><time>2026-04-21T14:24:54.282Z</time></trkpt><trkpt lat="45.725365" lon="8.93072"><ele>353.0</ele><time>2026-04-21T14:24:56.282Z</time></trkpt><trkpt lat="45.725435" lon="8.9307817"><ele>353.0</ele><time>2026-04-21T14:24:58.281Z</time></trkpt><trkpt lat="45.7254983" lon="8.9308333"><ele>353.33333333333337</ele><time>2026-04-21T14:25:00.282Z</time></trkpt><trkpt lat="45.7255783" lon="8.93088"><ele>353.6666666666667</ele><time>2026-04-21T14:25:02.281Z</time></trkpt><trkpt lat="45.7256417" lon="8.9309283"><ele>354.0</ele><time>2026-04-21T14:25:04.28Z</time></trkpt><trkpt lat="45.7257183" lon="8.93096"><ele>354.3333333333333</ele><time>2026-04-21T14:25:07.282Z</time></trkpt><trkpt lat="45.7257983" lon="8.9309717"><ele>354.66666666666663</ele><time>2026-04-21T14:25:10.281Z</time></trkpt><trkpt lat="45.7258683" lon="8.930975"><ele>355.0</ele><time>2026-04-21T14:25:12.281Z</time></trkpt><trkpt lat="45.725935" lon="8.9309717"><ele>355.42857142857144</ele><time>2026-04-21T14:25:14.281Z</time></trkpt><trkpt lat="45.7260333" lon="8.9309667"><ele>355.8571428571429</ele><time>2026-04-21T14:25:17.281Z</time></trkpt><trkpt lat="45.7261083" lon="8.930955"><ele>356.28571428571433</ele><time>2026-04-21T14:25:19.282Z</time></trkpt><trkpt lat="45.7261833" lon="8.9309583"><ele>356.7142857142857</ele><time>2026-04-21T14:25:21.283Z</time></trkpt><trkpt lat="45.7262483" lon="8.9309617"><ele>357.14285714285717</ele><time>2026-04-21T14:25:23.282Z</time></trkpt><trkpt lat="45.7263117" lon="8.93096"><ele>357.5714285714286</ele><time>2026-04-21T14:25:25.283Z</time></trkpt><trkpt lat="45.72638" lon="8.930955"><ele>358.0</ele><time>2026-04-21T14:25:27.283Z</time></trkpt><trkpt lat="45.72645" lon="8.9309567"><ele>358.5</ele><time>2026-04-21T14:25:29.284Z</time></trkpt><trkpt lat="45.7265233" lon="8.93094"><ele>359.0</ele><time>2026-04-21T14:25:31.284Z</time></trkpt><trkpt lat="45.7265983" lon="8.9309283"><ele>359.5</ele><time>2026-04-21T14:25:33.283Z</time></trkpt><trkpt lat="45.72668" lon="8.930925"><ele>360.0</ele><time>2026-04-21T14:25:35.283Z</time></trkpt><trkpt lat="45.7267517" lon="8.93092"><ele>360.5</ele><time>2026-04-21T14:25:37.283Z</time></trkpt><trkpt lat="45.7268317" lon="8.9309233"><ele>361.0</ele><time>2026-04-21T14:25:39.283Z</time></trkpt><trkpt lat="45.72691" lon="8.9309267"><ele>361.3333333333333</ele><time>2026-04-21T14:25:41.282Z</time></trkpt><trkpt lat="45.726985" lon="8.9309383"><ele>361.66666666666663</ele><time>2026-04-21T14:25:43.282Z</time></trkpt><trkpt lat="45.72707" lon="8.9309233"><ele>362.0</ele><time>2026-04-21T14:25:46.283Z</time></trkpt><trkpt lat="45.7271367" lon="8.9309133"><ele>362.3333333333333</ele><time>2026-04-21T14:25:48.283Z</time></trkpt><trkpt lat="45.72722" lon="8.9309283"><ele>362.6666666666667</ele><time>2026-04-21T14:25:51.283Z</time></trkpt><trkpt lat="45.727305" lon="8.9309117"><ele>363.0</ele><time>2026-04-21T14:25:54.285Z</time></trkpt><trkpt lat="45.72737" lon="8.9309183"><ele>363.0</ele><time>2026-04-21T14:25:56.287Z</time></trkpt><trkpt lat="45.7274517" lon="8.9309533"><ele>363.0</ele><time>2026-04-21T14:25:59.284Z</time></trkpt><trkpt lat="45.7275367" lon="8.9310067"><ele>363.0</ele><time>2026-04-21T14:26:02.283Z</time></trkpt><trkpt lat="45.7275917" lon="8.9310717"><ele>363.0</ele><time>2026-04-21T14:26:04.281Z</time></trkpt><trkpt lat="45.7276433" lon="8.9311583"><ele>363.0</ele><time>2026-04-21T14:26:07.283Z</time></trkpt><trkpt lat="45.7277" lon="8.93126"><ele>363.0</ele><time>2026-04-21T14:26:10.282Z</time></trkpt><trkpt lat="45.72775" lon="8.931355"><ele>362.8333333333333</ele><time>2026-04-21T14:26:13.281Z</time></trkpt><trkpt lat="45.7278033" lon="8.9314433"><ele>362.6666666666667</ele><time>2026-04-21T14:26:16.281Z</time></trkpt><trkpt lat="45.7278617" lon="8.931505"><ele>362.5</ele><time>2026-04-21T14:26:18.281Z</time></trkpt><trkpt lat="45.7279117" lon="8.93158"><ele>362.33333333333337</ele><time>2026-04-21T14:26:20.281Z</time></trkpt><trkpt lat="45.7279717" lon="8.9316533"><ele>362.1666666666667</ele><time>2026-04-21T14:26:22.281Z</time></trkpt><trkpt lat="45.728045" lon="8.93174"><ele>362.0</ele><time>2026-04-21T14:26:24.281Z</time></trkpt><trkpt lat="45.7281167" lon="8.9318333"><ele>361.83333333333337</ele><time>2026-04-21T14:26:26.283Z</time></trkpt><trkpt lat="45.72818" lon="8.93193"><ele>361.6666666666667</ele><time>2026-04-21T14:26:28.281Z</time></trkpt><trkpt lat="45.728225" lon="8.932025"><ele>361.5</ele><time>2026-04-21T14:26:30.282Z</time></trkpt><trkpt lat="45.72828" lon="8.932105"><ele>361.3333333333333</ele><time>2026-04-21T14:26:32.283Z</time></trkpt><trkpt lat="45.728325" lon="8.9321833"><ele>361.16666666666663</ele><time>2026-04-21T14:26:34.281Z</time></trkpt><trkpt lat="45.72838" lon="8.9322333"><ele>361.0</ele><time>2026-04-21T14:26:36.282Z</time></trkpt><trkpt lat="45.7284283" lon="8.9322917"><ele>361.0</ele><time>2026-04-21T14:26:38.283Z</time></trkpt><trkpt lat="45.7284683" lon="8.932365"><ele>361.0</ele><time>2026-04-21T14:26:40.282Z</time></trkpt><trkpt lat="45.7285383" lon="8.9324633"><ele>361.0</ele><time>2026-04-21T14:26:43.281Z</time></trkpt><trkpt lat="45.7286" lon="8.9325367"><ele>361.0</ele><time>2026-04-21T14:26:45.282Z</time></trkpt><trkpt lat="45.728635" lon="8.9326267"><ele>361.0</ele><time>2026-04-21T14:26:47.282Z</time></trkpt><trkpt lat="45.7286833" lon="8.932715"><ele>361.0</ele><time>2026-04-21T14:26:49.283Z</time></trkpt><trkpt lat="45.7287233" lon="8.9327967"><ele>361.3333333333333</ele><time>2026-04-21T14:26:51.282Z</time></trkpt><trkpt lat="45.72879" lon="8.9328767"><ele>361.66666666666663</ele><time>2026-04-21T14:26:53.282Z</time></trkpt><trkpt lat="45.7288317" lon="8.93296"><ele>362.0</ele><time>2026-04-21T14:26:55.283Z</time></trkpt><trkpt lat="45.7288883" lon="8.9330683"><ele>362.3333333333333</ele><time>2026-04-21T14:26:58.282Z</time></trkpt><trkpt lat="45.72896" lon="8.9331367"><ele>362.6666666666667</ele><time>2026-04-21T14:27:00.281Z</time></trkpt><trkpt lat="45.7290433" lon="8.933215"><ele>363.0</ele><time>2026-04-21T14:27:02.282Z</time></trkpt><trkpt lat="45.7291333" lon="8.9333017"><ele>362.99999999999994</ele><time>2026-04-21T14:27:04.282Z</time></trkpt><trkpt lat="45.7291817" lon="8.9333817"><ele>363.0</ele><time>2026-04-21T14:27:06.282Z</time></trkpt><trkpt lat="45.7292317" lon="8.9335"><ele>363.0</ele><time>2026-04-21T14:27:09.282Z</time></trkpt><trkpt lat="45.7292567" lon="8.93359"><ele>363.0</ele><time>2026-04-21T14:27:11.282Z</time></trkpt><trkpt lat="45.7292917" lon="8.9336733"><ele>363.0</ele><time>2026-04-21T14:27:13.283Z</time></trkpt><trkpt lat="45.7293333" lon="8.9337417"><ele>362.99999999999994</ele><time>2026-04-21T14:27:15.283Z</time></trkpt><trkpt lat="45.7293733" lon="8.9338267"><ele>363.0</ele><time>2026-04-21T14:27:17.283Z</time></trkpt><trkpt lat="45.7294117" lon="8.9339067"><ele>363.1666666666667</ele><time>2026-04-21T14:27:19.283Z</time></trkpt><trkpt lat="45.72943" lon="8.933995"><ele>363.3333333333333</ele><time>2026-04-21T14:27:21.282Z</time></trkpt><trkpt lat="45.729465" lon="8.9341"><ele>363.5</ele><time>2026-04-21T14:27:23.283Z</time></trkpt><trkpt lat="45.7294833" lon="8.9342217"><ele>363.66666666666663</ele><time>2026-04-21T14:27:25.282Z</time></trkpt><trkpt lat="45.7295183" lon="8.93434"><ele>363.8333333333333</ele><time>2026-04-21T14:27:27.283Z</time></trkpt><trkpt lat="45.7295633" lon="8.9344383"><ele>364.0</ele><time>2026-04-21T14:27:29.282Z</time></trkpt><trkpt lat="45.7296133" lon="8.9345467"><ele>364.0</ele><time>2026-04-21T14:27:31.283Z</time></trkpt><trkpt lat="45.729655" lon="8.9346583"><ele>364.0</ele><time>2026-04-21T14:27:33.283Z</time></trkpt><trkpt lat="45.7296917" lon="8.934765"><ele>364.0</ele><time>2026-04-21T14:27:35.282Z</time></trkpt><trkpt lat="45.7297283" lon="8.9348667"><ele>364.0</ele><time>2026-04-21T14:27:37.282Z</time></trkpt><trkpt lat="45.7297583" lon="8.9349533"><ele>364.0</ele><time>2026-04-21T14:27:39.283Z</time></trkpt><trkpt lat="45.7297983" lon="8.9350317"><ele>364.0</ele><time>2026-04-21T14:27:41.282Z</time></trkpt><trkpt lat="45.7298333" lon="8.9351567"><ele>363.66666666666663</ele><time>2026-04-21T14:27:44.282Z</time></trkpt><trkpt lat="45.7298683" lon="8.935245"><ele>363.3333333333333</ele><time>2026-04-21T14:27:46.283Z</time></trkpt><trkpt lat="45.7299217" lon="8.935355"><ele>363.0</ele><time>2026-04-21T14:27:48.281Z</time></trkpt><trkpt lat="45.7299867" lon="8.935465"><ele>362.6666666666667</ele><time>2026-04-21T14:27:50.283Z</time></trkpt><trkpt lat="45.7300433" lon="8.93556"><ele>362.33333333333337</ele><time>2026-04-21T14:27:52.282Z</time></trkpt><trkpt lat="45.730105" lon="8.9356467"><ele>362.0</ele><time>2026-04-21T14:27:54.282Z</time></trkpt><trkpt lat="45.7301633" lon="8.935745"><ele>361.0</ele><time>2026-04-21T14:27:56.284Z</time></trkpt><trkpt lat="45.7302267" lon="8.935855"><ele>360.0</ele><time>2026-04-21T14:27:58.283Z</time></trkpt><trkpt lat="45.7302817" lon="8.9359717"><ele>359.0</ele><time>2026-04-21T14:28:00.283Z</time></trkpt><trkpt lat="45.730325" lon="8.9360933"><ele>358.0</ele><time>2026-04-21T14:28:02.282Z</time></trkpt><trkpt lat="45.7303667" lon="8.9362217"><ele>357.0</ele><time>2026-04-21T14:28:04.283Z</time></trkpt><trkpt lat="45.7304083" lon="8.93635"><ele>357.0</ele><time>2026-04-21T14:28:06.283Z</time></trkpt><trkpt lat="45.73045" lon="8.9364767"><ele>357.0</ele><time>2026-04-21T14:28:08.283Z</time></trkpt><trkpt lat="45.7305033" lon="8.9365967"><ele>357.0</ele><time>2026-04-21T14:28:10.283Z</time></trkpt><trkpt lat="45.730575" lon="8.93671"><ele>357.0</ele><time>2026-04-21T14:28:12.283Z</time></trkpt><trkpt lat="45.73062" lon="8.9368117"><ele>357.0</ele><time>2026-04-21T14:28:14.283Z</time></trkpt><trkpt lat="45.7306567" lon="8.9369083"><ele>356.8333333333333</ele><time>2026-04-21T14:28:16.283Z</time></trkpt><trkpt lat="45.7307133" lon="8.9369917"><ele>356.6666666666667</ele><time>2026-04-21T14:28:18.284Z</time></trkpt><trkpt lat="45.7307667" lon="8.9370767"><ele>356.5</ele><time>2026-04-21T14:28:20.283Z</time></trkpt><trkpt lat="45.7308067" lon="8.937175"><ele>356.33333333333337</ele><time>2026-04-21T14:28:22.282Z</time></trkpt><trkpt lat="45.7308567" lon="8.9372783"><ele>356.1666666666667</ele><time>2026-04-21T14:28:24.284Z</time></trkpt><trkpt lat="45.7309067" lon="8.937385"><ele>356.0</ele><time>2026-04-21T14:28:26.282Z</time></trkpt><trkpt lat="45.7309483" lon="8.937495"><ele>356.1666666666667</ele><time>2026-04-21T14:28:28.282Z</time></trkpt><trkpt lat="45.7309833" lon="8.937605"><ele>356.33333333333337</ele><time>2026-04-21T14:28:30.282Z</time></trkpt><trkpt lat="45.7310233" lon="8.937725"><ele>356.5</ele><time>2026-04-21T14:28:32.282Z</time></trkpt><trkpt lat="45.73106" lon="8.93784"><ele>356.6666666666667</ele><time>2026-04-21T14:28:34.282Z</time></trkpt><trkpt lat="45.7311" lon="8.9379533"><ele>356.8333333333333</ele><time>2026-04-21T14:28:36.283Z</time></trkpt><trkpt lat="45.731125" lon="8.9380667"><ele>357.0</ele><time>2026-04-21T14:28:38.283Z</time></trkpt><trkpt lat="45.731145" lon="8.9381783"><ele>357.3333333333333</ele><time>2026-04-21T14:28:40.282Z</time></trkpt><trkpt lat="45.731165" lon="8.9382933"><ele>357.6666666666667</ele><time>2026-04-21T14:28:42.282Z</time></trkpt><trkpt lat="45.731195" lon="8.9384067"><ele>358.0</ele><time>2026-04-21T14:28:44.283Z</time></trkpt><trkpt lat="45.7312317" lon="8.9385017"><ele>358.33333333333337</ele><time>2026-04-21T14:28:46.282Z</time></trkpt><trkpt lat="45.7312617" lon="8.9386033"><ele>358.6666666666667</ele><time>2026-04-21T14:28:48.283Z</time></trkpt><trkpt lat="45.7312967" lon="8.9387067"><ele>359.0</ele><time>2026-04-21T14:28:50.283Z</time></trkpt><trkpt lat="45.73134" lon="8.938805"><ele>359.0</ele><time>2026-04-21T14:28:52.283Z</time></trkpt><trkpt lat="45.7313767" lon="8.9388967"><ele>359.0</ele><time>2026-04-21T14:28:54.282Z</time></trkpt><trkpt lat="45.7314" lon="8.93899"><ele>359.0</ele><time>2026-04-21T14:28:56.282Z</time></trkpt><trkpt lat="45.7314533" lon="8.939075"><ele>359.0</ele><time>2026-04-21T14:28:58.283Z</time></trkpt><trkpt lat="45.7315217" lon="8.9391583"><ele>359.0</ele><time>2026-04-21T14:29:00.283Z</time></trkpt><trkpt lat="45.7315783" lon="8.939245"><ele>359.0</ele><time>2026-04-21T14:29:02.282Z</time></trkpt><trkpt lat="45.7316367" lon="8.93934"><ele>359.33333333333337</ele><time>2026-04-21T14:29:04.283Z</time></trkpt><trkpt lat="45.7316967" lon="8.9394217"><ele>359.6666666666667</ele><time>2026-04-21T14:29:06.283Z</time></trkpt><trkpt lat="45.731755" lon="8.939505"><ele>360.0</ele><time>2026-04-21T14:29:08.287Z</time></trkpt><trkpt lat="45.7318017" lon="8.93957"><ele>360.3333333333333</ele><time>2026-04-21T14:29:10.282Z</time></trkpt><trkpt lat="45.731865" lon="8.9396767"><ele>360.66666666666663</ele><time>2026-04-21T14:29:13.283Z</time></trkpt><trkpt lat="45.731915" lon="8.93979"><ele>361.0</ele><time>2026-04-21T14:29:15.284Z</time></trkpt><trkpt lat="45.731995" lon="8.93989"><ele>361.0</ele><time>2026-04-21T14:29:17.282Z</time></trkpt><trkpt lat="45.732065" lon="8.9399817"><ele>361.0</ele><time>2026-04-21T14:29:19.283Z</time></trkpt><trkpt lat="45.7321383" lon="8.940075"><ele>361.0</ele><time>2026-04-21T14:29:21.284Z</time></trkpt><trkpt lat="45.7322067" lon="8.9401633"><ele>361.0</ele><time>2026-04-21T14:29:23.284Z</time></trkpt><trkpt lat="45.73227" lon="8.940245"><ele>361.0</ele><time>2026-04-21T14:29:25.284Z</time></trkpt><trkpt lat="45.732325" lon="8.9403333"><ele>361.5</ele><time>2026-04-21T14:29:27.283Z</time></trkpt><trkpt lat="45.7323683" lon="8.94041"><ele>362.0</ele><time>2026-04-21T14:29:29.282Z</time></trkpt><trkpt lat="45.7323967" lon="8.9405017"><ele>362.5</ele><time>2026-04-21T14:29:31.281Z</time></trkpt><trkpt lat="45.7324317" lon="8.9406133"><ele>363.0</ele><time>2026-04-21T14:29:33.282Z</time></trkpt><trkpt lat="45.7324717" lon="8.94073"><ele>363.5</ele><time>2026-04-21T14:29:35.283Z</time></trkpt><trkpt lat="45.7325133" lon="8.9408433"><ele>364.0</ele><time>2026-04-21T14:29:37.283Z</time></trkpt><trkpt lat="45.7325633" lon="8.940955"><ele>364.14285714285717</ele><time>2026-04-21T14:29:39.283Z</time></trkpt><trkpt lat="45.7325883" lon="8.9410383"><ele>364.2857142857143</ele><time>2026-04-21T14:29:40.282Z</time></trkpt><trkpt lat="45.7326233" lon="8.941115"><ele>364.42857142857144</ele><time>2026-04-21T14:29:41.281Z</time></trkpt><trkpt lat="45.7326567" lon="8.941195"><ele>364.57142857142856</ele><time>2026-04-21T14:29:42.281Z</time></trkpt><trkpt lat="45.7326917" lon="8.94128"><ele>364.7142857142857</ele><time>2026-04-21T14:29:43.281Z</time></trkpt><trkpt lat="45.7327183" lon="8.9413683"><ele>364.8571428571429</ele><time>2026-04-21T14:29:44.282Z</time></trkpt><trkpt lat="45.7327467" lon="8.9414633"><ele>365.0</ele><time>2026-04-21T14:29:45.281Z</time></trkpt><trkpt lat="45.7327717" lon="8.9415517"><ele>364.28571428571433</ele><time>2026-04-21T14:29:46.281Z</time></trkpt><trkpt lat="45.73281" lon="8.9416433"><ele>363.57142857142856</ele><time>2026-04-21T14:29:47.283Z</time></trkpt><trkpt lat="45.7328483" lon="8.9417367"><ele>362.8571428571429</ele><time>2026-04-21T14:29:48.283Z</time></trkpt><trkpt lat="45.7328933" lon="8.941825"><ele>362.14285714285717</ele><time>2026-04-21T14:29:49.284Z</time></trkpt><trkpt lat="45.73292" lon="8.9419167"><ele>361.42857142857144</ele><time>2026-04-21T14:29:50.283Z</time></trkpt><trkpt lat="45.7329633" lon="8.9420017"><ele>360.7142857142857</ele><time>2026-04-21T14:29:51.282Z</time></trkpt><trkpt lat="45.7329967" lon="8.9420783"><ele>360.0</ele><time>2026-04-21T14:29:52.283Z</time></trkpt><trkpt lat="45.7330317" lon="8.942165"><ele>359.6666666666667</ele><time>2026-04-21T14:29:53.282Z</time></trkpt><trkpt lat="45.7330633" lon="8.9422483"><ele>359.3333333333333</ele><time>2026-04-21T14:29:54.283Z</time></trkpt><trkpt lat="45.73314" lon="8.9423967"><ele>359.0</ele><time>2026-04-21T14:29:56.282Z</time></trkpt><trkpt lat="45.73319" lon="8.9424683"><ele>358.66666666666663</ele><time>2026-04-21T14:29:57.282Z</time></trkpt><trkpt lat="45.7332383" lon="8.9425383"><ele>358.3333333333333</ele><time>2026-04-21T14:29:58.283Z</time></trkpt><trkpt lat="45.7332783" lon="8.94261"><ele>358.0</ele><time>2026-04-21T14:29:59.282Z</time></trkpt><trkpt lat="45.7333133" lon="8.9426917"><ele>358.0</ele><time>2026-04-21T14:30:00.282Z</time></trkpt><trkpt lat="45.733355" lon="8.94277"><ele>358.0</ele><time>2026-04-21T14:30:01.283Z</time></trkpt><trkpt lat="45.7334083" lon="8.9429267"><ele>358.0</ele><time>2026-04-21T14:30:03.282Z</time></trkpt><trkpt lat="45.7334517" lon="8.94304"><ele>358.0</ele><time>2026-04-21T14:30:05.284Z</time></trkpt><trkpt lat="45.7335" lon="8.9431583"><ele>358.0</ele><time>2026-04-21T14:30:07.283Z</time></trkpt><trkpt lat="45.7335167" lon="8.94327"><ele>358.0</ele><time>2026-04-21T14:30:09.283Z</time></trkpt><trkpt lat="45.7335733" lon="8.9433917"><ele>358.0</ele><time>2026-04-21T14:30:11.283Z</time></trkpt><trkpt lat="45.733595" lon="8.94353"><ele>358.0</ele><time>2026-04-21T14:30:13.283Z</time></trkpt><trkpt lat="45.733645" lon="8.943675"><ele>358.0</ele><time>2026-04-21T14:30:15.283Z</time></trkpt><trkpt lat="45.73365" lon="8.9437883"><ele>358.0</ele><time>2026-04-21T14:30:17.282Z</time></trkpt><trkpt lat="45.7336483" lon="8.9439"><ele>358.00000000000006</ele><time>2026-04-21T14:30:19.282Z</time></trkpt><trkpt lat="45.7336083" lon="8.94399"><ele>358.0</ele><time>2026-04-21T14:30:22.282Z</time></trkpt><trkpt lat="45.733565" lon="8.9440717"><ele>358.0</ele><time>2026-04-21T14:30:26.283Z</time></trkpt><trkpt lat="45.7335017" lon="8.944105"><ele>358.0</ele><time>2026-04-21T14:30:29.283Z</time></trkpt><trkpt lat="45.733435" lon="8.94419"><ele>358.0</ele><time>2026-04-21T14:30:32.284Z</time></trkpt><trkpt lat="45.7333783" lon="8.94424"><ele>358.00000000000006</ele><time>2026-04-21T14:30:35.282Z</time></trkpt><trkpt lat="45.73333" lon="8.9443017"><ele>358.0</ele><time>2026-04-21T14:30:38.283Z</time></trkpt><trkpt lat="45.73329" lon="8.9443733"><ele>358.7142857142857</ele><time>2026-04-21T14:30:41.282Z</time></trkpt><trkpt lat="45.73321" lon="8.944425"><ele>359.42857142857144</ele><time>2026-04-21T14:30:45.284Z</time></trkpt><trkpt lat="45.7331567" lon="8.944475"><ele>360.1428571428571</ele><time>2026-04-21T14:30:48.282Z</time></trkpt><trkpt lat="45.7330817" lon="8.9445217"><ele>360.8571428571429</ele><time>2026-04-21T14:30:52.282Z</time></trkpt><trkpt lat="45.7330283" lon="8.9446033"><ele>361.57142857142856</ele><time>2026-04-21T14:30:56.283Z</time></trkpt><trkpt lat="45.732975" lon="8.9446533"><ele>362.2857142857143</ele><time>2026-04-21T14:30:59.281Z</time></trkpt><trkpt lat="45.7329217" lon="8.9447233"><ele>363.0</ele><time>2026-04-21T14:31:02.281Z</time></trkpt><trkpt lat="45.7328617" lon="8.9447867"><ele>362.99999999999994</ele><time>2026-04-21T14:31:06.282Z</time></trkpt><trkpt lat="45.7328283" lon="8.9448667"><ele>363.0</ele><time>2026-04-21T14:31:09.28Z</time></trkpt><trkpt lat="45.7327733" lon="8.94493"><ele>363.0</ele><time>2026-04-21T14:31:12.28Z</time></trkpt><trkpt lat="45.7327417" lon="8.94501"><ele>363.0</ele><time>2026-04-21T14:31:15.281Z</time></trkpt><trkpt lat="45.7327017" lon="8.94509"><ele>363.0</ele><time>2026-04-21T14:31:18.282Z</time></trkpt><trkpt lat="45.7326567" lon="8.94517"><ele>362.99999999999994</ele><time>2026-04-21T14:31:21.282Z</time></trkpt><trkpt lat="45.7326233" lon="8.945255"><ele>363.0</ele><time>2026-04-21T14:31:25.281Z</time></trkpt><trkpt lat="45.732615" lon="8.945365"><ele>363.3333333333333</ele><time>2026-04-21T14:31:30.281Z</time></trkpt><trkpt lat="45.732625" lon="8.94548"><ele>363.6666666666667</ele><time>2026-04-21T14:31:34.281Z</time></trkpt><trkpt lat="45.7326417" lon="8.9455683"><ele>364.0</ele><time>2026-04-21T14:31:36.281Z</time></trkpt><trkpt lat="45.7326617" lon="8.9456867"><ele>364.33333333333337</ele><time>2026-04-21T14:31:39.282Z</time></trkpt><trkpt lat="45.732665" lon="8.94581"><ele>364.6666666666667</ele><time>2026-04-21T14:31:42.28Z</time></trkpt><trkpt lat="45.73268" lon="8.945935"><ele>365.0</ele><time>2026-04-21T14:31:45.281Z</time></trkpt><trkpt lat="45.7326983" lon="8.9460267"><ele>363.5</ele><time>2026-04-21T14:31:47.28Z</time></trkpt><trkpt lat="45.7327233" lon="8.9461117"><ele>362.0</ele><time>2026-04-21T14:31:49.28Z</time></trkpt><trkpt lat="45.7327417" lon="8.9462433"><ele>360.5</ele><time>2026-04-21T14:31:52.281Z</time></trkpt><trkpt lat="45.73275" lon="8.9463417"><ele>359.0</ele><time>2026-04-21T14:31:54.28Z</time></trkpt><trkpt lat="45.7327533" lon="8.946445"><ele>357.5</ele><time>2026-04-21T14:31:56.282Z</time></trkpt><trkpt lat="45.7327533" lon="8.9465817"><ele>356.0</ele><time>2026-04-21T14:31:59.283Z</time></trkpt><trkpt lat="45.7327633" lon="8.946685"><ele>355.99999999999994</ele><time>2026-04-21T14:32:01.282Z</time></trkpt><trkpt lat="45.7327817" lon="8.9467967"><ele>356.0</ele><time>2026-04-21T14:32:03.282Z</time></trkpt><trkpt lat="45.7327867" lon="8.9469017"><ele>356.0</ele><time>2026-04-21T14:32:05.283Z</time></trkpt><trkpt lat="45.7328083" lon="8.9470083"><ele>356.0</ele><time>2026-04-21T14:32:07.283Z</time></trkpt><trkpt lat="45.73281" lon="8.9471083"><ele>356.0</ele><time>2026-04-21T14:32:09.283Z</time></trkpt><trkpt lat="45.732805" lon="8.9472017"><ele>355.99999999999994</ele><time>2026-04-21T14:32:11.281Z</time></trkpt><trkpt lat="45.7327983" lon="8.9473117"><ele>356.0</ele><time>2026-04-21T14:32:13.28Z</time></trkpt><trkpt lat="45.7327967" lon="8.94742"><ele>356.0</ele><time>2026-04-21T14:32:15.281Z</time></trkpt><trkpt lat="45.7328067" lon="8.9475117"><ele>356.0</ele><time>2026-04-21T14:32:17.283Z</time></trkpt><trkpt lat="45.7328283" lon="8.947635"><ele>356.0</ele><time>2026-04-21T14:32:20.282Z</time></trkpt><trkpt lat="45.7328433" lon="8.9477483"><ele>356.0</ele><time>2026-04-21T14:32:23.282Z</time></trkpt><trkpt lat="45.7328633" lon="8.9478617"><ele>356.0</ele><time>2026-04-21T14:32:26.282Z</time></trkpt><trkpt lat="45.7328817" lon="8.9479867"><ele>356.0</ele><time>2026-04-21T14:32:29.282Z</time></trkpt><trkpt lat="45.7329033" lon="8.9481133"><ele>356.6666666666667</ele><time>2026-04-21T14:32:32.283Z</time></trkpt><trkpt lat="45.7329133" lon="8.94824"><ele>357.33333333333337</ele><time>2026-04-21T14:32:35.282Z</time></trkpt><trkpt lat="45.73295" lon="8.9483483"><ele>358.0</ele><time>2026-04-21T14:32:38.283Z</time></trkpt><trkpt lat="45.7329583" lon="8.948455"><ele>358.6666666666667</ele><time>2026-04-21T14:32:41.282Z</time></trkpt><trkpt lat="45.7329633" lon="8.9485567"><ele>359.3333333333333</ele><time>2026-04-21T14:32:43.283Z</time></trkpt><trkpt lat="45.7329967" lon="8.9486367"><ele>360.0</ele><time>2026-04-21T14:32:45.282Z</time></trkpt><trkpt lat="45.7330667" lon="8.9486717"><ele>360.5</ele><time>2026-04-21T14:32:47.283Z</time></trkpt><trkpt lat="45.7331417" lon="8.9486717"><ele>361.0</ele><time>2026-04-21T14:32:49.282Z</time></trkpt><trkpt lat="45.7332217" lon="8.94866"><ele>361.5</ele><time>2026-04-21T14:32:51.283Z</time></trkpt><trkpt lat="45.7333" lon="8.948645"><ele>362.0</ele><time>2026-04-21T14:32:53.283Z</time></trkpt><trkpt lat="45.7333883" lon="8.9486083"><ele>362.5</ele><time>2026-04-21T14:32:56.283Z</time></trkpt><trkpt lat="45.7334567" lon="8.9485917"><ele>363.0</ele><time>2026-04-21T14:32:58.283Z</time></trkpt><trkpt lat="45.7335283" lon="8.9485517"><ele>363.85714285714283</ele><time>2026-04-21T14:33:01.283Z</time></trkpt><trkpt lat="45.7335917" lon="8.94853"><ele>364.7142857142857</ele><time>2026-04-21T14:33:03.283Z</time></trkpt><trkpt lat="45.733655" lon="8.9484867"><ele>365.57142857142856</ele><time>2026-04-21T14:33:05.283Z</time></trkpt><trkpt lat="45.7337183" lon="8.9484633"><ele>366.42857142857144</ele><time>2026-04-21T14:33:07.283Z</time></trkpt><trkpt lat="45.733785" lon="8.9484483"><ele>367.2857142857143</ele><time>2026-04-21T14:33:09.282Z</time></trkpt><trkpt lat="45.7338567" lon="8.948445"><ele>368.1428571428571</ele><time>2026-04-21T14:33:11.283Z</time></trkpt><trkpt lat="45.7339417" lon="8.9484267"><ele>369.0</ele><time>2026-04-21T14:33:14.283Z</time></trkpt><trkpt lat="45.7340183" lon="8.9483883"><ele>369.0</ele><time>2026-04-21T14:33:18.283Z</time></trkpt><trkpt lat="45.7340933" lon="8.9483533"><ele>369.0</ele><time>2026-04-21T14:33:21.283Z</time></trkpt><trkpt lat="45.7341567" lon="8.9483367"><ele>369.0</ele><time>2026-04-21T14:33:23.284Z</time></trkpt><trkpt lat="45.73422" lon="8.9483"><ele>369.0</ele><time>2026-04-21T14:33:26.284Z</time></trkpt><trkpt lat="45.7343083" lon="8.9482633"><ele>369.0</ele><time>2026-04-21T14:33:29.284Z</time></trkpt><trkpt lat="45.73438" lon="8.9482167"><ele>369.0</ele><time>2026-04-21T14:33:31.283Z</time></trkpt><trkpt lat="45.7344617" lon="8.9481817"><ele>369.0</ele><time>2026-04-21T14:33:33.283Z</time></trkpt><trkpt lat="45.734545" lon="8.9481467"><ele>369.0</ele><time>2026-04-21T14:33:35.283Z</time></trkpt><trkpt lat="45.7346233" lon="8.9481167"><ele>369.0</ele><time>2026-04-21T14:33:37.283Z</time></trkpt><trkpt lat="45.734685" lon="8.9480983"><ele>369.0</ele><time>2026-04-21T14:33:39.282Z</time></trkpt><trkpt lat="45.7347517" lon="8.9480783"><ele>369.0</ele><time>2026-04-21T14:33:41.282Z</time></trkpt><trkpt lat="45.7348267" lon="8.9480433"><ele>369.0</ele><time>2026-04-21T14:33:43.282Z</time></trkpt><trkpt lat="45.7349117" lon="8.9480167"><ele>369.0</ele><time>2026-04-21T14:33:45.283Z</time></trkpt><trkpt lat="45.7349867" lon="8.947985"><ele>369.0</ele><time>2026-04-21T14:33:47.281Z</time></trkpt><trkpt lat="45.7350533" lon="8.9479667"><ele>369.0</ele><time>2026-04-21T14:33:49.281Z</time></trkpt><trkpt lat="45.73513" lon="8.947935"><ele>369.0</ele><time>2026-04-21T14:33:51.281Z</time></trkpt><trkpt lat="45.7352117" lon="8.94791"><ele>369.0</ele><time>2026-04-21T14:33:53.282Z</time></trkpt><trkpt lat="45.73529" lon="8.9478833"><ele>369.0</ele><time>2026-04-21T14:33:55.282Z</time></trkpt><trkpt lat="45.7353667" lon="8.9478617"><ele>369.0</ele><time>2026-04-21T14:33:57.281Z</time></trkpt><trkpt lat="45.7354433" lon="8.947835"><ele>369.0</ele><time>2026-04-21T14:33:59.281Z</time></trkpt><trkpt lat="45.73552" lon="8.9478083"><ele>369.0</ele><time>2026-04-21T14:34:01.282Z</time></trkpt><trkpt lat="45.7355933" lon="8.9477767"><ele>369.0</ele><time>2026-04-21T14:34:03.282Z</time></trkpt><trkpt lat="45.7356683" lon="8.9477417"><ele>369.0</ele><time>2026-04-21T14:34:05.282Z</time></trkpt><trkpt lat="45.73574" lon="8.94771"><ele>369.0</ele><time>2026-04-21T14:34:07.283Z</time></trkpt><trkpt lat="45.7358083" lon="8.9476717"><ele>369.0</ele><time>2026-04-21T14:34:09.281Z</time></trkpt><trkpt lat="45.73588" lon="8.9476417"><ele>369.0</ele><time>2026-04-21T14:34:11.281Z</time></trkpt><trkpt lat="45.7359417" lon="8.9476083"><ele>369.0</ele><time>2026-04-21T14:34:13.281Z</time></trkpt><trkpt lat="45.7360083" lon="8.9475783"><ele>369.0</ele><time>2026-04-21T14:34:15.282Z</time></trkpt><trkpt lat="45.736075" lon="8.9475483"><ele>369.0</ele><time>2026-04-21T14:34:17.281Z</time></trkpt><trkpt lat="45.7361433" lon="8.9475283"><ele>369.0</ele><time>2026-04-21T14:34:19.283Z</time></trkpt><trkpt lat="45.7362117" lon="8.9475033"><ele>369.0</ele><time>2026-04-21T14:34:21.282Z</time></trkpt><trkpt lat="45.7362867" lon="8.9474467"><ele>368.8333333333333</ele><time>2026-04-21T14:34:23.284Z</time></trkpt><trkpt lat="45.7363633" lon="8.94741"><ele>368.6666666666667</ele><time>2026-04-21T14:34:25.282Z</time></trkpt><trkpt lat="45.7364383" lon="8.94738"><ele>368.5</ele><time>2026-04-21T14:34:27.283Z</time></trkpt><trkpt lat="45.7365267" lon="8.9473633"><ele>368.33333333333337</ele><time>2026-04-21T14:34:29.281Z</time></trkpt><trkpt lat="45.7366217" lon="8.9473383"><ele>368.1666666666667</ele><time>2026-04-21T14:34:31.282Z</time></trkpt><trkpt lat="45.73671" lon="8.94734"><ele>368.0</ele><time>2026-04-21T14:34:33.282Z</time></trkpt><trkpt lat="45.7368" lon="8.9473167"><ele>367.83333333333337</ele><time>2026-04-21T14:34:35.281Z</time></trkpt><trkpt lat="45.7368967" lon="8.9472783"><ele>367.6666666666667</ele><time>2026-04-21T14:34:37.282Z</time></trkpt><trkpt lat="45.7369833" lon="8.9472367"><ele>367.5</ele><time>2026-04-21T14:34:39.282Z</time></trkpt><trkpt lat="45.737065" lon="8.9471967"><ele>367.3333333333333</ele><time>2026-04-21T14:34:41.282Z</time></trkpt><trkpt lat="45.73715" lon="8.9471633"><ele>367.16666666666663</ele><time>2026-04-21T14:34:43.283Z</time></trkpt><trkpt lat="45.73722" lon="8.9471567"><ele>367.0</ele><time>2026-04-21T14:34:45.283Z</time></trkpt><trkpt lat="45.7373117" lon="8.9471483"><ele>367.0</ele><time>2026-04-21T14:34:47.281Z</time></trkpt><trkpt lat="45.7374033" lon="8.9471483"><ele>367.0</ele><time>2026-04-21T14:34:49.282Z</time></trkpt><trkpt lat="45.73749" lon="8.9471533"><ele>367.0</ele><time>2026-04-21T14:34:51.282Z</time></trkpt><trkpt lat="45.7375633" lon="8.9471483"><ele>367.0</ele><time>2026-04-21T14:34:53.284Z</time></trkpt><trkpt lat="45.7376383" lon="8.94714"><ele>367.0</ele><time>2026-04-21T14:34:55.282Z</time></trkpt><trkpt lat="45.737705" lon="8.9471267"><ele>367.0</ele><time>2026-04-21T14:34:57.281Z</time></trkpt><trkpt lat="45.73778" lon="8.9470933"><ele>367.0</ele><time>2026-04-21T14:34:59.283Z</time></trkpt><trkpt lat="45.7378633" lon="8.947065"><ele>367.0</ele><time>2026-04-21T14:35:01.282Z</time></trkpt><trkpt lat="45.7379383" lon="8.9470317"><ele>367.0</ele><time>2026-04-21T14:35:03.283Z</time></trkpt><trkpt lat="45.7380133" lon="8.9469967"><ele>367.0</ele><time>2026-04-21T14:35:05.283Z</time></trkpt><trkpt lat="45.73809" lon="8.94698"><ele>367.0</ele><time>2026-04-21T14:35:07.282Z</time></trkpt><trkpt lat="45.73816" lon="8.9469583"><ele>367.0</ele><time>2026-04-21T14:35:09.282Z</time></trkpt><trkpt lat="45.738235" lon="8.94693"><ele>367.0</ele><time>2026-04-21T14:35:11.283Z</time></trkpt><trkpt lat="45.7383183" lon="8.9469"><ele>367.0</ele><time>2026-04-21T14:35:13.281Z</time></trkpt><trkpt lat="45.7384" lon="8.9468767"><ele>367.0</ele><time>2026-04-21T14:35:15.282Z</time></trkpt><trkpt lat="45.738485" lon="8.9468583"><ele>367.0</ele><time>2026-04-21T14:35:17.281Z</time></trkpt><trkpt lat="45.7385717" lon="8.9468433"><ele>367.0</ele><time>2026-04-21T14:35:19.282Z</time></trkpt><trkpt lat="45.7386783" lon="8.9468067"><ele>367.0</ele><time>2026-04-21T14:35:21.281Z</time></trkpt><trkpt lat="45.7387933" lon="8.9467633"><ele>367.0</ele><time>2026-04-21T14:35:23.281Z</time></trkpt><trkpt lat="45.7388967" lon="8.94673"><ele>367.0</ele><time>2026-04-21T14:35:25.282Z</time></trkpt><trkpt lat="45.738975" lon="8.9467083"><ele>367.0</ele><time>2026-04-21T14:35:27.283Z</time></trkpt><trkpt lat="45.7390517" lon="8.9466983"><ele>367.0</ele><time>2026-04-21T14:35:29.283Z</time></trkpt><trkpt lat="45.73912" lon="8.9466767"><ele>367.0</ele><time>2026-04-21T14:35:31.281Z</time></trkpt><trkpt lat="45.7391783" lon="8.9466383"><ele>367.0</ele><time>2026-04-21T14:35:33.282Z</time></trkpt><trkpt lat="45.739225" lon="8.9465733"><ele>367.0</ele><time>2026-04-21T14:35:35.283Z</time></trkpt><trkpt lat="45.7392483" lon="8.9464883"><ele>367.0</ele><time>2026-04-21T14:35:37.282Z</time></trkpt><trkpt lat="45.7392517" lon="8.9463933"><ele>367.0</ele><time>2026-04-21T14:35:39.281Z</time></trkpt><trkpt lat="45.7392467" lon="8.946295"><ele>367.0</ele><time>2026-04-21T14:35:41.283Z</time></trkpt><trkpt lat="45.739245" lon="8.9462"><ele>367.0</ele><time>2026-04-21T14:35:43.282Z</time></trkpt><trkpt lat="45.7392433" lon="8.9461"><ele>367.0</ele><time>2026-04-21T14:35:45.282Z</time></trkpt><trkpt lat="45.73924" lon="8.946"><ele>367.0</ele><time>2026-04-21T14:35:47.284Z</time></trkpt><trkpt lat="45.7392383" lon="8.945905"><ele>367.0</ele><time>2026-04-21T14:35:49.283Z</time></trkpt><trkpt lat="45.7392367" lon="8.94581"><ele>367.0</ele><time>2026-04-21T14:35:51.282Z</time></trkpt><trkpt lat="45.7392317" lon="8.9457167"><ele>367.0</ele><time>2026-04-21T14:35:53.283Z</time></trkpt><trkpt lat="45.7392333" lon="8.945585"><ele>367.0</ele><time>2026-04-21T14:35:56.284Z</time></trkpt><trkpt lat="45.73925" lon="8.9454617"><ele>367.0</ele><time>2026-04-21T14:35:59.283Z</time></trkpt><trkpt lat="45.739335" lon="8.9454167"><ele>367.6</ele><time>2026-04-21T14:36:02.283Z</time></trkpt><trkpt lat="45.7394" lon="8.94543"><ele>368.20000000000005</ele><time>2026-04-21T14:36:04.282Z</time></trkpt><trkpt lat="45.7394933" lon="8.9454517"><ele>368.8</ele><time>2026-04-21T14:36:07.282Z</time></trkpt><trkpt lat="45.7395817" lon="8.9454633"><ele>369.4</ele><time>2026-04-21T14:36:10.28Z</time></trkpt><trkpt lat="45.7396733" lon="8.94547"><ele>370.0</ele><time>2026-04-21T14:36:13.282Z</time></trkpt><trkpt lat="45.7397933" lon="8.9455067"><ele>370.0</ele><time>2026-04-21T14:36:17.284Z</time></trkpt><trkpt lat="45.739875" lon="8.9455483"><ele>370.0</ele><time>2026-04-21T14:36:20.282Z</time></trkpt><trkpt lat="45.73995" lon="8.9456133"><ele>370.0</ele><time>2026-04-21T14:36:23.282Z</time></trkpt><trkpt lat="45.740015" lon="8.945685"><ele>370.0</ele><time>2026-04-21T14:36:26.281Z</time></trkpt><trkpt lat="45.7400717" lon="8.9457483"><ele>370.0</ele><time>2026-04-21T14:36:28.282Z</time></trkpt><trkpt lat="45.740125" lon="8.945825"><ele>370.0</ele><time>2026-04-21T14:36:30.282Z</time></trkpt><trkpt lat="45.74018" lon="8.9459033"><ele>371.16666666666663</ele><time>2026-04-21T14:36:32.283Z</time></trkpt><trkpt lat="45.7402383" lon="8.9459867"><ele>372.3333333333333</ele><time>2026-04-21T14:36:34.285Z</time></trkpt><trkpt lat="45.7402917" lon="8.94607"><ele>373.5</ele><time>2026-04-21T14:36:36.282Z</time></trkpt><trkpt lat="45.74034" lon="8.9461517"><ele>374.6666666666667</ele><time>2026-04-21T14:36:38.282Z</time></trkpt><trkpt lat="45.7403867" lon="8.9462367"><ele>375.83333333333337</ele><time>2026-04-21T14:36:40.281Z</time></trkpt><trkpt lat="45.7404333" lon="8.9463117"><ele>377.0</ele><time>2026-04-21T14:36:42.283Z</time></trkpt><trkpt lat="45.7404833" lon="8.946385"><ele>377.0</ele><time>2026-04-21T14:36:44.281Z</time></trkpt><trkpt lat="45.7405433" lon="8.9464567"><ele>377.0</ele><time>2026-04-21T14:36:46.281Z</time></trkpt><trkpt lat="45.7405967" lon="8.9465067"><ele>377.0</ele><time>2026-04-21T14:36:48.282Z</time></trkpt><trkpt lat="45.7406567" lon="8.94658"><ele>377.0</ele><time>2026-04-21T14:36:51.282Z</time></trkpt><trkpt lat="45.7407417" lon="8.946615"><ele>377.0</ele><time>2026-04-21T14:36:53.282Z</time></trkpt><trkpt lat="45.7408183" lon="8.94664"><ele>377.0</ele><time>2026-04-21T14:36:55.286Z</time></trkpt><trkpt lat="45.74091" lon="8.9466567"><ele>377.0</ele><time>2026-04-21T14:36:57.282Z</time></trkpt><trkpt lat="45.740995" lon="8.946685"><ele>377.0</ele><time>2026-04-21T14:36:59.282Z</time></trkpt><trkpt lat="45.7410783" lon="8.94671"><ele>377.0</ele><time>2026-04-21T14:37:01.282Z</time></trkpt><trkpt lat="45.7411483" lon="8.9467117"><ele>377.0</ele><time>2026-04-21T14:37:03.282Z</time></trkpt><trkpt lat="45.7412283" lon="8.946735"><ele>377.0</ele><time>2026-04-21T14:37:05.285Z</time></trkpt><trkpt lat="45.7413167" lon="8.9467767"><ele>377.0</ele><time>2026-04-21T14:37:07.282Z</time></trkpt><trkpt lat="45.74141" lon="8.9468067"><ele>376.83333333333337</ele><time>2026-04-21T14:37:09.282Z</time></trkpt><trkpt lat="45.74149" lon="8.9468433"><ele>376.6666666666667</ele><time>2026-04-21T14:37:11.28Z</time></trkpt><trkpt lat="45.7415817" lon="8.9468733"><ele>376.5</ele><time>2026-04-21T14:37:13.281Z</time></trkpt><trkpt lat="45.7416817" lon="8.9469033"><ele>376.3333333333333</ele><time>2026-04-21T14:37:15.282Z</time></trkpt><trkpt lat="45.7417667" lon="8.94692"><ele>376.16666666666663</ele><time>2026-04-21T14:37:17.281Z</time></trkpt><trkpt lat="45.7418433" lon="8.9469217"><ele>376.0</ele><time>2026-04-21T14:37:19.282Z</time></trkpt><trkpt lat="45.7419233" lon="8.9469367"><ele>376.3333333333333</ele><time>2026-04-21T14:37:21.281Z</time></trkpt><trkpt lat="45.7420217" lon="8.94696"><ele>376.66666666666663</ele><time>2026-04-21T14:37:24.282Z</time></trkpt><trkpt lat="45.742085" lon="8.9469717"><ele>377.0</ele><time>2026-04-21T14:37:26.281Z</time></trkpt><trkpt lat="45.7421533" lon="8.947"><ele>377.3333333333333</ele><time>2026-04-21T14:37:28.282Z</time></trkpt><trkpt lat="45.7422333" lon="8.9470333"><ele>377.6666666666667</ele><time>2026-04-21T14:37:31.281Z</time></trkpt><trkpt lat="45.7422967" lon="8.9470533"><ele>378.0</ele><time>2026-04-21T14:37:33.281Z</time></trkpt><trkpt lat="45.7423767" lon="8.9470717"><ele>378.0</ele><time>2026-04-21T14:37:35.282Z</time></trkpt><trkpt lat="45.7424583" lon="8.9471"><ele>378.0</ele><time>2026-04-21T14:37:37.281Z</time></trkpt><trkpt lat="45.74254" lon="8.94714"><ele>378.0</ele><time>2026-04-21T14:37:39.281Z</time></trkpt><trkpt lat="45.74263" lon="8.94717"><ele>378.0</ele><time>2026-04-21T14:37:41.281Z</time></trkpt><trkpt lat="45.7427233" lon="8.9472067"><ele>378.0</ele><time>2026-04-21T14:37:43.281Z</time></trkpt><trkpt lat="45.7428" lon="8.9472467"><ele>378.0</ele><time>2026-04-21T14:37:45.282Z</time></trkpt><trkpt lat="45.7428817" lon="8.9472883"><ele>378.1666666666667</ele><time>2026-04-21T14:37:47.282Z</time></trkpt><trkpt lat="45.7429467" lon="8.947355"><ele>378.3333333333333</ele><time>2026-04-21T14:37:49.281Z</time></trkpt><trkpt lat="45.7430183" lon="8.9474367"><ele>378.5</ele><time>2026-04-21T14:37:51.281Z</time></trkpt><trkpt lat="45.7430767" lon="8.9475233"><ele>378.66666666666663</ele><time>2026-04-21T14:37:53.281Z</time></trkpt><trkpt lat="45.7431083" lon="8.9476083"><ele>378.8333333333333</ele><time>2026-04-21T14:37:55.282Z</time></trkpt><trkpt lat="45.743145" lon="8.9477117"><ele>379.0</ele><time>2026-04-21T14:37:58.281Z</time></trkpt><trkpt lat="45.7432017" lon="8.9477833"><ele>379.3333333333333</ele><time>2026-04-21T14:38:01.282Z</time></trkpt><trkpt lat="45.7432867" lon="8.947825"><ele>379.66666666666663</ele><time>2026-04-21T14:38:04.281Z</time></trkpt><trkpt lat="45.7433633" lon="8.9478483"><ele>380.0</ele><time>2026-04-21T14:38:06.281Z</time></trkpt><trkpt lat="45.7434267" lon="8.9478633"><ele>380.3333333333333</ele><time>2026-04-21T14:38:08.281Z</time></trkpt><trkpt lat="45.7434933" lon="8.9478683"><ele>380.6666666666667</ele><time>2026-04-21T14:38:10.281Z</time></trkpt><trkpt lat="45.7435717" lon="8.94788"><ele>381.0</ele><time>2026-04-21T14:38:12.282Z</time></trkpt><trkpt lat="45.74365" lon="8.947885"><ele>381.4285714285714</ele><time>2026-04-21T14:38:14.281Z</time></trkpt><trkpt lat="45.7437133" lon="8.9478833"><ele>381.8571428571429</ele><time>2026-04-21T14:38:16.282Z</time></trkpt><trkpt lat="45.743785" lon="8.9478667"><ele>382.2857142857143</ele><time>2026-04-21T14:38:18.281Z</time></trkpt><trkpt lat="45.7438583" lon="8.9478333"><ele>382.71428571428567</ele><time>2026-04-21T14:38:20.282Z</time></trkpt><trkpt lat="45.7439267" lon="8.9477767"><ele>383.1428571428571</ele><time>2026-04-21T14:38:22.282Z</time></trkpt><trkpt lat="45.7439867" lon="8.9477433"><ele>383.57142857142856</ele><time>2026-04-21T14:38:24.281Z</time></trkpt><trkpt lat="45.7440567" lon="8.947705"><ele>384.0</ele><time>2026-04-21T14:38:26.282Z</time></trkpt><trkpt lat="45.7441217" lon="8.9476633"><ele>384.0</ele><time>2026-04-21T14:38:28.281Z</time></trkpt><trkpt lat="45.7442067" lon="8.9476067"><ele>384.0</ele><time>2026-04-21T14:38:31.281Z</time></trkpt><trkpt lat="45.7442867" lon="8.94755"><ele>384.0</ele><time>2026-04-21T14:38:34.281Z</time></trkpt><trkpt lat="45.7443717" lon="8.94752"><ele>384.0</ele><time>2026-04-21T14:38:37.281Z</time></trkpt><trkpt lat="45.7444333" lon="8.94748"><ele>384.0</ele><time>2026-04-21T14:38:40.28Z</time></trkpt><trkpt lat="45.7445033" lon="8.9474567"><ele>384.0</ele><time>2026-04-21T14:38:42.28Z</time></trkpt><trkpt lat="45.7445783" lon="8.947425"><ele>384.6666666666667</ele><time>2026-04-21T14:38:44.281Z</time></trkpt><trkpt lat="45.744655" lon="8.9473933"><ele>385.33333333333337</ele><time>2026-04-21T14:38:46.281Z</time></trkpt><trkpt lat="45.7447233" lon="8.947355"><ele>386.0</ele><time>2026-04-21T14:38:48.281Z</time></trkpt><trkpt lat="45.7447933" lon="8.9473117"><ele>386.6666666666667</ele><time>2026-04-21T14:38:50.282Z</time></trkpt><trkpt lat="45.74486" lon="8.9472683"><ele>387.33333333333337</ele><time>2026-04-21T14:38:52.281Z</time></trkpt><trkpt lat="45.744925" lon="8.94722"><ele>388.0</ele><time>2026-04-21T14:38:54.28Z</time></trkpt><trkpt lat="45.7449967" lon="8.94718"><ele>388.0</ele><time>2026-04-21T14:38:56.281Z</time></trkpt><trkpt lat="45.7450667" lon="8.9471383"><ele>388.0</ele><time>2026-04-21T14:38:58.281Z</time></trkpt><trkpt lat="45.7451333" lon="8.947105"><ele>388.0</ele><time>2026-04-21T14:39:00.281Z</time></trkpt><trkpt lat="45.7451917" lon="8.9470633"><ele>388.0</ele><time>2026-04-21T14:39:02.281Z</time></trkpt><trkpt lat="45.7452483" lon="8.9470067"><ele>388.0</ele><time>2026-04-21T14:39:04.281Z</time></trkpt><trkpt lat="45.7453083" lon="8.94696"><ele>388.0</ele><time>2026-04-21T14:39:06.282Z</time></trkpt><trkpt lat="45.7453633" lon="8.94691"><ele>388.0</ele><time>2026-04-21T14:39:08.281Z</time></trkpt><trkpt lat="45.7454167" lon="8.9468517"><ele>388.00000000000006</ele><time>2026-04-21T14:39:10.282Z</time></trkpt><trkpt lat="45.74549" lon="8.9468"><ele>388.0</ele><time>2026-04-21T14:39:13.28Z</time></trkpt><trkpt lat="45.7455533" lon="8.9467667"><ele>388.0</ele><time>2026-04-21T14:39:16.281Z</time></trkpt><trkpt lat="45.7456183" lon="8.9467167"><ele>388.0</ele><time>2026-04-21T14:39:20.283Z</time></trkpt><trkpt lat="45.7457133" lon="8.946705"><ele>388.00000000000006</ele><time>2026-04-21T14:39:29.282Z</time></trkpt><trkpt lat="45.74577" lon="8.946645"><ele>388.0</ele><time>2026-04-21T14:39:32.281Z</time></trkpt><trkpt lat="45.7458283" lon="8.9465833"><ele>388.00000000000006</ele><time>2026-04-21T14:39:35.281Z</time></trkpt><trkpt lat="45.7458883" lon="8.94651"><ele>388.0</ele><time>2026-04-21T14:39:38.281Z</time></trkpt><trkpt lat="45.7459533" lon="8.9464617"><ele>388.0</ele><time>2026-04-21T14:39:41.281Z</time></trkpt><trkpt lat="45.7460367" lon="8.9464433"><ele>388.0</ele><time>2026-04-21T14:39:44.282Z</time></trkpt><trkpt lat="45.7461133" lon="8.9464417"><ele>388.00000000000006</ele><time>2026-04-21T14:39:46.282Z</time></trkpt><trkpt lat="45.74617" lon="8.9463933"><ele>388.0</ele><time>2026-04-21T14:39:48.281Z</time></trkpt><trkpt lat="45.7462267" lon="8.9463267"><ele>388.50000000000006</ele><time>2026-04-21T14:39:51.282Z</time></trkpt><trkpt lat="45.74628" lon="8.9462617"><ele>389.0</ele><time>2026-04-21T14:39:53.282Z</time></trkpt><trkpt lat="45.7463417" lon="8.9461967"><ele>389.5</ele><time>2026-04-21T14:39:55.282Z</time></trkpt><trkpt lat="45.7464133" lon="8.9461283"><ele>390.0</ele><time>2026-04-21T14:39:57.283Z</time></trkpt><trkpt lat="45.7464917" lon="8.9460567"><ele>390.50000000000006</ele><time>2026-04-21T14:39:59.283Z</time></trkpt><trkpt lat="45.74656" lon="8.9460167"><ele>391.0</ele><time>2026-04-21T14:40:01.282Z</time></trkpt><trkpt lat="45.7466267" lon="8.9459883"><ele>390.99999999999994</ele><time>2026-04-21T14:40:03.283Z</time></trkpt><trkpt lat="45.7466817" lon="8.9459433"><ele>391.0</ele><time>2026-04-21T14:40:05.283Z</time></trkpt><trkpt lat="45.746735" lon="8.9458817"><ele>391.0</ele><time>2026-04-21T14:40:07.283Z</time></trkpt><trkpt lat="45.7467983" lon="8.9458383"><ele>391.0</ele><time>2026-04-21T14:40:09.283Z</time></trkpt><trkpt lat="45.74686" lon="8.9457983"><ele>391.0</ele><time>2026-04-21T14:40:11.283Z</time></trkpt><trkpt lat="45.7469217" lon="8.9457733"><ele>390.99999999999994</ele><time>2026-04-21T14:40:13.282Z</time></trkpt><trkpt lat="45.7469967" lon="8.9457333"><ele>391.0</ele><time>2026-04-21T14:40:15.282Z</time></trkpt><trkpt lat="45.74706" lon="8.9457033"><ele>390.50000000000006</ele><time>2026-04-21T14:40:17.283Z</time></trkpt><trkpt lat="45.747125" lon="8.9456617"><ele>390.0</ele><time>2026-04-21T14:40:19.283Z</time></trkpt><trkpt lat="45.7472017" lon="8.94562"><ele>389.5</ele><time>2026-04-21T14:40:22.284Z</time></trkpt><trkpt lat="45.7472683" lon="8.945575"><ele>389.0</ele><time>2026-04-21T14:40:25.283Z</time></trkpt><trkpt lat="45.7473417" lon="8.9455167"><ele>388.50000000000006</ele><time>2026-04-21T14:40:28.283Z</time></trkpt><trkpt lat="45.747405" lon="8.9454433"><ele>388.0</ele><time>2026-04-21T14:40:31.283Z</time></trkpt><trkpt lat="45.747465" lon="8.94537"><ele>388.00000000000006</ele><time>2026-04-21T14:40:34.283Z</time></trkpt><trkpt lat="45.7475433" lon="8.945315"><ele>388.0</ele><time>2026-04-21T14:40:37.282Z</time></trkpt><trkpt lat="45.7476033" lon="8.94528"><ele>388.0</ele><time>2026-04-21T14:40:39.282Z</time></trkpt><trkpt lat="45.7476667" lon="8.945235"><ele>388.0</ele><time>2026-04-21T14:40:41.281Z</time></trkpt><trkpt lat="45.7477283" lon="8.9451867"><ele>388.00000000000006</ele><time>2026-04-21T14:40:43.283Z</time></trkpt><trkpt lat="45.7477867" lon="8.9451067"><ele>388.0</ele><time>2026-04-21T14:40:45.281Z</time></trkpt><trkpt lat="45.7478517" lon="8.945025"><ele>388.0</ele><time>2026-04-21T14:40:47.281Z</time></trkpt><trkpt lat="45.74794" lon="8.94495"><ele>388.0</ele><time>2026-04-21T14:40:49.283Z</time></trkpt><trkpt lat="45.74804" lon="8.9448867"><ele>388.0</ele><time>2026-04-21T14:40:51.282Z</time></trkpt><trkpt lat="45.7481317" lon="8.9448283"><ele>388.0</ele><time>2026-04-21T14:40:53.283Z</time></trkpt><trkpt lat="45.74822" lon="8.9448467"><ele>388.0</ele><time>2026-04-21T14:40:55.282Z</time></trkpt><trkpt lat="45.7482967" lon="8.9448783"><ele>388.00000000000006</ele><time>2026-04-21T14:40:57.282Z</time></trkpt><trkpt lat="45.7483833" lon="8.9449"><ele>388.0</ele><time>2026-04-21T14:41:00.281Z</time></trkpt><trkpt lat="45.74848" lon="8.9449233"><ele>388.0</ele><time>2026-04-21T14:41:03.283Z</time></trkpt><trkpt lat="45.7485683" lon="8.9449367"><ele>388.0</ele><time>2026-04-21T14:41:06.284Z</time></trkpt><trkpt lat="45.7486483" lon="8.9449417"><ele>388.00000000000006</ele><time>2026-04-21T14:41:09.282Z</time></trkpt><trkpt lat="45.74872" lon="8.9449433"><ele>388.0</ele><time>2026-04-21T14:41:12.282Z</time></trkpt><trkpt lat="45.7487967" lon="8.9449583"><ele>388.50000000000006</ele><time>2026-04-21T14:41:15.281Z</time></trkpt><trkpt lat="45.748885" lon="8.94499"><ele>389.0</ele><time>2026-04-21T14:41:19.281Z</time></trkpt><trkpt lat="45.7489567" lon="8.94499"><ele>389.5</ele><time>2026-04-21T14:41:22.281Z</time></trkpt><trkpt lat="45.7490433" lon="8.9449767"><ele>390.0</ele><time>2026-04-21T14:41:25.283Z</time></trkpt><trkpt lat="45.7491167" lon="8.945005"><ele>390.50000000000006</ele><time>2026-04-21T14:41:28.282Z</time></trkpt><trkpt lat="45.7491867" lon="8.9450367"><ele>391.0</ele><time>2026-04-21T14:41:31.282Z</time></trkpt><trkpt lat="45.7492517" lon="8.945045"><ele>391.00000000000006</ele><time>2026-04-21T14:41:33.283Z</time></trkpt><trkpt lat="45.74934" lon="8.9450433"><ele>391.0</ele><time>2026-04-21T14:41:36.284Z</time></trkpt><trkpt lat="45.749405" lon="8.945085"><ele>391.0</ele><time>2026-04-21T14:41:39.282Z</time></trkpt><trkpt lat="45.7494717" lon="8.9451583"><ele>391.0</ele><time>2026-04-21T14:41:42.282Z</time></trkpt><trkpt lat="45.7495333" lon="8.945245"><ele>391.00000000000006</ele><time>2026-04-21T14:41:45.282Z</time></trkpt><trkpt lat="45.7495967" lon="8.9452817"><ele>391.0</ele><time>2026-04-21T14:41:47.281Z</time></trkpt><trkpt lat="45.7496683" lon="8.9452967"><ele>391.00000000000006</ele><time>2026-04-21T14:41:50.282Z</time></trkpt><trkpt lat="45.7497317" lon="8.9452267"><ele>391.0</ele><time>2026-04-21T14:41:53.282Z</time></trkpt><trkpt lat="45.7497867" lon="8.9451533"><ele>391.0</ele><time>2026-04-21T14:41:56.28Z</time></trkpt><trkpt lat="45.7498433" lon="8.9450967"><ele>391.0</ele><time>2026-04-21T14:41:59.283Z</time></trkpt><trkpt lat="45.7499183" lon="8.9450417"><ele>391.00000000000006</ele><time>2026-04-21T14:42:03.282Z</time></trkpt><trkpt lat="45.7499883" lon="8.9449767"><ele>391.0</ele><time>2026-04-21T14:42:06.282Z</time></trkpt><trkpt lat="45.7500783" lon="8.9449883"><ele>391.33333333333337</ele><time>2026-04-21T14:42:09.282Z</time></trkpt><trkpt lat="45.7501483" lon="8.9450317"><ele>391.6666666666667</ele><time>2026-04-21T14:42:12.282Z</time></trkpt><trkpt lat="45.750215" lon="8.9450767"><ele>392.0</ele><time>2026-04-21T14:42:15.28Z</time></trkpt><trkpt lat="45.7502883" lon="8.9450917"><ele>392.33333333333337</ele><time>2026-04-21T14:42:18.282Z</time></trkpt><trkpt lat="45.75037" lon="8.9450717"><ele>392.6666666666667</ele><time>2026-04-21T14:42:21.281Z</time></trkpt><trkpt lat="45.750445" lon="8.9450517"><ele>393.0</ele><time>2026-04-21T14:42:24.282Z</time></trkpt><trkpt lat="45.7505217" lon="8.9450483"><ele>393.0</ele><time>2026-04-21T14:42:27.281Z</time></trkpt><trkpt lat="45.750595" lon="8.9450883"><ele>393.0</ele><time>2026-04-21T14:42:30.283Z</time></trkpt><trkpt lat="45.7506817" lon="8.945135"><ele>393.0</ele><time>2026-04-21T14:42:33.28Z</time></trkpt><trkpt lat="45.7507417" lon="8.9451767"><ele>393.0</ele><time>2026-04-21T14:42:36.281Z</time></trkpt><trkpt lat="45.7508217" lon="8.9451917"><ele>393.0</ele><time>2026-04-21T14:42:39.282Z</time></trkpt><trkpt lat="45.7509117" lon="8.9451967"><ele>393.0</ele><time>2026-04-21T14:42:42.281Z</time></trkpt><trkpt lat="45.75098" lon="8.9451983"><ele>394.00000000000006</ele><time>2026-04-21T14:42:46.283Z</time></trkpt><trkpt lat="45.7510467" lon="8.94522"><ele>395.0</ele><time>2026-04-21T14:42:49.282Z</time></trkpt><trkpt lat="45.751125" lon="8.945215"><ele>396.0</ele><time>2026-04-21T14:42:52.281Z</time></trkpt><trkpt lat="45.7511983" lon="8.9451967"><ele>397.0</ele><time>2026-04-21T14:42:55.283Z</time></trkpt><trkpt lat="45.7512783" lon="8.9451767"><ele>398.0</ele><time>2026-04-21T14:42:58.283Z</time></trkpt><trkpt lat="45.7513417" lon="8.945165"><ele>399.00000000000006</ele><time>2026-04-21T14:43:01.282Z</time></trkpt><trkpt lat="45.751415" lon="8.945165"><ele>400.0</ele><time>2026-04-21T14:43:03.281Z</time></trkpt><trkpt lat="45.75149" lon="8.9451567"><ele>400.00000000000006</ele><time>2026-04-21T14:43:05.282Z</time></trkpt><trkpt lat="45.7515567" lon="8.9451433"><ele>400.0</ele><time>2026-04-21T14:43:07.282Z</time></trkpt><trkpt lat="45.75162" lon="8.9451283"><ele>400.0</ele><time>2026-04-21T14:43:09.282Z</time></trkpt><trkpt lat="45.7517133" lon="8.9450967"><ele>400.0</ele><time>2026-04-21T14:43:12.282Z</time></trkpt><trkpt lat="45.7517783" lon="8.94506"><ele>400.00000000000006</ele><time>2026-04-21T14:43:14.281Z</time></trkpt><trkpt lat="45.75186" lon="8.94504"><ele>400.0</ele><time>2026-04-21T14:43:17.282Z</time></trkpt><trkpt lat="45.7519383" lon="8.945015"><ele>400.50000000000006</ele><time>2026-04-21T14:43:20.281Z</time></trkpt><trkpt lat="45.7520267" lon="8.944995"><ele>401.0</ele><time>2026-04-21T14:43:23.28Z</time></trkpt><trkpt lat="45.7521017" lon="8.9449967"><ele>401.5</ele><time>2026-04-21T14:43:26.282Z</time></trkpt><trkpt lat="45.7521933" lon="8.9450433"><ele>402.0</ele><time>2026-04-21T14:43:29.282Z</time></trkpt><trkpt lat="45.75226" lon="8.94506"><ele>402.50000000000006</ele><time>2026-04-21T14:43:31.281Z</time></trkpt><trkpt lat="45.7523233" lon="8.9450583"><ele>403.0</ele><time>2026-04-21T14:43:33.283Z</time></trkpt><trkpt lat="45.7524067" lon="8.94505"><ele>403.00000000000006</ele><time>2026-04-21T14:43:36.284Z</time></trkpt><trkpt lat="45.75248" lon="8.9450467"><ele>403.0</ele><time>2026-04-21T14:43:39.282Z</time></trkpt><trkpt lat="45.752565" lon="8.9450733"><ele>403.0</ele><time>2026-04-21T14:43:42.283Z</time></trkpt><trkpt lat="45.7526433" lon="8.9451367"><ele>403.0</ele><time>2026-04-21T14:43:45.282Z</time></trkpt><trkpt lat="45.752705" lon="8.9452217"><ele>403.00000000000006</ele><time>2026-04-21T14:43:48.282Z</time></trkpt><trkpt lat="45.75274" lon="8.9453083"><ele>403.0</ele><time>2026-04-21T14:43:50.283Z</time></trkpt><trkpt lat="45.7527733" lon="8.9453883"><ele>403.00000000000006</ele><time>2026-04-21T14:43:52.283Z</time></trkpt><trkpt lat="45.7528" lon="8.9455067"><ele>403.0</ele><time>2026-04-21T14:43:55.281Z</time></trkpt><trkpt lat="45.7528317" lon="8.94562"><ele>403.0</ele><time>2026-04-21T14:43:58.282Z</time></trkpt><trkpt lat="45.7528433" lon="8.9457133"><ele>403.0</ele><time>2026-04-21T14:44:01.282Z</time></trkpt><trkpt lat="45.7528833" lon="8.945795"><ele>403.00000000000006</ele><time>2026-04-21T14:44:04.281Z</time></trkpt><trkpt lat="45.7529317" lon="8.9458533"><ele>403.0</ele><time>2026-04-21T14:44:07.282Z</time></trkpt><trkpt lat="45.7529933" lon="8.9459283"><ele>403.50000000000006</ele><time>2026-04-21T14:44:10.282Z</time></trkpt><trkpt lat="45.7530783" lon="8.9459417"><ele>404.0</ele><time>2026-04-21T14:44:13.283Z</time></trkpt><trkpt lat="45.753155" lon="8.9459467"><ele>404.5</ele><time>2026-04-21T14:44:16.281Z</time></trkpt><trkpt lat="45.7532183" lon="8.9459467"><ele>405.0</ele><time>2026-04-21T14:44:19.28Z</time></trkpt><trkpt lat="45.7533117" lon="8.9459417"><ele>405.50000000000006</ele><time>2026-04-21T14:44:23.282Z</time></trkpt><trkpt lat="45.7534067" lon="8.9459317"><ele>406.0</ele><time>2026-04-21T14:44:26.282Z</time></trkpt><trkpt lat="45.7534867" lon="8.9459283"><ele>406.57142857142856</ele><time>2026-04-21T14:44:29.282Z</time></trkpt><trkpt lat="45.7535617" lon="8.94593"><ele>407.1428571428571</ele><time>2026-04-21T14:44:32.281Z</time></trkpt><trkpt lat="45.75363" lon="8.9459817"><ele>407.7142857142857</ele><time>2026-04-21T14:44:35.281Z</time></trkpt><trkpt lat="45.7537" lon="8.9460167"><ele>408.2857142857143</ele><time>2026-04-21T14:44:38.281Z</time></trkpt><trkpt lat="45.75377" lon="8.9460533"><ele>408.85714285714283</ele><time>2026-04-21T14:44:41.282Z</time></trkpt><trkpt lat="45.7538317" lon="8.94609"><ele>409.42857142857144</ele><time>2026-04-21T14:44:44.282Z</time></trkpt><trkpt lat="45.753885" lon="8.9461583"><ele>410.0</ele><time>2026-04-21T14:44:47.281Z</time></trkpt><trkpt lat="45.7539483" lon="8.9462433"><ele>410.0</ele><time>2026-04-21T14:44:50.282Z</time></trkpt><trkpt lat="45.754" lon="8.9463217"><ele>410.0</ele><time>2026-04-21T14:44:53.282Z</time></trkpt><trkpt lat="45.7540483" lon="8.9464"><ele>410.0</ele><time>2026-04-21T14:44:56.283Z</time></trkpt><trkpt lat="45.75411" lon="8.9464583"><ele>410.0</ele><time>2026-04-21T14:44:59.282Z</time></trkpt><trkpt lat="45.7541767" lon="8.9465033"><ele>410.0</ele><time>2026-04-21T14:45:02.282Z</time></trkpt><trkpt lat="45.75425" lon="8.9464983"><ele>410.0</ele><time>2026-04-21T14:45:05.282Z</time></trkpt><trkpt lat="45.75433" lon="8.946495"><ele>410.0</ele><time>2026-04-21T14:45:08.282Z</time></trkpt><trkpt lat="45.754395" lon="8.94649"><ele>409.99999999999994</ele><time>2026-04-21T14:45:11.282Z</time></trkpt><trkpt lat="45.7544633" lon="8.9465"><ele>410.0</ele><time>2026-04-21T14:45:14.282Z</time></trkpt><trkpt lat="45.7545417" lon="8.9464817"><ele>410.0</ele><time>2026-04-21T14:45:17.283Z</time></trkpt><trkpt lat="45.75462" lon="8.94647"><ele>410.0</ele><time>2026-04-21T14:45:20.282Z</time></trkpt><trkpt lat="45.75471" lon="8.94645"><ele>409.99999999999994</ele><time>2026-04-21T14:45:23.281Z</time></trkpt><trkpt lat="45.7547917" lon="8.94643"><ele>410.0</ele><time>2026-04-21T14:45:26.282Z</time></trkpt><trkpt lat="45.754855" lon="8.946435"><ele>409.99999999999994</ele><time>2026-04-21T14:45:28.282Z</time></trkpt><trkpt lat="45.7549233" lon="8.946435"><ele>410.0</ele><time>2026-04-21T14:45:31.283Z</time></trkpt><trkpt lat="45.754995" lon="8.94644"><ele>410.0</ele><time>2026-04-21T14:45:34.282Z</time></trkpt><trkpt lat="45.7550683" lon="8.946415"><ele>410.0</ele><time>2026-04-21T14:45:38.283Z</time></trkpt><trkpt lat="45.75515" lon="8.9464217"><ele>409.99999999999994</ele><time>2026-04-21T14:45:41.282Z</time></trkpt><trkpt lat="45.7552383" lon="8.9463933"><ele>410.0</ele><time>2026-04-21T14:45:44.282Z</time></trkpt><trkpt lat="45.755325" lon="8.9463717"><ele>410.66666666666663</ele><time>2026-04-21T14:45:47.281Z</time></trkpt><trkpt lat="45.7554133" lon="8.94635"><ele>411.3333333333333</ele><time>2026-04-21T14:45:50.282Z</time></trkpt><trkpt lat="45.75548" lon="8.946335"><ele>412.0</ele><time>2026-04-21T14:45:52.283Z</time></trkpt><trkpt lat="45.755555" lon="8.946265"><ele>412.66666666666663</ele><time>2026-04-21T14:45:55.282Z</time></trkpt><trkpt lat="45.75564" lon="8.946225"><ele>413.3333333333333</ele><time>2026-04-21T14:45:58.282Z</time></trkpt><trkpt lat="45.7557083" lon="8.946215"><ele>414.0</ele><time>2026-04-21T14:46:00.283Z</time></trkpt><trkpt lat="45.755785" lon="8.9462"><ele>414.0</ele><time>2026-04-21T14:46:03.282Z</time></trkpt><trkpt lat="45.7558467" lon="8.9461733"><ele>414.0</ele><time>2026-04-21T14:46:05.284Z</time></trkpt><trkpt lat="45.755945" lon="8.9461283"><ele>414.0</ele><time>2026-04-21T14:46:08.283Z</time></trkpt><trkpt lat="45.756015" lon="8.9461017"><ele>414.0</ele><time>2026-04-21T14:46:10.283Z</time></trkpt><trkpt lat="45.7560933" lon="8.9460667"><ele>414.0</ele><time>2026-04-21T14:46:13.282Z</time></trkpt><trkpt lat="45.7561583" lon="8.9460333"><ele>414.0</ele><time>2026-04-21T14:46:16.281Z</time></trkpt><trkpt lat="45.75624" lon="8.946"><ele>414.1666666666667</ele><time>2026-04-21T14:46:19.281Z</time></trkpt><trkpt lat="45.7563233" lon="8.9459833"><ele>414.33333333333337</ele><time>2026-04-21T14:46:21.283Z</time></trkpt><trkpt lat="45.7563883" lon="8.945965"><ele>414.5</ele><time>2026-04-21T14:46:23.282Z</time></trkpt><trkpt lat="45.75646" lon="8.94595"><ele>414.6666666666667</ele><time>2026-04-21T14:46:25.282Z</time></trkpt><trkpt lat="45.7565317" lon="8.9459367"><ele>414.83333333333337</ele><time>2026-04-21T14:46:27.283Z</time></trkpt><trkpt lat="45.7566033" lon="8.9459233"><ele>415.0</ele><time>2026-04-21T14:46:29.282Z</time></trkpt><trkpt lat="45.756685" lon="8.9458983"><ele>415.0</ele><time>2026-04-21T14:46:31.282Z</time></trkpt><trkpt lat="45.7567667" lon="8.945875"><ele>415.0</ele><time>2026-04-21T14:46:33.282Z</time></trkpt><trkpt lat="45.7568317" lon="8.9458583"><ele>415.0</ele><time>2026-04-21T14:46:35.281Z</time></trkpt><trkpt lat="45.7569" lon="8.9458367"><ele>415.0</ele><time>2026-04-21T14:46:37.282Z</time></trkpt><trkpt lat="45.7569767" lon="8.945845"><ele>415.0</ele><time>2026-04-21T14:46:40.283Z</time></trkpt><trkpt lat="45.75704" lon="8.9458283"><ele>415.0</ele><time>2026-04-21T14:46:43.283Z</time></trkpt><trkpt lat="45.7571267" lon="8.945815"><ele>415.0</ele><time>2026-04-21T14:46:46.281Z</time></trkpt><trkpt lat="45.7571917" lon="8.9458083"><ele>415.33333333333337</ele><time>2026-04-21T14:46:48.284Z</time></trkpt><trkpt lat="45.7572767" lon="8.9457867"><ele>415.6666666666667</ele><time>2026-04-21T14:46:51.283Z</time></trkpt><trkpt lat="45.7573583" lon="8.9458"><ele>416.0</ele><time>2026-04-21T14:46:54.282Z</time></trkpt><trkpt lat="45.757445" lon="8.945795"><ele>416.33333333333337</ele><time>2026-04-21T14:46:57.282Z</time></trkpt><trkpt lat="45.75752" lon="8.9457783"><ele>416.6666666666667</ele><time>2026-04-21T14:47:00.282Z</time></trkpt><trkpt lat="45.7575917" lon="8.9457583"><ele>417.0</ele><time>2026-04-21T14:47:03.282Z</time></trkpt><trkpt lat="45.7576733" lon="8.9457367"><ele>417.0</ele><time>2026-04-21T14:47:06.282Z</time></trkpt><trkpt lat="45.7576733" lon="8.94583"><ele>417.0</ele><time>2026-04-21T14:47:12.283Z</time></trkpt><trkpt lat="45.75762" lon="8.9458833"><ele>417.0</ele><time>2026-04-21T14:47:16.282Z</time></trkpt><trkpt lat="45.75757" lon="8.945955"><ele>417.0</ele><time>2026-04-21T14:47:20.283Z</time></trkpt><trkpt lat="45.7575033" lon="8.94602"><ele>417.0</ele><time>2026-04-21T14:47:23.282Z</time></trkpt><trkpt lat="45.757455" lon="8.9460867"><ele>417.0</ele><time>2026-04-21T14:47:25.282Z</time></trkpt><trkpt lat="45.7574167" lon="8.946165"><ele>417.0</ele><time>2026-04-21T14:47:27.282Z</time></trkpt><trkpt lat="45.757375" lon="8.9462433"><ele>416.8333333333333</ele><time>2026-04-21T14:47:29.282Z</time></trkpt><trkpt lat="45.75733" lon="8.94632"><ele>416.66666666666663</ele><time>2026-04-21T14:47:31.282Z</time></trkpt><trkpt lat="45.7572967" lon="8.946425"><ele>416.5</ele><time>2026-04-21T14:47:33.281Z</time></trkpt><trkpt lat="45.7572483" lon="8.946525"><ele>416.3333333333333</ele><time>2026-04-21T14:47:35.283Z</time></trkpt><trkpt lat="45.7571883" lon="8.946605"><ele>416.16666666666663</ele><time>2026-04-21T14:47:37.281Z</time></trkpt><trkpt lat="45.7571383" lon="8.946685"><ele>416.0</ele><time>2026-04-21T14:47:39.282Z</time></trkpt><trkpt lat="45.7570833" lon="8.9467483"><ele>416.1428571428571</ele><time>2026-04-21T14:47:41.281Z</time></trkpt><trkpt lat="45.7570233" lon="8.9467983"><ele>416.28571428571433</ele><time>2026-04-21T14:47:43.282Z</time></trkpt><trkpt lat="45.7569733" lon="8.9468817"><ele>416.42857142857144</ele><time>2026-04-21T14:47:46.282Z</time></trkpt><trkpt lat="45.7569483" lon="8.94698"><ele>416.57142857142856</ele><time>2026-04-21T14:47:48.283Z</time></trkpt><trkpt lat="45.7569183" lon="8.9470783"><ele>416.71428571428567</ele><time>2026-04-21T14:47:50.283Z</time></trkpt><trkpt lat="45.7568833" lon="8.9471817"><ele>416.8571428571429</ele><time>2026-04-21T14:47:53.283Z</time></trkpt><trkpt lat="45.7568683" lon="8.9472717"><ele>417.0</ele><time>2026-04-21T14:47:55.282Z</time></trkpt><trkpt lat="45.7568617" lon="8.9473683"><ele>417.0</ele><time>2026-04-21T14:47:57.282Z</time></trkpt><trkpt lat="45.7568417" lon="8.9474917"><ele>417.0</ele><time>2026-04-21T14:48:00.282Z</time></trkpt><trkpt lat="45.7567933" lon="8.9475533"><ele>417.0</ele><time>2026-04-21T14:48:02.282Z</time></trkpt><trkpt lat="45.7567067" lon="8.9475583"><ele>417.0</ele><time>2026-04-21T14:48:06.286Z</time></trkpt><trkpt lat="45.7566433" lon="8.9475683"><ele>417.0</ele><time>2026-04-21T14:48:08.283Z</time></trkpt><trkpt lat="45.7565833" lon="8.9476433"><ele>417.0</ele><time>2026-04-21T14:48:10.282Z</time></trkpt><trkpt lat="45.75655" lon="8.947765"><ele>416.8333333333333</ele><time>2026-04-21T14:48:12.282Z</time></trkpt><trkpt lat="45.75655" lon="8.9478783"><ele>416.66666666666663</ele><time>2026-04-21T14:48:14.283Z</time></trkpt><trkpt lat="45.7565467" lon="8.9480017"><ele>416.5</ele><time>2026-04-21T14:48:16.282Z</time></trkpt><trkpt lat="45.7565517" lon="8.9481117"><ele>416.3333333333333</ele><time>2026-04-21T14:48:18.283Z</time></trkpt><trkpt lat="45.7565533" lon="8.948215"><ele>416.16666666666663</ele><time>2026-04-21T14:48:20.281Z</time></trkpt><trkpt lat="45.75655" lon="8.94831"><ele>416.0</ele><time>2026-04-21T14:48:22.282Z</time></trkpt><trkpt lat="45.7565483" lon="8.9484183"><ele>415.99999999999994</ele><time>2026-04-21T14:48:24.282Z</time></trkpt><trkpt lat="45.7565567" lon="8.94855"><ele>416.0</ele><time>2026-04-21T14:48:26.282Z</time></trkpt><trkpt lat="45.7565733" lon="8.9486733"><ele>416.0</ele><time>2026-04-21T14:48:28.282Z</time></trkpt><trkpt lat="45.7565817" lon="8.9488083"><ele>416.0</ele><time>2026-04-21T14:48:30.281Z</time></trkpt><trkpt lat="45.7565867" lon="8.9489183"><ele>415.99999999999994</ele><time>2026-04-21T14:48:32.282Z</time></trkpt><trkpt lat="45.7565883" lon="8.9490567"><ele>416.0</ele><time>2026-04-21T14:48:34.282Z</time></trkpt><trkpt lat="45.7565967" lon="8.94916"><ele>415.6</ele><time>2026-04-21T14:48:36.282Z</time></trkpt><trkpt lat="45.7566233" lon="8.949295"><ele>415.20000000000005</ele><time>2026-04-21T14:48:39.282Z</time></trkpt><trkpt lat="45.7566517" lon="8.94942"><ele>414.79999999999995</ele><time>2026-04-21T14:48:41.281Z</time></trkpt><trkpt lat="45.7566733" lon="8.9495833"><ele>414.4</ele><time>2026-04-21T14:48:43.282Z</time></trkpt><trkpt lat="45.7566567" lon="8.94972"><ele>414.0</ele><time>2026-04-21T14:48:45.281Z</time></trkpt><trkpt lat="45.7566417" lon="8.9498467"><ele>414.0</ele><time>2026-04-21T14:48:47.282Z</time></trkpt><trkpt lat="45.756575" lon="8.9499367"><ele>414.0</ele><time>2026-04-21T14:48:49.282Z</time></trkpt><trkpt lat="45.75653" lon="8.9500217"><ele>414.0</ele><time>2026-04-21T14:48:51.282Z</time></trkpt><trkpt lat="45.7564917" lon="8.9501017"><ele>414.0</ele><time>2026-04-21T14:48:54.282Z</time></trkpt><trkpt lat="45.75643" lon="8.9501367"><ele>414.0</ele><time>2026-04-21T14:48:56.283Z</time></trkpt><trkpt lat="45.7563567" lon="8.9501783"><ele>414.0</ele><time>2026-04-21T14:48:59.282Z</time></trkpt><trkpt lat="45.7562617" lon="8.9502233"><ele>414.1666666666667</ele><time>2026-04-21T14:49:02.282Z</time></trkpt><trkpt lat="45.7561883" lon="8.9502667"><ele>414.33333333333337</ele><time>2026-04-21T14:49:04.282Z</time></trkpt><trkpt lat="45.75611" lon="8.95034"><ele>414.5</ele><time>2026-04-21T14:49:07.281Z</time></trkpt><trkpt lat="45.7560533" lon="8.95043"><ele>414.6666666666667</ele><time>2026-04-21T14:49:10.282Z</time></trkpt><trkpt lat="45.7560183" lon="8.9505233"><ele>414.83333333333337</ele><time>2026-04-21T14:49:13.282Z</time></trkpt><trkpt lat="45.7559583" lon="8.9505667"><ele>415.0</ele><time>2026-04-21T14:49:15.281Z</time></trkpt><trkpt lat="45.75589" lon="8.9506"><ele>415.0</ele><time>2026-04-21T14:49:17.282Z</time></trkpt><trkpt lat="45.75583" lon="8.95065"><ele>415.0</ele><time>2026-04-21T14:49:19.282Z</time></trkpt><trkpt lat="45.7557617" lon="8.9507267"><ele>415.0</ele><time>2026-04-21T14:49:22.284Z</time></trkpt><trkpt lat="45.755705" lon="8.95079"><ele>415.0</ele><time>2026-04-21T14:49:25.283Z</time></trkpt><trkpt lat="45.7556433" lon="8.9508167"><ele>415.0</ele><time>2026-04-21T14:49:28.283Z</time></trkpt><trkpt lat="45.7555817" lon="8.95089"><ele>415.0</ele><time>2026-04-21T14:49:31.284Z</time></trkpt><trkpt lat="45.7555217" lon="8.95093"><ele>415.0</ele><time>2026-04-21T14:49:34.283Z</time></trkpt><trkpt lat="45.7554633" lon="8.9509983"><ele>415.33333333333337</ele><time>2026-04-21T14:49:36.284Z</time></trkpt><trkpt lat="45.7554117" lon="8.9510533"><ele>415.6666666666667</ele><time>2026-04-21T14:49:38.285Z</time></trkpt><trkpt lat="45.7553517" lon="8.9511383"><ele>416.0</ele><time>2026-04-21T14:49:41.283Z</time></trkpt><trkpt lat="45.75531" lon="8.95122"><ele>416.33333333333337</ele><time>2026-04-21T14:49:43.284Z</time></trkpt><trkpt lat="45.7552583" lon="8.9513133"><ele>416.6666666666667</ele><time>2026-04-21T14:49:47.283Z</time></trkpt><trkpt lat="45.755225" lon="8.9513933"><ele>417.0</ele><time>2026-04-21T14:49:49.283Z</time></trkpt><trkpt lat="45.7551967" lon="8.9515083"><ele>417.0</ele><time>2026-04-21T14:49:52.283Z</time></trkpt><trkpt lat="45.755155" lon="8.9515883"><ele>417.0</ele><time>2026-04-21T14:49:55.283Z</time></trkpt><trkpt lat="45.7550883" lon="8.9516483"><ele>417.0</ele><time>2026-04-21T14:49:58.283Z</time></trkpt><trkpt lat="45.7550183" lon="8.95171"><ele>417.0</ele><time>2026-04-21T14:50:01.283Z</time></trkpt><trkpt lat="45.7549517" lon="8.951785"><ele>417.0</ele><time>2026-04-21T14:50:04.282Z</time></trkpt><trkpt lat="45.754905" lon="8.9518467"><ele>417.0</ele><time>2026-04-21T14:50:07.283Z</time></trkpt><trkpt lat="45.75485" lon="8.951925"><ele>417.14285714285717</ele><time>2026-04-21T14:50:10.283Z</time></trkpt><trkpt lat="45.7547717" lon="8.951965"><ele>417.2857142857143</ele><time>2026-04-21T14:50:13.283Z</time></trkpt><trkpt lat="45.7547033" lon="8.95198"><ele>417.42857142857144</ele><time>2026-04-21T14:50:15.283Z</time></trkpt><trkpt lat="45.75463" lon="8.9520083"><ele>417.57142857142856</ele><time>2026-04-21T14:50:17.284Z</time></trkpt><trkpt lat="45.7545683" lon="8.9520317"><ele>417.71428571428567</ele><time>2026-04-21T14:50:19.283Z</time></trkpt><trkpt lat="45.75451" lon="8.952115"><ele>417.85714285714283</ele><time>2026-04-21T14:50:22.283Z</time></trkpt><trkpt lat="45.7544467" lon="8.9521717"><ele>418.0</ele><time>2026-04-21T14:50:25.283Z</time></trkpt><trkpt lat="45.7543733" lon="8.9522383"><ele>418.2857142857143</ele><time>2026-04-21T14:50:28.283Z</time></trkpt><trkpt lat="45.754315" lon="8.9522733"><ele>418.57142857142856</ele><time>2026-04-21T14:50:30.283Z</time></trkpt><trkpt lat="45.7542483" lon="8.9523067"><ele>418.8571428571429</ele><time>2026-04-21T14:50:32.283Z</time></trkpt><trkpt lat="45.75418" lon="8.952325"><ele>419.1428571428571</ele><time>2026-04-21T14:50:34.283Z</time></trkpt><trkpt lat="45.7541083" lon="8.9523433"><ele>419.42857142857144</ele><time>2026-04-21T14:50:36.283Z</time></trkpt><trkpt lat="45.7540333" lon="8.9523467"><ele>419.7142857142857</ele><time>2026-04-21T14:50:38.284Z</time></trkpt><trkpt lat="45.7539483" lon="8.95236"><ele>420.0</ele><time>2026-04-21T14:50:40.282Z</time></trkpt><trkpt lat="45.7538683" lon="8.95238"><ele>420.0</ele><time>2026-04-21T14:50:42.284Z</time></trkpt><trkpt lat="45.75379" lon="8.9523967"><ele>420.0</ele><time>2026-04-21T14:50:44.283Z</time></trkpt><trkpt lat="45.7536917" lon="8.952425"><ele>420.0</ele><time>2026-04-21T14:50:47.282Z</time></trkpt><trkpt lat="45.7536233" lon="8.95245"><ele>420.0</ele><time>2026-04-21T14:50:49.282Z</time></trkpt><trkpt lat="45.7535433" lon="8.9524867"><ele>420.0</ele><time>2026-04-21T14:50:52.282Z</time></trkpt><trkpt lat="45.7534617" lon="8.9525367"><ele>420.0</ele><time>2026-04-21T14:50:55.282Z</time></trkpt><trkpt lat="45.753395" lon="8.9525383"><ele>419.85714285714283</ele><time>2026-04-21T14:50:57.282Z</time></trkpt><trkpt lat="45.75332" lon="8.9525183"><ele>419.7142857142857</ele><time>2026-04-21T14:50:59.282Z</time></trkpt><trkpt lat="45.7532533" lon="8.9525033"><ele>419.57142857142856</ele><time>2026-04-21T14:51:01.282Z</time></trkpt><trkpt lat="45.7531783" lon="8.952495"><ele>419.42857142857144</ele><time>2026-04-21T14:51:03.281Z</time></trkpt><trkpt lat="45.7530967" lon="8.95251"><ele>419.2857142857143</ele><time>2026-04-21T14:51:06.283Z</time></trkpt><trkpt lat="45.7530283" lon="8.9525183"><ele>419.1428571428571</ele><time>2026-04-21T14:51:08.282Z</time></trkpt><trkpt lat="45.752955" lon="8.9525217"><ele>419.0</ele><time>2026-04-21T14:51:10.281Z</time></trkpt><trkpt lat="45.7528883" lon="8.95253"><ele>418.99999999999994</ele><time>2026-04-21T14:51:12.282Z</time></trkpt><trkpt lat="45.752815" lon="8.9525317"><ele>419.0</ele><time>2026-04-21T14:51:14.281Z</time></trkpt><trkpt lat="45.7527417" lon="8.9525133"><ele>419.0</ele><time>2026-04-21T14:51:16.281Z</time></trkpt><trkpt lat="45.75265" lon="8.9525117"><ele>419.0</ele><time>2026-04-21T14:51:18.282Z</time></trkpt><trkpt lat="45.7525733" lon="8.952515"><ele>418.99999999999994</ele><time>2026-04-21T14:51:20.281Z</time></trkpt><trkpt lat="45.752495" lon="8.952545"><ele>419.0</ele><time>2026-04-21T14:51:22.282Z</time></trkpt><trkpt lat="45.7524217" lon="8.95257"><ele>417.66666666666663</ele><time>2026-04-21T14:51:24.283Z</time></trkpt><trkpt lat="45.7523483" lon="8.952595"><ele>416.3333333333333</ele><time>2026-04-21T14:51:26.282Z</time></trkpt><trkpt lat="45.7522633" lon="8.9526133"><ele>415.0</ele><time>2026-04-21T14:51:28.283Z</time></trkpt><trkpt lat="45.75219" lon="8.9526433"><ele>413.66666666666663</ele><time>2026-04-21T14:51:30.284Z</time></trkpt><trkpt lat="45.7521067" lon="8.9526867"><ele>412.3333333333333</ele><time>2026-04-21T14:51:32.282Z</time></trkpt><trkpt lat="45.7520117" lon="8.9527083"><ele>411.0</ele><time>2026-04-21T14:51:34.281Z</time></trkpt><trkpt lat="45.7519183" lon="8.95272"><ele>410.6</ele><time>2026-04-21T14:51:36.281Z</time></trkpt><trkpt lat="45.751845" lon="8.9527417"><ele>410.20000000000005</ele><time>2026-04-21T14:51:38.281Z</time></trkpt><trkpt lat="45.7517667" lon="8.9528017"><ele>409.79999999999995</ele><time>2026-04-21T14:51:40.281Z</time></trkpt><trkpt lat="45.7517017" lon="8.9528317"><ele>409.4</ele><time>2026-04-21T14:51:42.282Z</time></trkpt><trkpt lat="45.751605" lon="8.952855"><ele>409.0</ele><time>2026-04-21T14:51:44.281Z</time></trkpt><trkpt lat="45.751485" lon="8.9529"><ele>409.0</ele><time>2026-04-21T14:51:46.282Z</time></trkpt><trkpt lat="45.751395" lon="8.9529217"><ele>409.0</ele><time>2026-04-21T14:51:48.282Z</time></trkpt><trkpt lat="45.7513333" lon="8.9529683"><ele>409.0</ele><time>2026-04-21T14:51:50.282Z</time></trkpt><trkpt lat="45.7512433" lon="8.953015"><ele>409.0</ele><time>2026-04-21T14:51:53.282Z</time></trkpt><trkpt lat="45.751145" lon="8.9530533"><ele>409.0</ele><time>2026-04-21T14:51:55.282Z</time></trkpt><trkpt lat="45.7510417" lon="8.95308"><ele>408.0</ele><time>2026-04-21T14:51:57.282Z</time></trkpt><trkpt lat="45.7509367" lon="8.9531233"><ele>407.0</ele><time>2026-04-21T14:51:59.282Z</time></trkpt><trkpt lat="45.750845" lon="8.9531633"><ele>406.0</ele><time>2026-04-21T14:52:01.283Z</time></trkpt><trkpt lat="45.7507517" lon="8.9532283"><ele>405.0</ele><time>2026-04-21T14:52:03.281Z</time></trkpt><trkpt lat="45.7506783" lon="8.9532667"><ele>404.0</ele><time>2026-04-21T14:52:05.282Z</time></trkpt><trkpt lat="45.7506367" lon="8.9533433"><ele>403.42857142857144</ele><time>2026-04-21T14:52:08.281Z</time></trkpt><trkpt lat="45.7506783" lon="8.9534117"><ele>402.85714285714283</ele><time>2026-04-21T14:52:13.281Z</time></trkpt><trkpt lat="45.7507267" lon="8.95348"><ele>402.28571428571433</ele><time>2026-04-21T14:52:17.281Z</time></trkpt><trkpt lat="45.7507783" lon="8.95355"><ele>401.7142857142857</ele><time>2026-04-21T14:52:20.282Z</time></trkpt><trkpt lat="45.75084" lon="8.9535983"><ele>401.14285714285717</ele><time>2026-04-21T14:52:24.282Z</time></trkpt><trkpt lat="45.7508883" lon="8.95366"><ele>400.5714285714286</ele><time>2026-04-21T14:52:27.281Z</time></trkpt><trkpt lat="45.7509417" lon="8.95371"><ele>400.0</ele><time>2026-04-21T14:52:31.282Z</time></trkpt><trkpt lat="45.7509983" lon="8.9537667"><ele>400.1666666666667</ele><time>2026-04-21T14:52:34.282Z</time></trkpt><trkpt lat="45.7510617" lon="8.9538117"><ele>400.33333333333337</ele><time>2026-04-21T14:52:37.283Z</time></trkpt><trkpt lat="45.7511267" lon="8.9538667"><ele>400.5</ele><time>2026-04-21T14:52:40.282Z</time></trkpt><trkpt lat="45.7511817" lon="8.95397"><ele>400.66666666666663</ele><time>2026-04-21T14:52:43.282Z</time></trkpt><trkpt lat="45.7512233" lon="8.95406"><ele>400.8333333333333</ele><time>2026-04-21T14:52:45.282Z</time></trkpt><trkpt lat="45.7512733" lon="8.9541467"><ele>401.0</ele><time>2026-04-21T14:52:47.283Z</time></trkpt><trkpt lat="45.7513183" lon="8.9542267"><ele>400.99999999999994</ele><time>2026-04-21T14:52:49.282Z</time></trkpt><trkpt lat="45.7513667" lon="8.9543183"><ele>401.0</ele><time>2026-04-21T14:52:51.281Z</time></trkpt><trkpt lat="45.7514117" lon="8.9544067"><ele>401.0</ele><time>2026-04-21T14:52:53.282Z</time></trkpt><trkpt lat="45.7514567" lon="8.954485"><ele>401.0</ele><time>2026-04-21T14:52:55.281Z</time></trkpt><trkpt lat="45.7515133" lon="8.9545683"><ele>400.99999999999994</ele><time>2026-04-21T14:52:58.28Z</time></trkpt><trkpt lat="45.751575" lon="8.9546733"><ele>401.0</ele><time>2026-04-21T14:53:01.28Z</time></trkpt><trkpt lat="45.7515983" lon="8.9547583"><ele>401.0</ele><time>2026-04-21T14:53:03.282Z</time></trkpt><trkpt lat="45.7516217" lon="8.95486"><ele>401.0</ele><time>2026-04-21T14:53:05.283Z</time></trkpt><trkpt lat="45.751645" lon="8.95496"><ele>401.0</ele><time>2026-04-21T14:53:07.282Z</time></trkpt><trkpt lat="45.7516667" lon="8.9550783"><ele>401.0</ele><time>2026-04-21T14:53:10.282Z</time></trkpt><trkpt lat="45.7516983" lon="8.9551583"><ele>401.0</ele><time>2026-04-21T14:53:12.282Z</time></trkpt><trkpt lat="45.7517133" lon="8.9552533"><ele>401.0</ele><time>2026-04-21T14:53:14.282Z</time></trkpt><trkpt lat="45.7517483" lon="8.955355"><ele>401.0</ele><time>2026-04-21T14:53:16.282Z</time></trkpt><trkpt lat="45.7517633" lon="8.9554467"><ele>400.99999999999994</ele><time>2026-04-21T14:53:18.281Z</time></trkpt><trkpt lat="45.751805" lon="8.9555567"><ele>401.0</ele><time>2026-04-21T14:53:21.281Z</time></trkpt><trkpt lat="45.75183" lon="8.9556633"><ele>401.0</ele><time>2026-04-21T14:53:23.282Z</time></trkpt><trkpt lat="45.7518433" lon="8.9557717"><ele>401.0</ele><time>2026-04-21T14:53:25.282Z</time></trkpt><trkpt lat="45.75186" lon="8.9558817"><ele>400.99999999999994</ele><time>2026-04-21T14:53:27.281Z</time></trkpt><trkpt lat="45.7518833" lon="8.9559883"><ele>401.0</ele><time>2026-04-21T14:53:29.281Z</time></trkpt><trkpt lat="45.75189" lon="8.95609"><ele>400.99999999999994</ele><time>2026-04-21T14:53:31.282Z</time></trkpt><trkpt lat="45.7519" lon="8.956195"><ele>401.0</ele><time>2026-04-21T14:53:33.282Z</time></trkpt><trkpt lat="45.751915" lon="8.956305"><ele>401.0</ele><time>2026-04-21T14:53:35.282Z</time></trkpt><trkpt lat="45.7519467" lon="8.95641"><ele>401.0</ele><time>2026-04-21T14:53:37.282Z</time></trkpt><trkpt lat="45.751985" lon="8.95651"><ele>400.99999999999994</ele><time>2026-04-21T14:53:39.282Z</time></trkpt><trkpt lat="45.75201" lon="8.956605"><ele>401.0</ele><time>2026-04-21T14:53:41.282Z</time></trkpt><trkpt lat="45.752045" lon="8.9567117"><ele>400.4</ele><time>2026-04-21T14:53:43.281Z</time></trkpt><trkpt lat="45.7520683" lon="8.95682"><ele>399.8</ele><time>2026-04-21T14:53:45.282Z</time></trkpt><trkpt lat="45.7520833" lon="8.9569267"><ele>399.2</ele><time>2026-04-21T14:53:47.282Z</time></trkpt><trkpt lat="45.752115" lon="8.9570567"><ele>398.59999999999997</ele><time>2026-04-21T14:53:49.282Z</time></trkpt><trkpt lat="45.752155" lon="8.957215"><ele>398.0</ele><time>2026-04-21T14:53:51.283Z</time></trkpt><trkpt lat="45.7521867" lon="8.9573767"><ele>397.25</ele><time>2026-04-21T14:53:53.283Z</time></trkpt><trkpt lat="45.7522167" lon="8.9575467"><ele>396.5</ele><time>2026-04-21T14:53:55.281Z</time></trkpt><trkpt lat="45.7522333" lon="8.9577083"><ele>395.75</ele><time>2026-04-21T14:53:57.281Z</time></trkpt><trkpt lat="45.752265" lon="8.9578683"><ele>395.0</ele><time>2026-04-21T14:53:59.282Z</time></trkpt><trkpt lat="45.752315" lon="8.9580383"><ele>394.99999999999994</ele><time>2026-04-21T14:54:01.282Z</time></trkpt><trkpt lat="45.7523533" lon="8.958125"><ele>395.0</ele><time>2026-04-21T14:54:02.283Z</time></trkpt><trkpt lat="45.7523883" lon="8.9582067"><ele>395.0</ele><time>2026-04-21T14:54:03.282Z</time></trkpt><trkpt lat="45.752455" lon="8.9583517"><ele>395.0</ele><time>2026-04-21T14:54:05.282Z</time></trkpt><trkpt lat="45.7524855" lon="8.9584365"><ele>394.99999999999994</ele><time>2026-04-21T14:54:06.282Z</time></trkpt><trkpt lat="45.7525117" lon="8.958522"><ele>395.0</ele><time>2026-04-21T14:54:07.283Z</time></trkpt><trkpt lat="45.7525485" lon="8.9586851"><ele>394.8</ele><time>2026-04-21T14:54:09.283Z</time></trkpt><trkpt lat="45.75258" lon="8.9588353"><ele>394.6</ele><time>2026-04-21T14:54:11.282Z</time></trkpt><trkpt lat="45.752616" lon="8.9589698"><ele>394.4</ele><time>2026-04-21T14:54:13.283Z</time></trkpt><trkpt lat="45.752659" lon="8.959085"><ele>394.2</ele><time>2026-04-21T14:54:15.282Z</time></trkpt><trkpt lat="45.7527028" lon="8.9592044"><ele>394.0</ele><time>2026-04-21T14:54:17.281Z</time></trkpt><trkpt lat="45.7527466" lon="8.9593281"><ele>394.6666666666667</ele><time>2026-04-21T14:54:19.282Z</time></trkpt><trkpt lat="45.7527709" lon="8.9594449"><ele>395.33333333333337</ele><time>2026-04-21T14:54:21.282Z</time></trkpt><trkpt lat="45.752792" lon="8.9595597"><ele>396.0</ele><time>2026-04-21T14:54:23.282Z</time></trkpt><trkpt lat="45.752845" lon="8.959655"><ele>396.66666666666663</ele><time>2026-04-21T14:54:25.281Z</time></trkpt><trkpt lat="45.75288" lon="8.9597383"><ele>397.3333333333333</ele><time>2026-04-21T14:54:27.282Z</time></trkpt><trkpt lat="45.7529233" lon="8.9598117"><ele>398.0</ele><time>2026-04-21T14:54:29.282Z</time></trkpt><trkpt lat="45.7529817" lon="8.9598717"><ele>397.99999999999994</ele><time>2026-04-21T14:54:31.281Z</time></trkpt><trkpt lat="45.75304" lon="8.95994"><ele>398.0</ele><time>2026-04-21T14:54:33.282Z</time></trkpt><trkpt lat="45.7530933" lon="8.9600033"><ele>398.0</ele><time>2026-04-21T14:54:36.281Z</time></trkpt><trkpt lat="45.75316" lon="8.9600967"><ele>398.0</ele><time>2026-04-21T14:54:39.293Z</time></trkpt><trkpt lat="45.7532233" lon="8.96017"><ele>397.99999999999994</ele><time>2026-04-21T14:54:41.281Z</time></trkpt><trkpt lat="45.7532783" lon="8.9602183"><ele>398.0</ele><time>2026-04-21T14:54:43.28Z</time></trkpt><trkpt lat="45.753375" lon="8.9602983"><ele>397.8333333333333</ele><time>2026-04-21T14:54:47.282Z</time></trkpt><trkpt lat="45.7534533" lon="8.9603217"><ele>397.66666666666663</ele><time>2026-04-21T14:54:50.281Z</time></trkpt><trkpt lat="45.753545" lon="8.9603033"><ele>397.5</ele><time>2026-04-21T14:54:52.281Z</time></trkpt><trkpt lat="45.753615" lon="8.9602767"><ele>397.33333333333337</ele><time>2026-04-21T14:54:54.281Z</time></trkpt><trkpt lat="45.7536767" lon="8.9602517"><ele>397.1666666666667</ele><time>2026-04-21T14:54:56.28Z</time></trkpt><trkpt lat="45.7537633" lon="8.960245"><ele>397.0</ele><time>2026-04-21T14:54:59.28Z</time></trkpt><trkpt lat="45.75385" lon="8.96023"><ele>396.85714285714283</ele><time>2026-04-21T14:55:01.28Z</time></trkpt><trkpt lat="45.7539183" lon="8.9602133"><ele>396.71428571428567</ele><time>2026-04-21T14:55:03.28Z</time></trkpt><trkpt lat="45.7539917" lon="8.96018"><ele>396.57142857142856</ele><time>2026-04-21T14:55:05.28Z</time></trkpt><trkpt lat="45.75406" lon="8.9601517"><ele>396.42857142857144</ele><time>2026-04-21T14:55:07.281Z</time></trkpt><trkpt lat="45.7541283" lon="8.96013"><ele>396.2857142857143</ele><time>2026-04-21T14:55:09.28Z</time></trkpt><trkpt lat="45.7541933" lon="8.9601083"><ele>396.14285714285717</ele><time>2026-04-21T14:55:11.28Z</time></trkpt><trkpt lat="45.754255" lon="8.9600817"><ele>396.0</ele><time>2026-04-21T14:55:13.282Z</time></trkpt><trkpt lat="45.7543367" lon="8.96003"><ele>396.6666666666667</ele><time>2026-04-21T14:55:15.282Z</time></trkpt><trkpt lat="45.7544017" lon="8.9599917"><ele>397.33333333333337</ele><time>2026-04-21T14:55:17.282Z</time></trkpt><trkpt lat="45.7544733" lon="8.95996"><ele>398.0</ele><time>2026-04-21T14:55:19.282Z</time></trkpt><trkpt lat="45.7545417" lon="8.9599683"><ele>398.6666666666667</ele><time>2026-04-21T14:55:22.282Z</time></trkpt><trkpt lat="45.7546067" lon="8.960055"><ele>399.33333333333337</ele><time>2026-04-21T14:55:26.282Z</time></trkpt><trkpt lat="45.7546533" lon="8.9601517"><ele>400.0</ele><time>2026-04-21T14:55:29.282Z</time></trkpt><trkpt lat="45.7547067" lon="8.9602633"><ele>400.00000000000006</ele><time>2026-04-21T14:55:32.281Z</time></trkpt><trkpt lat="45.75474" lon="8.9603483"><ele>400.0</ele><time>2026-04-21T14:55:34.282Z</time></trkpt><trkpt lat="45.7547683" lon="8.9604533"><ele>400.0</ele><time>2026-04-21T14:55:36.281Z</time></trkpt><trkpt lat="45.754795" lon="8.9605633"><ele>400.0</ele><time>2026-04-21T14:55:38.282Z</time></trkpt><trkpt lat="45.7548417" lon="8.9606767"><ele>400.00000000000006</ele><time>2026-04-21T14:55:40.283Z</time></trkpt><trkpt lat="45.7548833" lon="8.9608033"><ele>400.0</ele><time>2026-04-21T14:55:42.282Z</time></trkpt><trkpt lat="45.754935" lon="8.9609483"><ele>399.2</ele><time>2026-04-21T14:55:44.282Z</time></trkpt><trkpt lat="45.7549783" lon="8.9610833"><ele>398.4</ele><time>2026-04-21T14:55:46.283Z</time></trkpt><trkpt lat="45.7550333" lon="8.96122"><ele>397.6</ele><time>2026-04-21T14:55:48.28Z</time></trkpt><trkpt lat="45.7550883" lon="8.9613717"><ele>396.8</ele><time>2026-04-21T14:55:50.282Z</time></trkpt><trkpt lat="45.7551383" lon="8.9615133"><ele>396.0</ele><time>2026-04-21T14:55:52.281Z</time></trkpt><trkpt lat="45.7551917" lon="8.961625"><ele>396.1666666666667</ele><time>2026-04-21T14:55:54.281Z</time></trkpt><trkpt lat="45.7552117" lon="8.96172"><ele>396.33333333333337</ele><time>2026-04-21T14:55:56.282Z</time></trkpt><trkpt lat="45.7551867" lon="8.96182"><ele>396.5</ele><time>2026-04-21T14:55:59.284Z</time></trkpt><trkpt lat="45.7551017" lon="8.9618233"><ele>396.6666666666667</ele><time>2026-04-21T14:56:02.284Z</time></trkpt><trkpt lat="45.75502" lon="8.9617767"><ele>396.83333333333337</ele><time>2026-04-21T14:56:05.282Z</time></trkpt><trkpt lat="45.75495" lon="8.9617483"><ele>397.0</ele><time>2026-04-21T14:56:08.284Z</time></trkpt><trkpt lat="45.7548683" lon="8.961715"><ele>397.00000000000006</ele><time>2026-04-21T14:56:11.282Z</time></trkpt><trkpt lat="45.7547867" lon="8.9617033"><ele>397.0</ele><time>2026-04-21T14:56:13.283Z</time></trkpt><trkpt lat="45.754705" lon="8.9617083"><ele>397.0</ele><time>2026-04-21T14:56:15.283Z</time></trkpt><trkpt lat="45.7546383" lon="8.9617567"><ele>397.0</ele><time>2026-04-21T14:56:17.283Z</time></trkpt><trkpt lat="45.754565" lon="8.961825"><ele>397.00000000000006</ele><time>2026-04-21T14:56:19.282Z</time></trkpt><trkpt lat="45.7545017" lon="8.9619017"><ele>397.0</ele><time>2026-04-21T14:56:21.283Z</time></trkpt><trkpt lat="45.7544433" lon="8.9619717"><ele>397.0</ele><time>2026-04-21T14:56:23.283Z</time></trkpt><trkpt lat="45.754385" lon="8.9620133"><ele>397.0</ele><time>2026-04-21T14:56:25.283Z</time></trkpt><trkpt lat="45.7543283" lon="8.9620717"><ele>397.0</ele><time>2026-04-21T14:56:27.282Z</time></trkpt><trkpt lat="45.7542667" lon="8.9621167"><ele>397.0</ele><time>2026-04-21T14:56:29.282Z</time></trkpt><trkpt lat="45.7542067" lon="8.9621567"><ele>397.0</ele><time>2026-04-21T14:56:31.283Z</time></trkpt><trkpt lat="45.7541467" lon="8.9622033"><ele>397.0</ele><time>2026-04-21T14:56:33.283Z</time></trkpt><trkpt lat="45.75409" lon="8.9622733"><ele>397.0</ele><time>2026-04-21T14:56:35.282Z</time></trkpt><trkpt lat="45.754035" lon="8.9623517"><ele>396.6666666666667</ele><time>2026-04-21T14:56:37.283Z</time></trkpt><trkpt lat="45.75398" lon="8.9624383"><ele>396.33333333333337</ele><time>2026-04-21T14:56:39.283Z</time></trkpt><trkpt lat="45.7539333" lon="8.9625117"><ele>396.0</ele><time>2026-04-21T14:56:41.283Z</time></trkpt><trkpt lat="45.75388" lon="8.962585"><ele>395.66666666666663</ele><time>2026-04-21T14:56:44.284Z</time></trkpt><trkpt lat="45.7538067" lon="8.96267"><ele>395.3333333333333</ele><time>2026-04-21T14:56:47.283Z</time></trkpt><trkpt lat="45.753755" lon="8.96274"><ele>395.0</ele><time>2026-04-21T14:56:49.282Z</time></trkpt><trkpt lat="45.7537117" lon="8.9628133"><ele>394.99999999999994</ele><time>2026-04-21T14:56:51.283Z</time></trkpt><trkpt lat="45.7536817" lon="8.9629233"><ele>395.0</ele><time>2026-04-21T14:56:53.284Z</time></trkpt><trkpt lat="45.7536583" lon="8.96304"><ele>395.0</ele><time>2026-04-21T14:56:55.283Z</time></trkpt><trkpt lat="45.753635" lon="8.9631383"><ele>395.0</ele><time>2026-04-21T14:56:57.284Z</time></trkpt><trkpt lat="45.7536333" lon="8.963275"><ele>394.99999999999994</ele><time>2026-04-21T14:56:59.283Z</time></trkpt><trkpt lat="45.7536417" lon="8.96342"><ele>395.0</ele><time>2026-04-21T14:57:01.282Z</time></trkpt><trkpt lat="45.753675" lon="8.9635767"><ele>394.66666666666663</ele><time>2026-04-21T14:57:03.284Z</time></trkpt><trkpt lat="45.7536883" lon="8.963665"><ele>394.3333333333333</ele><time>2026-04-21T14:57:04.284Z</time></trkpt><trkpt lat="45.7537133" lon="8.9637517"><ele>394.0</ele><time>2026-04-21T14:57:05.288Z</time></trkpt><trkpt lat="45.7537317" lon="8.9638383"><ele>393.66666666666663</ele><time>2026-04-21T14:57:06.284Z</time></trkpt><trkpt lat="45.7537483" lon="8.96393"><ele>393.3333333333333</ele><time>2026-04-21T14:57:07.284Z</time></trkpt><trkpt lat="45.753775" lon="8.9640933"><ele>393.0</ele><time>2026-04-21T14:57:09.379Z</time></trkpt><trkpt lat="45.7538217" lon="8.9642367"><ele>392.0</ele><time>2026-04-21T14:57:11.283Z</time></trkpt><trkpt lat="45.7538683" lon="8.9643567"><ele>391.0</ele><time>2026-04-21T14:57:13.284Z</time></trkpt><trkpt lat="45.7539367" lon="8.964465"><ele>390.0</ele><time>2026-04-21T14:57:15.282Z</time></trkpt><trkpt lat="45.75398" lon="8.9645833"><ele>389.0</ele><time>2026-04-21T14:57:17.283Z</time></trkpt><trkpt lat="45.7540183" lon="8.9647233"><ele>388.0</ele><time>2026-04-21T14:57:19.283Z</time></trkpt><trkpt lat="45.7540467" lon="8.9648617"><ele>388.0</ele><time>2026-04-21T14:57:21.283Z</time></trkpt><trkpt lat="45.7540767" lon="8.965005"><ele>388.0</ele><time>2026-04-21T14:57:23.282Z</time></trkpt><trkpt lat="45.7540983" lon="8.96513"><ele>388.0</ele><time>2026-04-21T14:57:25.282Z</time></trkpt><trkpt lat="45.7541017" lon="8.9652783"><ele>388.0</ele><time>2026-04-21T14:57:27.281Z</time></trkpt><trkpt lat="45.7541183" lon="8.9654283"><ele>388.0</ele><time>2026-04-21T14:57:29.282Z</time></trkpt><trkpt lat="45.7541333" lon="8.9655617"><ele>386.59999999999997</ele><time>2026-04-21T14:57:31.283Z</time></trkpt><trkpt lat="45.754155" lon="8.96573"><ele>385.2</ele><time>2026-04-21T14:57:33.28Z</time></trkpt><trkpt lat="45.7541833" lon="8.9658767"><ele>383.8</ele><time>2026-04-21T14:57:35.283Z</time></trkpt><trkpt lat="45.754215" lon="8.966025"><ele>382.4</ele><time>2026-04-21T14:57:37.284Z</time></trkpt><trkpt lat="45.7542367" lon="8.9661633"><ele>381.0</ele><time>2026-04-21T14:57:39.283Z</time></trkpt><trkpt lat="45.7542567" lon="8.9662667"><ele>381.0</ele><time>2026-04-21T14:57:41.283Z</time></trkpt><trkpt lat="45.7543117" lon="8.9663283"><ele>381.0</ele><time>2026-04-21T14:57:44.284Z</time></trkpt><trkpt lat="45.75436" lon="8.96625"><ele>381.0</ele><time>2026-04-21T14:57:47.282Z</time></trkpt><trkpt lat="45.7543833" lon="8.9661617"><ele>381.0</ele><time>2026-04-21T14:57:50.283Z</time></trkpt><trkpt lat="45.7544067" lon="8.966055"><ele>381.0</ele><time>2026-04-21T14:57:55.284Z</time></trkpt><trkpt lat="45.7544683" lon="8.9660067"><ele>381.0</ele><time>2026-04-21T14:58:00.283Z</time></trkpt><trkpt lat="45.7545183" lon="8.965925"><ele>381.0</ele><time>2026-04-21T14:58:04.283Z</time></trkpt><trkpt lat="45.75456" lon="8.965855"><ele>381.2857142857143</ele><time>2026-04-21T14:58:07.284Z</time></trkpt><trkpt lat="45.7546067" lon="8.96579"><ele>381.5714285714286</ele><time>2026-04-21T14:58:10.284Z</time></trkpt><trkpt lat="45.7546683" lon="8.9657317"><ele>381.8571428571429</ele><time>2026-04-21T14:58:14.282Z</time></trkpt><trkpt lat="45.7547117" lon="8.9656583"><ele>382.1428571428571</ele><time>2026-04-21T14:58:18.284Z</time></trkpt><trkpt lat="45.7547533" lon="8.965585"><ele>382.42857142857144</ele><time>2026-04-21T14:58:23.282Z</time></trkpt><trkpt lat="45.7547933" lon="8.9655017"><ele>382.7142857142857</ele><time>2026-04-21T14:58:27.283Z</time></trkpt><trkpt lat="45.7548183" lon="8.965415"><ele>383.0</ele><time>2026-04-21T14:58:30.282Z</time></trkpt><trkpt lat="45.7548667" lon="8.9653533"><ele>383.0</ele><time>2026-04-21T14:58:33.281Z</time></trkpt><trkpt lat="45.7549233" lon="8.965275"><ele>383.0</ele><time>2026-04-21T14:58:37.282Z</time></trkpt><trkpt lat="45.7549717" lon="8.965205"><ele>383.0</ele><time>2026-04-21T14:58:41.282Z</time></trkpt><trkpt lat="45.7550367" lon="8.965165"><ele>383.0</ele><time>2026-04-21T14:58:47.282Z</time></trkpt><trkpt lat="45.755095" lon="8.9651033"><ele>383.0</ele><time>2026-04-21T14:58:52.282Z</time></trkpt><trkpt lat="45.755145" lon="8.9651733"><ele>383.0</ele><time>2026-04-21T14:58:57.281Z</time></trkpt><trkpt lat="45.7551733" lon="8.9652567"><ele>383.0</ele><time>2026-04-21T14:59:02.282Z</time></trkpt><trkpt lat="45.7552467" lon="8.9653433"><ele>383.1428571428571</ele><time>2026-04-21T14:59:09.283Z</time></trkpt><trkpt lat="45.7553" lon="8.965415"><ele>383.2857142857143</ele><time>2026-04-21T14:59:14.284Z</time></trkpt><trkpt lat="45.7553717" lon="8.96543"><ele>383.42857142857144</ele><time>2026-04-21T14:59:19.282Z</time></trkpt><trkpt lat="45.75544" lon="8.9654233"><ele>383.57142857142856</ele><time>2026-04-21T14:59:23.284Z</time></trkpt><trkpt lat="45.7555033" lon="8.96536"><ele>383.7142857142857</ele><time>2026-04-21T14:59:28.282Z</time></trkpt><trkpt lat="45.7555717" lon="8.965345"><ele>383.85714285714283</ele><time>2026-04-21T14:59:33.282Z</time></trkpt><trkpt lat="45.75564" lon="8.9653533"><ele>384.0</ele><time>2026-04-21T14:59:38.283Z</time></trkpt><trkpt lat="45.7557" lon="8.9653217"><ele>383.99999999999994</ele><time>2026-04-21T14:59:44.282Z</time></trkpt><trkpt lat="45.7557717" lon="8.9653033"><ele>384.0</ele><time>2026-04-21T14:59:50.282Z</time></trkpt><trkpt lat="45.75584" lon="8.9652933"><ele>384.0</ele><time>2026-04-21T14:59:55.283Z</time></trkpt><trkpt lat="45.75591" lon="8.965265"><ele>384.0</ele><time>2026-04-21T14:59:59.283Z</time></trkpt><trkpt lat="45.7559683" lon="8.9652117"><ele>384.0</ele><time>2026-04-21T15:00:02.283Z</time></trkpt><trkpt lat="45.7560383" lon="8.9651633"><ele>383.99999999999994</ele><time>2026-04-21T15:00:05.283Z</time></trkpt><trkpt lat="45.7560967" lon="8.965115"><ele>384.0</ele><time>2026-04-21T15:00:07.284Z</time></trkpt><trkpt lat="45.75617" lon="8.9650217"><ele>384.5</ele><time>2026-04-21T15:00:10.285Z</time></trkpt><trkpt lat="45.75623" lon="8.964945"><ele>385.0</ele><time>2026-04-21T15:00:12.285Z</time></trkpt><trkpt lat="45.7562883" lon="8.964855"><ele>385.5</ele><time>2026-04-21T15:00:14.284Z</time></trkpt><trkpt lat="45.756365" lon="8.9647767"><ele>386.0</ele><time>2026-04-21T15:00:16.284Z</time></trkpt><trkpt lat="45.75644" lon="8.9647183"><ele>386.5</ele><time>2026-04-21T15:00:18.284Z</time></trkpt><trkpt lat="45.756515" lon="8.964685"><ele>387.0</ele><time>2026-04-21T15:00:20.284Z</time></trkpt><trkpt lat="45.75658" lon="8.9646617"><ele>387.0</ele><time>2026-04-21T15:00:22.283Z</time></trkpt><trkpt lat="45.7566533" lon="8.96464"><ele>387.0</ele><time>2026-04-21T15:00:26.285Z</time></trkpt><trkpt lat="45.75672" lon="8.96463"><ele>387.0</ele><time>2026-04-21T15:00:30.284Z</time></trkpt><trkpt lat="45.7567883" lon="8.964685"><ele>387.0</ele><time>2026-04-21T15:00:35.285Z</time></trkpt><trkpt lat="45.7568183" lon="8.96477"><ele>387.0</ele><time>2026-04-21T15:00:38.283Z</time></trkpt><trkpt lat="45.7568533" lon="8.9648533"><ele>387.0</ele><time>2026-04-21T15:00:42.282Z</time></trkpt><trkpt lat="45.7568817" lon="8.9649383"><ele>387.0</ele><time>2026-04-21T15:00:46.283Z</time></trkpt><trkpt lat="45.756915" lon="8.965035"><ele>387.42857142857144</ele><time>2026-04-21T15:00:50.284Z</time></trkpt><trkpt lat="45.75694" lon="8.9651183"><ele>387.8571428571429</ele><time>2026-04-21T15:00:54.281Z</time></trkpt><trkpt lat="45.7569733" lon="8.96521"><ele>388.2857142857143</ele><time>2026-04-21T15:00:59.283Z</time></trkpt><trkpt lat="45.756995" lon="8.96533"><ele>388.7142857142857</ele><time>2026-04-21T15:01:05.284Z</time></trkpt><trkpt lat="45.7570433" lon="8.9654083"><ele>389.1428571428571</ele><time>2026-04-21T15:15:43.282Z</time></trkpt><trkpt lat="45.757105" lon="8.965365"><ele>389.57142857142856</ele><time>2026-04-21T15:15:46.282Z</time></trkpt><trkpt lat="45.7571867" lon="8.9653383"><ele>390.0</ele><time>2026-04-21T15:15:49.282Z</time></trkpt><trkpt lat="45.75725" lon="8.96541"><ele>390.0</ele><time>2026-04-21T15:15:52.281Z</time></trkpt><trkpt lat="45.7572917" lon="8.9654867"><ele>390.0</ele><time>2026-04-21T15:15:55.282Z</time></trkpt><trkpt lat="45.7573767" lon="8.9654933"><ele>390.0</ele><time>2026-04-21T15:15:58.283Z</time></trkpt><trkpt lat="45.75746" lon="8.9654333"><ele>390.0</ele><time>2026-04-21T15:16:01.282Z</time></trkpt><trkpt lat="45.7575167" lon="8.9653617"><ele>390.0</ele><time>2026-04-21T15:16:04.28Z</time></trkpt><trkpt lat="45.7575767" lon="8.965315"><ele>390.0</ele><time>2026-04-21T15:16:07.281Z</time></trkpt><trkpt lat="45.7576617" lon="8.96528"><ele>389.42857142857144</ele><time>2026-04-21T15:16:10.281Z</time></trkpt><trkpt lat="45.7577267" lon="8.96525"><ele>388.85714285714283</ele><time>2026-04-21T15:16:14.283Z</time></trkpt><trkpt lat="45.7577467" lon="8.9653367"><ele>388.28571428571433</ele><time>2026-04-21T15:16:18.282Z</time></trkpt><trkpt lat="45.75775" lon="8.9654567"><ele>387.7142857142857</ele><time>2026-04-21T15:16:22.281Z</time></trkpt><trkpt lat="45.7577533" lon="8.965565"><ele>387.14285714285717</ele><time>2026-04-21T15:16:25.282Z</time></trkpt><trkpt lat="45.7577483" lon="8.965665"><ele>386.5714285714286</ele><time>2026-04-21T15:16:27.283Z</time></trkpt><trkpt lat="45.75774" lon="8.9657883"><ele>386.0</ele><time>2026-04-21T15:16:30.282Z</time></trkpt><trkpt lat="45.7577317" lon="8.9659167"><ele>385.49999999999994</ele><time>2026-04-21T15:16:33.282Z</time></trkpt><trkpt lat="45.75773" lon="8.96604"><ele>385.0</ele><time>2026-04-21T15:16:35.281Z</time></trkpt><trkpt lat="45.75772" lon="8.9661583"><ele>384.5</ele><time>2026-04-21T15:16:37.281Z</time></trkpt><trkpt lat="45.7577233" lon="8.9662683"><ele>384.0</ele><time>2026-04-21T15:16:39.282Z</time></trkpt><trkpt lat="45.7577133" lon="8.9663583"><ele>383.5</ele><time>2026-04-21T15:16:41.283Z</time></trkpt><trkpt lat="45.75766" lon="8.9664167"><ele>383.0</ele><time>2026-04-21T15:16:44.283Z</time></trkpt><trkpt lat="45.7575917" lon="8.9664533"><ele>383.0</ele><time>2026-04-21T15:16:47.283Z</time></trkpt><trkpt lat="45.75752" lon="8.9664833"><ele>383.0</ele><time>2026-04-21T15:16:50.283Z</time></trkpt><trkpt lat="45.7574717" lon="8.9665517"><ele>383.0</ele><time>2026-04-21T15:16:53.284Z</time></trkpt><trkpt lat="45.7574333" lon="8.9666383"><ele>383.0</ele><time>2026-04-21T15:16:56.283Z</time></trkpt><trkpt lat="45.7573817" lon="8.9667283"><ele>383.0</ele><time>2026-04-21T15:16:59.283Z</time></trkpt><trkpt lat="45.7573767" lon="8.9668267"><ele>383.0</ele><time>2026-04-21T15:17:12.281Z</time></trkpt><trkpt lat="45.7574367" lon="8.9668733"><ele>383.0</ele><time>2026-04-21T15:17:15.284Z</time></trkpt><trkpt lat="45.7575217" lon="8.9668517"><ele>382.5</ele><time>2026-04-21T15:17:18.283Z</time></trkpt><trkpt lat="45.7576033" lon="8.9669083"><ele>382.0</ele><time>2026-04-21T15:17:21.282Z</time></trkpt><trkpt lat="45.75764" lon="8.9669867"><ele>381.5</ele><time>2026-04-21T15:17:23.282Z</time></trkpt><trkpt lat="45.75767" lon="8.9671083"><ele>381.0</ele><time>2026-04-21T15:17:26.283Z</time></trkpt><trkpt lat="45.757675" lon="8.9672133"><ele>380.5</ele><time>2026-04-21T15:17:28.282Z</time></trkpt><trkpt lat="45.7576767" lon="8.967335"><ele>380.0</ele><time>2026-04-21T15:17:30.282Z</time></trkpt><trkpt lat="45.7576783" lon="8.967475"><ele>379.6</ele><time>2026-04-21T15:17:32.281Z</time></trkpt><trkpt lat="45.7576833" lon="8.967615"><ele>379.2</ele><time>2026-04-21T15:17:34.283Z</time></trkpt><trkpt lat="45.7576917" lon="8.967755"><ele>378.79999999999995</ele><time>2026-04-21T15:17:36.282Z</time></trkpt><trkpt lat="45.7576967" lon="8.967895"><ele>378.4</ele><time>2026-04-21T15:17:38.283Z</time></trkpt><trkpt lat="45.7577067" lon="8.96804"><ele>378.0</ele><time>2026-04-21T15:17:40.282Z</time></trkpt><trkpt lat="45.7577183" lon="8.9682017"><ele>378.0</ele><time>2026-04-21T15:17:42.283Z</time></trkpt><trkpt lat="45.7577333" lon="8.9683583"><ele>378.0</ele><time>2026-04-21T15:17:44.282Z</time></trkpt><trkpt lat="45.7577717" lon="8.9684683"><ele>378.0</ele><time>2026-04-21T15:17:46.283Z</time></trkpt><trkpt lat="45.7578617" lon="8.968515"><ele>378.0</ele><time>2026-04-21T15:17:48.283Z</time></trkpt><trkpt lat="45.7579567" lon="8.9685433"><ele>378.0</ele><time>2026-04-21T15:17:50.282Z</time></trkpt><trkpt lat="45.7580517" lon="8.96858"><ele>377.0</ele><time>2026-04-21T15:17:52.283Z</time></trkpt><trkpt lat="45.7581383" lon="8.9686"><ele>376.0</ele><time>2026-04-21T15:17:54.283Z</time></trkpt><trkpt lat="45.75822" lon="8.9686"><ele>375.0</ele><time>2026-04-21T15:17:56.282Z</time></trkpt><trkpt lat="45.7583133" lon="8.9686017"><ele>374.0</ele><time>2026-04-21T15:17:58.282Z</time></trkpt><trkpt lat="45.7584083" lon="8.9686083"><ele>373.0</ele><time>2026-04-21T15:18:00.282Z</time></trkpt><trkpt lat="45.7585033" lon="8.9685917"><ele>373.8333333333333</ele><time>2026-04-21T15:18:02.282Z</time></trkpt><trkpt lat="45.7585933" lon="8.9685567"><ele>374.66666666666663</ele><time>2026-04-21T15:18:04.282Z</time></trkpt><trkpt lat="45.75868" lon="8.9685133"><ele>375.5</ele><time>2026-04-21T15:18:06.283Z</time></trkpt><trkpt lat="45.7587617" lon="8.9684767"><ele>376.3333333333333</ele><time>2026-04-21T15:18:08.282Z</time></trkpt><trkpt lat="45.75884" lon="8.96844"><ele>377.1666666666667</ele><time>2026-04-21T15:18:10.281Z</time></trkpt><trkpt lat="45.7589167" lon="8.9684017"><ele>378.0</ele><time>2026-04-21T15:18:12.28Z</time></trkpt><trkpt lat="45.758995" lon="8.96836"><ele>378.5</ele><time>2026-04-21T15:18:14.282Z</time></trkpt><trkpt lat="45.7590683" lon="8.96832"><ele>379.0</ele><time>2026-04-21T15:18:16.28Z</time></trkpt><trkpt lat="45.7591383" lon="8.968275"><ele>379.5</ele><time>2026-04-21T15:18:18.282Z</time></trkpt><trkpt lat="45.7592117" lon="8.9682333"><ele>380.0</ele><time>2026-04-21T15:18:20.282Z</time></trkpt><trkpt lat="45.7592833" lon="8.9681983"><ele>380.5</ele><time>2026-04-21T15:18:22.28Z</time></trkpt><trkpt lat="45.7593467" lon="8.9681783"><ele>381.0</ele><time>2026-04-21T15:18:24.282Z</time></trkpt><trkpt lat="45.7594283" lon="8.96813"><ele>381.1428571428571</ele><time>2026-04-21T15:18:27.284Z</time></trkpt><trkpt lat="45.759495" lon="8.9681383"><ele>381.28571428571433</ele><time>2026-04-21T15:18:30.282Z</time></trkpt><trkpt lat="45.75954" lon="8.9682567"><ele>381.42857142857144</ele><time>2026-04-21T15:18:33.281Z</time></trkpt><trkpt lat="45.7595633" lon="8.9683417"><ele>381.57142857142856</ele><time>2026-04-21T15:18:35.282Z</time></trkpt><trkpt lat="45.7595333" lon="8.968425"><ele>381.71428571428567</ele><time>2026-04-21T15:18:38.281Z</time></trkpt><trkpt lat="45.7594717" lon="8.9684467"><ele>381.8571428571429</ele><time>2026-04-21T15:18:42.281Z</time></trkpt><trkpt lat="45.759405" lon="8.9684567"><ele>382.0</ele><time>2026-04-21T15:19:02.282Z</time></trkpt><trkpt lat="45.7593483" lon="8.9685483"><ele>378.0</ele><time>2026-04-21T15:19:14.28Z</time></trkpt></trkseg></trk></gpx>